[[{"header":{"parameterUnit":"m.s-1","parameterCategory":1,"la1":31.0,"la2":29.5877,"lo1":-88.7671,"lo2":-86.6584,"dy":0.0162,"dx":0.0185,"nx":115,"ny":88,"refTime":"2023-10-05T12:00:00:Z","depth":0,"parameterNumber":2,"parameterNumberName":"U-component_of_WINDS"},"data":[0.0,0.0,0.0,0.0,0.0,0.0,0.0,0.0,0.0,0.0,0.0,0.0,0.0,0.0,0.0,0.0,0.0,0.0,0.0,0.0,0.0,0.0,0.0,0.0,0.0,0.0,0.0,0.0,0.0,0.0,0.0,0.0,0.0,0.0,0.0,0.0,0.0,0.0,0.0,0.0,0.0,0.0,0.0,0.0,0.0,0.0,0.0,0.0,0.0,0.0,0.0,0.0,0.0,0.0,0.0,0.0,0.0,0.0,0.0,0.0,0.0,0.0,0.0,0.0,0.0,0.0,0.0,0.0,0.0,0.0,0.0,0.0,0.0,0.0,0.0,0.0,0.0,0.0,0.0,0.0,0.0,0.0,0.0,0.0,0.0,0.0,0.0,0.0,0.0,0.0,0.0,0.0,0.0,0.0,0.0,0.0,0.0,0.0,0.0,0.0,0.0,0.0,0.0,0.0,0.0,0.0,0.0,0.0,0.0,0.0,0.0,0.0,0.0,0.0,0.0,0.0,0.0,0.0,0.0,0.0,0.0,0.0,0.0,0.0,0.0,0.0,0.0,0.0,0.0,0.0,0.0,0.0,0.0,0.0,0.0,0.0,0.0,0.0,0.0,0.0,0.0,0.0,0.0,0.0,0.0,0.0,0.0,0.0,0.0,0.0,0.0,0.0,0.0,0.0,0.0,0.0,0.0,0.0,0.0,0.0,0.0,0.0,0.0,0.0,0.0,0.0,0.0,0.0,0.0,0.0,0.0,0.0,0.0,0.0,0.0,0.0,0.0,0.0,0.0,0.0,0.0,0.0,0.0,0.0,0.0,0.0,0.0,0.0,0.0,0.0,0.0,0.0,0.0,0.0,0.0,0.0,0.0,0.0,0.0,0.0,0.0,0.0,0.0,0.0,0.0,0.0,0.0,0.0,0.0,0.0,0.0,0.0,0.0,0.0,0.0,0.0,0.0,0.0,0.0,0.0,0.0,0.0,0.0,0.0,0.0,0.0,0.0,0.0,0.0,0.0,0.0,0.0,0.0,0.0,0.0,0.0,0.0,0.0,0.0,0.0,0.0,0.0,0.0,0.0,0.0,0.0,0.0,0.0,0.0,0.0,0.0,0.0,0.0,0.0,0.0,0.0,0.0,0.0,0.0,0.0,0.0,0.0,0.0,0.0,0.0,0.0,0.0,0.0,0.0,0.0,0.0,0.0,0.0,0.0,0.0,0.0,0.0,0.0,0.0,0.0,0.0,0.0,0.0,0.0,0.0,0.0,0.0,0.0,0.0,0.0,0.0,0.0,0.0,0.0,0.0,0.0,0.0,0.0,0.0,0.0,0.0,0.0,0.0,0.0,0.0,0.0,0.0,0.0,0.0,0.0,0.0,0.0,0.0,0.0,0.0,0.0,0.0,0.0,0.0,0.0,0.0,0.0,0.0,0.0,0.0,0.0,0.0,0.0,0.0,0.0,0.0,0.0,0.0,0.0,0.0,0.0,0.0,0.0,0.0,0.0,0.0,0.0,0.0,0.0,0.0,0.0,0.0,0.0,0.0,0.0,0.0,0.0,0.0,0.0,0.0,0.0,0.0,0.0,0.0,0.0,0.0,0.0,0.0,0.0,0.0,0.0,0.0,0.0,0.0,0.0,0.0,0.0,0.0,0.0,0.0,0.0,0.0,0.0,0.0,0.0,0.0,0.0,0.0,0.0,0.0,0.0,0.0,0.0,0.0,0.0,0.0,0.0,0.0,0.0,0.0,0.0,0.0,0.0,0.0,0.0,0.0,0.0,0.0,0.0,0.0,0.0,0.0,0.0,0.0,0.0,0.0,0.0,0.0,0.0,0.0,0.0,0.0,0.0,0.0,0.0,0.0,0.0,0.0,0.0,0.0,0.0,0.0,0.0,0.0,0.0,0.0,0.0,0.0,0.0,0.0,0.0,0.0,0.0,0.0,0.0,0.0,0.0,0.0,0.0,0.0,0.0,0.0,0.0,0.0,0.0,0.0,0.0,0.0,0.0,0.0,0.0,0.0,0.0,0.0,0.0,0.0,0.0,0.0,0.0,0.0,0.0,0.0,0.0,0.0,0.0,0.0,0.0,0.0,0.0,0.0,0.0,0.0,0.0,0.0,0.0,0.0,0.0,0.0,0.0,0.0,0.0,0.0,0.0,0.0,0.0,0.0,0.0,0.0,0.0,0.0,0.0,0.0,0.0,0.0,0.0,0.0,0.0,0.0,0.0,0.0,0.0,0.0,0.0,0.0,0.0,0.0,0.0,0.0,0.0,0.0,0.0,0.0,0.0,0.0,0.0,0.0,0.0,0.0,0.0,0.0,0.0,0.0,0.0,0.0,0.0,0.0,0.0,0.0,0.0,0.0,0.0,0.0,0.0,0.0,0.0,0.0,0.0,0.0,0.0,0.0,0.0,0.0,0.0,0.0,0.0,0.0,0.0,0.0,0.0,0.0,0.0,0.0,0.0,0.0,0.0,0.0,0.0,0.0,0.0,0.0,0.0,0.0,0.0,0.0,0.0,0.0,0.0,0.0,0.0,0.0,0.0,0.0,0.0,0.0,0.0,0.0,0.0,0.0,0.0,0.0,0.0,0.0,0.0,0.0,0.0,0.0,0.0,0.0,0.0,0.0,0.0,0.0,0.0,0.0,0.0,0.0,0.0,0.0,0.0,0.0,0.0,0.0,0.0,0.0,0.0,0.0,0.0,0.0,0.0,0.0,0.0,0.0,0.0,0.0,0.0,0.0,0.0,0.0,0.0,0.0,0.0,0.0,0.0,0.0,0.0,0.0,0.0,0.0,0.0,0.0,0.0,0.0,0.0,0.0,0.0,0.0,0.0,0.0,0.0,0.0,0.0,0.0,0.0,0.0,0.0,0.0,0.0,0.0,0.0,0.0,0.0,0.0,0.0,0.0,0.0,0.0,0.0,0.0,0.0,0.0,0.0,0.0,0.0,0.0,0.0,0.0,0.0,0.0,0.0,0.0,0.0,0.0,0.0,0.0,0.0,0.0,0.0,0.0,0.0,0.0,0.0,0.0,0.0,0.0,0.0,0.0,0.0,0.0,0.0,0.0,0.0,0.0,0.0,0.0,0.0,0.0,0.0,0.0,0.0,0.0,0.0,0.0,0.0,0.0,0.0,0.0,0.0,0.0,0.0,0.0,0.0,0.0,0.0,0.0,0.0,0.0,0.0,0.0,0.0,0.0,0.0,0.0,0.0,0.0,0.0,0.0,0.0,0.0,0.0,0.0,0.0,0.0,0.0,0.0,0.0,0.0,0.0,0.0,0.0,0.0,0.0,0.0,0.0,0.0,0.0,0.0,0.0,0.0,0.0,0.0,0.0,0.0,0.0,0.0,0.0,0.0,0.0,0.0,0.0,0.0,0.0,0.0,0.0,0.0,0.0,0.0,0.0,0.0,0.0,0.0,0.0,0.0,0.0,0.0,0.0,0.0,0.0,0.0,0.0,0.0,0.0,0.0,0.0,0.0,0.0,0.0,0.0,0.0,0.0,0.0,0.0,0.0,0.0,0.0,0.0,0.0,0.0,0.0,0.0,0.0,0.0,0.0,0.0,0.0,0.0,0.0,0.0,0.0,0.0,0.0,0.0,0.0,0.0,0.0,0.0,0.0,0.0,0.0,0.0,0.0,0.0,0.0,0.0,0.0,0.0,0.0,0.0,0.0,0.0,0.0,0.0,0.0,0.0,0.0,0.0,0.0,0.0,0.0,0.0,0.0,0.0,0.0,0.0,0.0,0.0,0.0,0.0,0.0,0.0,0.0,0.0,0.0,0.0,0.0,0.0,0.0,0.0,0.0,0.0,0.0,0.0,0.0,0.0,0.0,0.0,0.0,0.0,0.0,0.0,0.0,0.0,0.0,0.0,0.0,0.0,0.0,0.0,0.0,0.0,0.0,0.0,0.0,0.0,0.0,0.0,0.0,0.0,0.0,0.0,0.0,0.0,0.0,0.0,0.0,0.0,0.0,0.0,0.0,0.0,0.0,0.0,0.0,0.0,0.0,0.0,0.0,0.0,0.0,0.0,0.0,0.0,0.0,0.0,0.0,0.0,0.0,0.0,0.0,0.0,0.0,0.0,0.0,0.0,0.0,0.0,0.0,0.0,0.0,0.0,0.0,0.0,0.0,0.0,0.0,0.0,0.0,0.0,0.0,0.0,0.0,0.0,0.0,0.0,0.0,0.0,0.0,0.0,0.0,0.0,0.0,0.0,0.0,0.0,0.0,0.0,0.0,0.0,0.0,0.0,0.0,0.0,2.7098,0.0,0.0,0.0,0.0,0.0,0.0,0.0,0.0,0.0,0.0,0.0,0.0,0.0,0.0,0.0,0.0,0.0,0.0,0.0,0.0,0.0,0.0,0.0,0.0,0.0,0.0,0.0,0.0,0.0,0.0,0.0,0.0,0.0,0.0,0.0,0.0,0.0,0.0,0.0,0.0,0.0,0.0,0.0,0.0,0.0,0.0,0.0,0.0,0.0,0.0,0.0,0.0,0.0,0.0,0.0,0.0,0.0,0.0,0.0,0.0,0.0,0.0,0.0,0.0,0.0,0.0,0.0,0.0,0.0,0.0,0.0,0.0,0.0,0.0,0.0,0.0,0.0,0.0,0.0,0.0,0.0,0.0,0.0,0.0,0.0,0.0,0.0,0.0,0.0,0.0,0.0,0.0,0.0,0.0,0.0,0.0,0.0,0.0,0.0,0.0,0.0,0.0,0.0,0.0,0.0,0.0,0.0,0.0,0.0,0.0,2.793,2.7143,2.6164,2.5697,2.592,0.0,0.0,0.0,0.0,0.0,0.0,0.0,0.0,0.0,0.0,0.0,0.0,0.0,0.0,0.0,0.0,0.0,0.0,0.0,0.0,0.0,0.0,0.0,0.0,0.0,0.0,0.0,0.0,0.0,0.0,0.0,0.0,0.0,0.0,0.0,0.0,0.0,0.0,0.0,0.0,0.0,0.0,0.0,0.0,0.0,0.0,0.0,0.0,0.0,0.0,0.0,0.0,0.0,0.0,0.0,0.0,0.0,0.0,0.0,0.0,0.0,0.0,0.0,0.0,0.0,0.0,0.0,0.0,0.0,0.0,0.0,0.0,0.0,0.0,0.0,0.0,0.0,0.0,0.0,0.0,0.0,0.0,0.0,0.0,0.0,0.0,0.0,0.0,0.0,0.0,0.0,0.0,0.0,0.0,0.0,0.0,0.0,0.0,0.0,0.0,0.0,0.0,0.0,0.0,0.0,0.0,0.0,0.0,0.0,0.0,0.0,0.0,2.5119,2.4685,2.4531,0.0,0.0,0.0,0.0,0.0,0.0,0.0,0.0,0.0,0.0,0.0,0.0,0.0,0.0,0.0,0.0,0.0,0.0,0.0,0.0,0.0,0.0,0.0,0.0,0.0,0.0,0.0,0.0,0.0,0.0,0.0,0.0,0.0,0.0,0.0,0.0,0.0,0.0,0.0,0.0,0.0,0.0,0.0,0.0,0.0,0.0,0.0,0.0,0.0,0.0,0.0,0.0,0.0,0.0,0.0,0.0,0.0,0.0,0.0,0.0,0.0,0.0,0.0,0.0,0.0,0.0,0.0,0.0,0.0,0.0,0.0,0.0,0.0,0.0,0.0,0.0,0.0,0.0,0.0,0.0,0.0,0.0,0.0,0.0,0.0,0.0,0.0,0.0,0.0,0.0,0.0,0.0,0.0,0.0,0.0,0.0,0.0,0.0,0.0,0.0,0.0,0.0,0.0,0.0,0.0,0.0,0.0,0.0,0.0,0.0,2.6362,2.559,2.4722,0.0,2.3175,0.0,0.0,0.0,0.0,0.0,0.0,0.0,0.0,0.0,0.0,0.0,0.0,0.0,0.0,0.0,0.0,0.0,0.0,0.0,0.0,0.0,0.0,0.0,0.0,0.0,0.0,0.0,0.0,0.0,0.0,0.0,0.0,0.0,0.0,0.0,0.0,0.0,0.0,0.0,0.0,0.0,0.0,0.0,0.0,0.0,0.0,0.0,0.0,0.0,0.0,0.0,0.0,0.0,0.0,0.0,0.0,0.0,0.0,0.0,0.0,0.0,0.0,0.0,0.0,0.0,0.0,0.0,0.0,0.0,0.0,0.0,0.0,0.0,0.0,0.0,0.0,0.0,0.0,0.0,0.0,0.0,0.0,0.0,0.0,0.0,0.0,0.0,0.0,0.0,0.0,0.0,0.0,0.0,0.0,0.0,0.0,0.0,0.0,0.0,0.0,0.0,0.0,0.0,0.0,0.0,0.0,0.0,0.0,0.0,0.0,2.6834,2.5729,2.4807,2.3761,0.0,0.0,0.0,0.0,0.0,0.0,0.0,0.0,0.0,0.0,0.0,0.0,0.0,0.0,0.0,0.0,0.0,0.0,0.0,0.0,0.0,0.0,0.0,0.0,0.0,0.0,0.0,0.0,0.0,0.0,0.0,0.0,0.0,0.0,0.0,0.0,0.0,0.0,0.0,0.0,0.0,0.0,0.0,0.0,0.0,0.0,0.0,0.0,0.0,0.0,0.0,0.0,0.0,0.0,0.0,0.0,0.0,0.0,0.0,0.0,0.0,0.0,0.0,0.0,0.0,0.0,0.0,0.0,0.0,0.0,0.0,0.0,0.0,0.0,0.0,0.0,0.0,0.0,0.0,0.0,0.0,0.0,0.0,0.0,0.0,0.0,0.0,0.0,0.0,0.0,0.0,0.0,0.0,0.0,0.0,0.0,0.0,0.0,0.0,0.0,0.0,0.0,0.0,0.0,0.0,0.0,0.0,0.0,0.0,0.0,2.7678,2.7035,2.5761,2.497,2.3896,2.2483,0.0,0.0,0.0,0.0,0.0,0.0,0.0,0.0,0.0,0.0,0.0,0.0,0.0,0.0,0.0,0.0,0.0,0.0,0.0,0.0,0.0,0.0,0.0,0.0,0.0,0.0,0.0,0.0,0.0,0.0,0.0,0.0,0.0,0.0,0.0,0.0,0.0,0.0,0.0,0.0,0.0,0.0,0.0,0.0,0.0,0.0,0.0,0.0,0.0,0.0,0.0,0.0,0.0,0.0,0.0,0.0,0.0,0.0,0.0,0.0,0.0,0.0,0.0,0.0,0.0,0.0,0.0,0.0,0.0,0.0,0.0,0.0,0.0,0.0,0.0,0.0,0.0,0.0,0.0,0.0,0.0,0.0,0.0,0.0,0.0,0.0,0.0,0.0,0.0,0.0,0.0,0.0,0.0,0.0,0.0,0.0,0.0,0.0,0.0,0.0,0.0,0.0,0.0,0.0,0.0,0.0,0.0,0.0,2.7898,2.7308,2.6491,2.5585,2.5064,2.4321,0.0,0.0,0.0,0.0,0.0,0.0,0.0,0.0,0.0,0.0,0.0,0.0,0.0,0.0,0.0,0.0,0.0,0.0,0.0,0.0,0.0,0.0,0.0,0.0,0.0,0.0,0.0,0.0,0.0,0.0,0.0,0.0,0.0,0.0,0.0,0.0,0.0,0.0,0.0,0.0,0.0,0.0,0.0,0.0,0.0,0.0,0.0,0.0,0.0,0.0,0.0,0.0,0.0,0.0,0.0,0.0,0.0,0.0,0.0,0.0,0.0,0.0,0.0,0.0,0.0,0.0,0.0,0.0,0.0,0.0,0.0,0.0,0.0,0.0,0.0,0.0,0.0,0.0,0.0,0.0,0.0,0.0,0.0,0.0,0.0,0.0,0.0,0.0,0.0,0.0,0.0,0.0,0.0,0.0,0.0,0.0,0.0,0.0,0.0,0.0,0.0,0.0,0.0,0.0,0.0,0.0,0.0,0.0,0.0,2.8521,2.8059,2.7636,2.7097,2.5972,2.472,0.0,0.0,0.0,0.0,0.0,0.0,0.0,0.0,0.0,0.0,0.0,0.0,0.0,0.0,0.0,0.0,0.0,0.0,0.0,0.0,0.0,0.0,0.0,0.0,0.0,0.0,0.0,0.0,0.0,0.0,0.0,0.0,0.0,0.0,0.0,0.0,0.0,0.0,0.0,0.0,0.0,0.0,0.0,0.0,0.0,0.0,0.0,0.0,0.0,0.0,0.0,0.0,0.0,0.0,0.0,0.0,0.0,0.0,0.0,0.0,0.0,0.0,0.0,0.0,0.0,0.0,0.0,0.0,0.0,0.0,0.0,0.0,0.0,0.0,0.0,0.0,0.0,0.0,0.0,0.0,0.0,0.0,0.0,0.0,0.0,0.0,0.0,0.0,0.0,0.0,0.0,0.0,0.0,0.0,0.0,0.0,0.0,0.0,0.0,0.0,0.0,0.0,0.0,0.0,0.0,0.0,0.0,0.0,0.0,2.8281,0.0,2.7802,0.0,2.5783,2.4313,0.0,0.0,0.0,0.0,0.0,0.0,0.0,0.0,0.0,0.0,0.0,0.0,0.0,0.0,0.0,0.0,0.0,0.0,0.0,0.0,0.0,0.0,0.0,0.0,0.0,0.0,0.0,0.0,0.0,0.0,0.0,0.0,0.0,0.0,0.0,0.0,0.0,0.0,0.0,0.0,0.0,0.0,0.0,0.0,0.0,0.0,0.0,0.0,0.0,0.0,0.0,0.0,0.0,0.0,0.0,0.0,0.0,0.0,0.0,0.0,0.0,0.0,0.0,0.0,0.0,0.0,0.0,0.0,0.0,0.0,0.0,0.0,0.0,0.0,0.0,0.0,0.0,0.0,0.0,0.0,0.0,0.0,0.0,0.0,0.0,0.0,0.0,0.0,0.0,0.0,0.0,0.0,0.0,0.0,0.0,0.0,0.0,0.0,0.0,0.0,0.0,0.0,0.0,0.0,0.0,0.0,0.0,0.0,2.7866,2.7083,2.7409,2.6686,2.4951,2.4226,2.3072,0.0,0.0,0.0,0.0,0.0,0.0,0.0,0.0,0.0,0.0,0.0,0.0,0.0,0.0,0.0,0.0,0.0,0.0,0.0,0.0,0.0,0.0,0.0,0.0,0.0,0.0,0.0,0.0,0.0,0.0,0.0,0.0,0.0,0.0,0.0,0.0,0.0,0.0,0.0,0.0,0.0,0.0,0.0,0.0,0.0,0.0,0.0,0.0,0.0,0.0,0.0,0.0,0.0,0.0,0.0,0.0,0.0,0.0,0.0,0.0,0.0,0.0,0.0,0.0,0.0,0.0,0.0,0.0,0.0,0.0,0.0,0.0,0.0,0.0,0.0,0.0,0.0,0.0,0.0,0.0,0.0,0.0,0.0,0.0,0.0,0.0,0.0,0.0,0.0,0.0,0.0,0.0,0.0,0.0,0.0,0.0,0.0,0.0,0.0,0.0,0.0,0.0,0.0,0.0,0.0,0.0,0.0,0.0,0.0,2.7334,2.5741,2.4301,2.3157,2.1231,1.9796,0.0,0.0,0.0,0.0,0.0,0.0,0.0,0.0,0.0,0.0,0.0,0.0,0.0,0.0,0.0,0.0,0.0,0.0,0.0,0.0,0.0,0.0,0.0,0.0,0.0,0.0,0.0,0.0,0.0,0.0,0.0,0.0,0.0,0.0,0.0,0.0,0.0,0.0,0.0,0.0,0.0,0.0,0.0,0.0,0.0,0.0,0.0,0.0,0.0,0.0,0.0,0.0,0.0,0.0,0.0,0.0,0.0,0.0,0.0,0.0,0.0,0.0,0.0,0.0,0.0,0.0,0.0,0.0,0.0,0.0,0.0,0.0,0.0,0.0,0.0,0.0,0.0,0.0,0.0,0.0,0.0,0.0,0.0,0.0,0.0,0.0,0.0,0.0,0.0,0.0,0.0,0.0,0.0,0.0,0.0,0.0,0.0,0.0,0.0,0.0,0.0,0.0,0.0,0.0,0.0,0.0,0.0,0.0,0.0,1.9538,1.9928,1.9107,1.7413,1.5968,1.5185,1.5003,0.0,0.0,0.0,0.0,0.0,0.0,0.0,0.0,0.0,0.0,0.0,0.0,0.0,0.0,0.0,0.0,0.0,0.0,0.0,0.0,0.0,0.0,0.0,0.0,0.0,0.0,0.0,0.0,0.0,0.0,0.0,0.0,0.0,0.0,0.0,0.0,0.0,0.0,0.0,0.0,0.0,0.0,0.0,0.0,0.0,0.0,0.0,0.0,0.0,0.0,0.0,0.0,0.0,0.0,0.0,0.0,0.0,0.0,0.0,0.0,0.0,0.0,0.0,0.0,0.0,0.0,0.0,0.0,0.0,0.0,0.0,0.0,0.0,0.0,0.0,0.0,0.0,0.0,0.0,0.0,0.0,0.0,0.0,0.0,0.0,0.0,0.0,0.0,0.0,0.0,0.0,0.0,0.0,0.0,0.0,0.0,0.0,0.0,0.0,0.0,0.0,0.0,0.0,0.0,0.0,0.0,0.0,0.0,0.561,1.0052,1.0918,0.8291,0.8755,0.9218,0.0,0.0,0.0,0.0,0.0,0.0,0.0,0.0,0.0,0.0,0.0,0.0,0.0,0.0,0.0,0.0,0.0,0.0,0.0,0.0,0.0,0.0,0.0,0.0,0.0,0.0,0.0,0.0,0.0,0.0,0.0,0.0,0.0,0.0,0.0,0.0,0.0,0.0,0.0,0.0,0.0,0.0,0.0,0.0,0.0,0.0,0.0,0.0,0.0,0.0,0.0,0.0,0.0,0.0,0.0,0.0,0.0,0.0,0.0,0.0,0.0,0.0,0.0,0.0,0.0,0.0,0.0,0.0,0.0,0.0,0.0,0.0,0.0,0.0,0.0,0.0,0.0,0.0,0.0,0.0,0.0,0.0,0.0,0.0,0.0,0.0,0.0,0.0,0.0,0.0,0.0,0.0,0.0,0.0,0.0,0.0,0.0,0.0,0.0,0.0,0.0,0.0,0.0,0.0,0.0,0.0,0.0,0.0,0.0,-0.53,-0.6728,-0.5322,-0.0904,0.0792,0.2079,0.0,0.0,0.0,0.0,0.0,0.0,0.0,0.0,0.0,0.0,0.0,0.0,0.0,0.0,0.0,0.0,0.0,0.0,0.0,0.0,0.0,0.0,0.0,0.0,0.0,0.0,0.0,0.0,0.0,0.0,0.0,0.0,0.0,0.0,0.0,0.0,0.0,0.0,0.0,0.0,0.0,0.0,0.0,0.0,0.0,0.0,0.0,0.0,0.0,0.0,0.0,0.0,0.0,0.0,0.0,0.0,0.0,0.0,0.0,0.0,0.0,0.0,0.0,0.0,0.0,0.0,0.0,0.0,0.0,0.0,0.0,0.0,0.0,0.0,0.0,0.0,0.0,0.0,0.0,0.0,0.0,0.0,0.0,0.0,0.0,0.0,0.0,0.0,0.0,0.0,0.0,0.0,0.0,0.0,0.0,0.0,0.0,0.0,0.0,0.0,0.0,0.0,0.0,0.0,0.0,0.0,0.0,0.0,-1.3706,-1.4344,-1.8373,-1.8492,-1.4333,-0.8709,-0.4583,0.0,0.0,0.0,0.0,0.0,0.0,0.0,0.0,0.0,0.0,0.0,0.0,0.0,0.0,0.0,0.0,0.0,0.0,0.0,0.0,0.0,0.0,0.0,0.0,0.0,0.0,0.0,0.0,0.0,0.0,0.0,0.0,0.0,0.0,0.0,0.0,0.0,0.0,0.0,0.0,0.0,0.0,0.0,0.0,0.0,0.0,0.0,0.0,0.0,0.0,0.0,0.0,0.0,0.0,0.0,0.0,0.0,0.0,0.0,0.0,0.0,0.0,0.0,0.0,0.0,0.0,0.0,0.0,0.0,0.0,0.0,0.0,0.0,0.0,0.0,0.0,0.0,0.0,0.0,0.0,0.0,0.0,0.0,0.0,0.0,0.0,0.0,0.0,0.0,0.0,0.0,0.0,0.0,0.0,0.0,0.0,0.0,0.0,0.0,0.0,0.0,0.0,0.0,0.0,0.0,0.0,0.0,0.0,-2.4425,-2.1983,-2.6092,-2.8256,-2.7934,-1.8123,-1.0884,0.0,0.0,0.0,0.0,0.0,0.0,0.0,0.0,0.0,0.0,0.0,0.0,0.0,0.0,0.0,0.0,0.0,0.0,0.0,0.0,0.0,0.0,0.0,0.0,0.0,0.0,0.0,0.0,0.0,0.0,0.0,0.0,0.0,0.0,0.0,0.0,0.0,0.0,0.0,0.0,0.0,0.0,0.0,0.0,0.0,0.0,0.0,0.0,0.0,0.0,0.0,0.0,0.0,0.0,0.0,0.0,0.0,0.0,0.0,0.0,0.0,0.0,0.0,0.0,0.0,0.0,0.0,0.0,0.0,0.0,0.0,0.0,0.0,0.0,0.0,0.0,0.0,0.0,0.0,0.0,0.0,0.0,0.0,0.0,0.0,0.0,0.0,0.0,0.0,0.0,0.0,0.0,0.0,0.0,0.0,0.0,0.0,0.0,0.0,0.0,0.0,0.0,0.0,0.0,0.0,0.0,0.0,0.0,-2.4366,-2.8394,-3.0008,-3.0221,-2.895,-2.1848,-1.6368,0.0,0.0,0.0,0.0,0.0,0.0,0.0,0.0,0.0,0.0,0.0,0.0,0.0,0.0,0.0,0.0,0.0,0.0,0.0,0.0,0.0,0.0,0.0,0.0,0.0,0.0,0.0,0.0,0.0,0.0,0.0,0.0,0.0,0.0,0.0,0.0,0.0,0.0,0.0,0.0,0.0,0.0,0.0,0.0,0.0,0.0,0.0,0.0,-2.6096,0.0,0.0,0.0,0.0,0.0,0.0,0.0,0.0,0.0,0.0,0.0,0.0,0.0,0.0,0.0,0.0,0.0,0.0,0.0,0.0,0.0,0.0,0.0,0.0,0.0,0.0,0.0,0.0,0.0,0.0,0.0,0.0,0.0,0.0,0.0,0.0,0.0,0.0,0.0,0.0,0.0,0.0,0.0,0.0,0.0,0.0,0.0,0.0,0.0,0.0,0.0,0.0,0.0,0.0,0.0,0.0,0.0,0.0,0.0,-2.8122,-3.1803,-3.2486,-3.2162,-3.0719,-2.6138,-2.0934,0.0,0.0,0.0,0.0,0.0,0.0,0.0,0.0,0.0,0.0,0.0,0.0,0.0,0.0,0.0,0.0,0.0,0.0,0.0,0.0,0.0,0.0,0.0,0.0,0.0,0.0,0.0,0.0,0.0,0.0,0.0,0.0,0.0,0.0,0.0,0.0,0.0,0.0,0.0,0.0,0.0,0.0,0.0,0.0,0.0,0.0,0.0,0.0,0.0,0.0,0.0,0.0,0.0,0.0,0.0,0.0,0.0,0.0,0.0,0.0,0.0,0.0,0.0,0.0,0.0,0.0,0.0,0.0,0.0,0.0,0.0,0.0,0.0,0.0,0.0,0.0,0.0,0.0,0.0,0.0,0.0,0.0,0.0,0.0,0.0,0.0,0.0,0.0,0.0,0.0,0.0,0.0,0.0,0.0,0.0,0.0,0.0,0.0,0.0,0.0,0.0,0.0,0.0,0.0,0.0,0.0,0.0,-2.8194,-3.2489,-3.382,-3.3906,-3.3482,-3.2558,-2.9406,-2.4218,-1.6925,0.0,0.0,0.0,0.0,0.0,0.0,0.0,0.0,0.0,0.0,0.0,0.0,0.0,0.0,0.0,0.0,0.0,0.0,0.0,0.0,0.0,0.0,0.0,0.0,0.0,0.0,0.0,0.0,0.0,0.0,0.0,0.0,0.0,0.0,0.0,0.0,0.0,0.0,-1.9208,-2.552,0.0,0.0,0.0,0.0,0.0,0.0,0.0,0.0,-2.8417,0.0,0.0,0.0,0.0,0.0,0.0,0.0,0.0,0.0,0.0,0.0,0.0,0.0,0.0,0.0,0.0,0.0,0.0,0.0,0.0,0.0,0.0,0.0,0.0,0.0,0.0,0.0,0.0,0.0,0.0,0.0,0.0,0.0,0.0,0.0,0.0,0.0,0.0,0.0,0.0,0.0,0.0,0.0,0.0,0.0,0.0,0.0,0.0,0.0,0.0,0.0,0.0,0.0,0.0,0.0,0.0,-2.7776,-3.0844,-3.326,-3.5025,-3.3836,-3.281,-3.1994,-2.8537,-2.4342,-1.9582,0.0,0.0,0.0,0.0,0.0,0.0,0.0,0.0,0.0,0.0,0.0,0.0,0.0,0.0,0.0,0.0,0.0,0.0,0.0,0.0,0.0,0.0,0.0,0.0,0.0,0.0,0.0,0.0,0.0,0.0,0.0,0.0,0.0,0.0,0.0,0.0,0.0,0.0,0.0,-3.1007,-3.3966,0.0,0.0,0.0,0.0,0.0,0.0,0.0,0.0,-2.7817,0.0,0.0,0.0,0.0,0.0,0.0,0.0,0.0,0.0,0.0,0.0,0.0,0.0,0.0,0.0,0.0,0.0,0.0,0.0,0.0,0.0,0.0,0.0,0.0,0.0,0.0,0.0,0.0,0.0,0.0,0.0,0.0,0.0,0.0,0.0,0.0,0.0,0.0,0.0,0.0,0.0,0.0,0.0,0.0,0.0,0.0,0.0,0.0,0.0,0.0,0.0,0.0,0.0,0.0,0.0,-3.0526,-3.245,-3.3869,-3.5016,-3.4043,-3.2978,-3.1818,-2.9288,-2.5724,0.0,0.0,0.0,0.0,0.0,0.0,0.0,0.0,0.0,0.0,0.0,0.0,0.0,0.0,0.0,0.0,0.0,0.0,0.0,0.0,0.0,0.0,0.0,0.0,0.0,0.0,0.0,0.0,0.0,0.0,0.0,0.0,0.0,0.0,0.0,0.0,0.0,0.0,0.0,0.0,-3.4617,-3.7076,-3.8822,0.0,0.0,0.0,0.0,0.0,0.0,-3.1589,-2.8725,0.0,0.0,0.0,0.0,0.0,0.0,0.0,0.0,0.0,0.0,0.0,0.0,0.0,0.0,0.0,0.0,0.0,0.0,0.0,0.0,0.0,0.0,0.0,0.0,0.0,0.0,0.0,0.0,0.0,0.0,0.0,0.0,0.0,0.0,0.0,0.0,0.0,0.0,0.0,0.0,0.0,0.0,0.0,0.0,0.0,0.0,0.0,0.0,0.0,0.0,0.0,0.0,0.0,0.0,0.0,-3.1824,-3.3141,-3.4063,-3.4745,-3.4149,-3.3087,-3.1736,-2.9753,-2.6583,0.0,0.0,0.0,0.0,0.0,0.0,0.0,0.0,0.0,0.0,0.0,0.0,0.0,0.0,0.0,0.0,0.0,0.0,0.0,0.0,0.0,0.0,0.0,0.0,0.0,0.0,0.0,0.0,0.0,0.0,0.0,0.0,0.0,0.0,0.0,0.0,0.0,0.0,0.0,0.0,0.0,-3.9361,-4.0449,-3.9734,0.0,0.0,0.0,0.0,-3.4281,-3.2193,0.0,0.0,0.0,0.0,0.0,0.0,0.0,0.0,0.0,0.0,0.0,0.0,0.0,0.0,0.0,0.0,0.0,0.0,0.0,0.0,0.0,0.0,0.0,0.0,0.0,0.0,0.0,0.0,0.0,0.0,0.0,0.0,0.0,0.0,0.0,0.0,0.0,0.0,0.0,0.0,0.0,0.0,0.0,0.0,0.0,0.0,0.0,0.0,0.0,0.0,0.0,0.0,0.0,0.0,0.0,0.0,-3.1503,-3.2404,-3.3427,-3.4651,-3.3647,-3.259,-3.1702,-2.8553,-2.5394,0.0,0.0,0.0,0.0,0.0,0.0,0.0,0.0,0.0,0.0,0.0,0.0,0.0,0.0,0.0,0.0,0.0,0.0,0.0,0.0,0.0,0.0,0.0,0.0,0.0,0.0,0.0,0.0,0.0,0.0,0.0,0.0,0.0,0.0,0.0,0.0,0.0,0.0,0.0,0.0,0.0,-4.0056,-4.0633,-4.0606,-3.9726,0.0,0.0,-3.6038,-3.5119,-3.2373,0.0,0.0,0.0,0.0,0.0,0.0,0.0,0.0,0.0,0.0,0.0,0.0,0.0,0.0,0.0,0.0,0.0,0.0,0.0,0.0,0.0,0.0,0.0,0.0,0.0,0.0,0.0,0.0,0.0,0.0,0.0,0.0,0.0,0.0,0.0,0.0,0.0,0.0,0.0,0.0,0.0,0.0,0.0,0.0,0.0,0.0,0.0,0.0,0.0,0.0,0.0,0.0,0.0,0.0,0.0,-2.7762,-3.0584,-3.1346,-3.2058,-3.2756,-3.1874,-3.0812,-2.9638,-2.7371,-2.4709,0.0,0.0,0.0,0.0,0.0,0.0,0.0,0.0,0.0,0.0,0.0,0.0,0.0,0.0,0.0,0.0,0.0,0.0,0.0,0.0,0.0,0.0,0.0,0.0,0.0,0.0,0.0,0.0,0.0,0.0,0.0,0.0,0.0,0.0,0.0,0.0,0.0,0.0,0.0,0.0,0.0,0.0,-4.0943,-4.1591,0.0,0.0,0.0,-3.8199,-3.5892,0.0,0.0,0.0,0.0,0.0,0.0,0.0,0.0,0.0,0.0,0.0,0.0,0.0,0.0,0.0,0.0,0.0,0.0,0.0,0.0,0.0,0.0,0.0,0.0,0.0,0.0,0.0,0.0,0.0,0.0,0.0,0.0,0.0,0.0,0.0,0.0,0.0,0.0,0.0,0.0,0.0,0.0,0.0,0.0,0.0,0.0,0.0,0.0,0.0,0.0,0.0,0.0,0.0,0.0,0.0,0.0,0.0,-2.9608,-3.0519,-3.1073,-3.1262,-3.0589,-2.9502,-2.8037,-2.645,0.0,0.0,0.0,0.0,0.0,0.0,0.0,0.0,0.0,0.0,0.0,0.0,0.0,0.0,0.0,0.0,0.0,0.0,0.0,0.0,0.0,0.0,0.0,0.0,0.0,0.0,0.0,-1.5799,0.0,0.0,0.0,0.0,0.0,0.0,0.0,0.0,0.0,0.0,0.0,0.0,0.0,0.0,-3.9863,-4.0578,-4.1789,-4.2203,0.0,0.0,-3.928,-3.6574,-3.3976,-3.0656,0.0,0.0,0.0,0.0,0.0,0.0,0.0,0.0,0.0,0.0,0.0,0.0,0.0,0.0,0.0,0.0,0.0,0.0,0.0,0.0,0.0,0.0,0.0,0.0,0.0,0.0,0.0,0.0,0.0,0.0,0.0,0.0,0.0,0.0,0.0,0.0,0.0,0.0,0.0,0.0,0.0,0.0,0.0,0.0,0.0,0.0,0.0,0.0,0.0,0.0,0.0,0.0,0.0,0.0,0.0,-2.8692,-3.0145,-3.1012,-3.1262,-3.0589,-2.9485,-2.8037,-2.5947,-2.3937,0.0,0.0,0.0,0.0,0.0,0.0,0.0,0.0,0.0,0.0,0.0,0.0,0.0,0.0,0.0,0.0,0.0,0.0,0.0,0.0,0.0,0.0,0.0,0.0,0.0,0.0,0.0,0.0,0.0,0.0,0.0,0.0,0.0,0.0,0.0,0.0,0.0,0.0,0.0,0.0,0.0,-3.8748,-3.8953,-4.0429,-4.1028,0.0,0.0,-3.8057,-3.708,-3.4214,-3.078,-2.6899,0.0,0.0,0.0,0.0,0.0,0.0,0.0,0.0,0.0,0.0,0.0,0.0,0.0,0.0,0.0,0.0,0.0,0.0,0.0,0.0,0.0,0.0,0.0,0.0,0.0,0.0,0.0,0.0,0.0,0.0,0.0,0.0,0.0,0.0,0.0,0.0,0.0,0.0,0.0,0.0,0.0,0.0,0.0,0.0,0.0,0.0,0.0,0.0,0.0,0.0,0.0,0.0,0.0,-2.7283,-2.7633,-2.9044,-2.9601,-2.9217,-2.8363,-2.7385,-2.6308,-2.4553,-2.2913,0.0,0.0,0.0,0.0,0.0,0.0,0.0,0.0,0.0,0.0,0.0,0.0,0.0,0.0,0.0,0.0,0.0,0.0,0.0,0.0,0.0,0.0,0.0,0.0,0.0,0.0,0.0,0.0,-2.2687,-2.3106,-2.3177,0.0,0.0,0.0,0.0,0.0,0.0,0.0,0.0,0.0,0.0,-3.9276,-4.0254,-4.096,0.0,0.0,-3.9859,-3.8957,-3.7488,-3.4445,-3.1207,-2.8265,-2.48,0.0,0.0,0.0,0.0,0.0,0.0,0.0,0.0,0.0,0.0,0.0,0.0,0.0,0.0,0.0,0.0,0.0,0.0,0.0,0.0,0.0,0.0,0.0,0.0,0.0,0.0,0.0,0.0,0.0,0.0,0.0,0.0,0.0,0.0,0.0,0.0,0.0,0.0,0.0,0.0,0.0,0.0,0.0,0.0,0.0,0.0,0.0,0.0,0.0,0.0,0.0,0.0,-2.7067,-2.7008,-2.8334,-2.8576,-2.7699,-2.6911,-2.5938,-2.4705,-2.343,-2.2186,0.0,0.0,0.0,0.0,0.0,0.0,0.0,0.0,0.0,0.0,0.0,0.0,0.0,0.0,0.0,0.0,0.0,0.0,0.0,0.0,0.0,0.0,0.0,0.0,0.0,0.0,0.0,0.0,-2.4519,-2.4913,-2.477,0.0,0.0,0.0,0.0,0.0,0.0,0.0,0.0,0.0,0.0,-3.9623,-4.0902,-4.1016,-4.0917,-4.0814,-4.0037,-3.8972,-3.7578,-3.4829,-3.1999,-2.9779,0.0,0.0,0.0,0.0,0.0,0.0,0.0,0.0,0.0,0.0,0.0,0.0,0.0,0.0,0.0,0.0,0.0,0.0,0.0,0.0,0.0,0.0,0.0,0.0,0.0,0.0,0.0,0.0,0.0,0.0,0.0,0.0,0.0,0.0,0.0,0.0,0.0,0.0,0.0,0.0,0.0,0.0,0.0,0.0,0.0,0.0,0.0,0.0,0.0,0.0,0.0,0.0,0.0,-2.695,-2.7015,-2.8185,-2.8257,-2.7144,-2.6724,-2.5546,-2.3646,-2.2878,-2.1895,-2.0597,0.0,0.0,0.0,0.0,0.0,0.0,0.0,0.0,0.0,0.0,0.0,0.0,0.0,0.0,0.0,0.0,0.0,0.0,0.0,0.0,0.0,0.0,0.0,0.0,0.0,0.0,-2.5826,-2.5544,-2.5379,0.0,0.0,0.0,0.0,0.0,0.0,0.0,0.0,0.0,0.0,-3.8153,-3.9473,-4.034,-4.0134,-4.0002,-3.9934,-3.8773,-3.7686,-3.7164,-3.5319,-3.3398,0.0,0.0,0.0,0.0,0.0,0.0,0.0,0.0,0.0,0.0,0.0,0.0,0.0,0.0,0.0,0.0,0.0,0.0,0.0,0.0,0.0,0.0,0.0,0.0,0.0,0.0,0.0,1.2716,0.4614,0.0,0.0,0.0,0.0,0.0,0.0,0.0,0.0,0.0,0.0,0.0,-2.7804,-2.8442,0.0,0.0,0.0,0.0,0.0,0.0,0.0,0.0,0.0,0.0,0.0,0.0,-2.6893,-2.6654,-2.7781,-2.7843,-2.67,-2.5994,-2.4934,-2.3548,-2.2534,-2.1005,-1.9032,0.0,0.0,0.0,0.0,0.0,0.0,0.0,0.0,0.0,0.0,0.0,0.0,0.0,0.0,0.0,0.0,0.0,0.0,0.0,0.0,0.0,0.0,0.0,0.0,0.0,-2.6647,0.0,0.0,0.0,0.0,0.0,0.0,0.0,0.0,0.0,0.0,0.0,-3.7021,-3.9161,-3.9998,-4.063,-4.1301,-4.0694,-3.9952,0.0,0.0,0.0,0.0,0.0,0.0,0.0,0.0,0.0,0.0,0.0,0.0,0.0,0.0,-3.0118,-2.9495,-2.9714,-3.0021,-3.0017,0.0,0.0,0.0,0.0,0.0,0.0,0.0,0.0,0.0,0.0,0.0,0.0,0.0,0.0,0.0,0.0,-0.7443,0.0,0.0,0.0,0.0,0.0,0.0,0.0,0.0,-2.6836,-2.8291,-2.8756,-2.9516,-3.0224,0.0,-3.115,-3.0017,0.0,0.0,0.0,0.0,0.0,0.0,0.0,0.0,-2.6431,-2.6057,-2.6845,-2.6702,-2.5566,-2.5068,-2.4109,-2.2615,-2.1308,-1.98,-1.7984,-1.6698,-1.5517,0.0,0.0,0.0,0.0,0.0,0.0,0.0,0.0,0.0,0.0,0.0,0.0,0.0,0.0,0.0,0.0,0.0,0.0,0.0,0.0,0.0,0.0,0.0,-2.7211,0.0,0.0,0.0,0.0,0.0,0.0,0.0,0.0,0.0,-3.5657,-3.7135,-3.8761,-4.0568,-4.0829,-4.0978,-4.1403,0.0,0.0,0.0,0.0,0.0,0.0,0.0,-3.4416,-3.3856,-3.2854,-3.2033,-3.1816,-3.21,-3.2435,-3.2634,0.0,0.0,-3.1783,-3.1842,-3.202,-3.176,-3.1527,-3.0849,-2.904,-2.8298,-2.7561,0.0,0.0,0.0,0.0,0.0,0.0,0.0,0.0,1.1659,0.3155,0.0,-1.3636,0.0,0.0,0.0,0.0,0.0,0.0,0.0,0.0,-2.7279,-2.977,-3.1844,-3.0968,-3.1273,-3.2576,-3.2048,-3.1346,-3.0477,-2.755,0.0,0.0,0.0,0.0,0.0,0.0,-2.5559,-2.5302,-2.5437,-2.4887,-2.3754,-2.3937,-2.3069,-2.0951,-1.9459,-1.834,-1.7633,-1.6687,-1.5439,-1.3812,-1.3416,0.0,0.0,0.0,0.0,0.0,0.0,0.0,0.0,0.0,0.0,0.0,0.0,0.0,0.0,0.0,0.0,0.0,0.0,0.0,0.0,-2.637,0.0,0.0,0.0,0.0,0.0,0.0,0.0,0.0,0.0,0.0,-3.8041,-3.9021,-3.9896,-4.068,0.0,0.0,0.0,0.0,-3.8773,-3.9287,-3.8513,-3.7537,-3.6568,-3.6024,-3.5534,-3.5213,0.0,0.0,-3.3268,-3.3642,-3.409,-3.4312,-3.4046,-3.3677,-3.3064,-3.3161,-3.3212,-3.2594,-3.2161,-3.1416,-2.9812,-2.8848,-2.8115,-0.3792,0.0,0.0,0.0,0.0,2.1664,1.9567,1.117,0.4445,-0.4894,-1.6146,-2.4316,0.0,0.0,0.0,0.0,0.0,0.0,-2.4271,-2.5399,-2.7581,-2.9042,-2.9867,-3.084,-3.161,-3.2086,-3.1662,-3.1006,-3.0089,-2.7574,-2.6486,-2.6803,0.0,0.0,0.0,0.0,-2.543,-2.478,-2.4955,-2.4474,-2.3275,-2.3496,-2.2908,-2.1479,-1.9181,-1.7797,-1.7567,-1.5813,-1.4442,-1.3631,-1.3329,0.0,0.0,0.0,0.0,0.0,0.0,0.0,0.0,0.0,0.0,0.0,0.0,0.0,0.0,0.0,0.0,0.0,0.0,0.0,-2.7774,-2.7651,-2.7723,0.0,0.0,0.0,0.0,0.0,0.0,0.0,0.0,0.0,-3.8054,-3.909,-3.9862,0.0,0.0,-3.9984,-3.9752,-3.9381,-3.8939,-3.8484,0.0,0.0,0.0,-3.6089,-3.5394,-3.4618,-3.3883,-3.3314,-3.3235,-3.3441,-3.3661,-3.3739,-3.3716,-3.3372,-3.2845,-3.3104,-3.3191,-3.2486,-3.2205,-3.1411,-2.9449,-2.849,-2.7657,-1.9983,-1.5379,-0.687,-0.0375,0.4743,1.0557,0.9199,0.2561,-0.3402,-1.1819,-2.183,-2.8528,-3.0824,-2.9648,-2.8418,0.0,0.0,0.0,-2.4664,-2.5727,-2.7692,-2.9093,-3.0057,-3.0818,-3.1236,-3.1305,-3.076,-3.0037,-2.9173,-2.7429,-2.668,-2.6888,0.0,0.0,-2.491,-2.5216,-2.4929,-2.4109,-2.4177,-2.3595,-2.2319,-2.2062,-2.1882,-2.1643,-1.9294,-1.7907,-1.7578,-1.5995,-1.4678,-1.3803,-1.3701,-1.3353,0.0,0.0,0.0,0.0,0.0,0.0,0.0,0.0,0.0,0.0,0.0,-2.0979,-2.1838,0.0,0.0,0.0,-2.6349,-2.7661,-2.8926,-2.8606,0.0,0.0,0.0,0.0,0.0,0.0,0.0,-3.3212,-3.3703,-3.4738,-3.6754,-3.7685,-3.8696,-4.0084,-3.966,-3.9164,-3.8919,0.0,-3.8094,-3.7786,-3.7292,-3.6769,-3.6088,-3.5384,-3.46,-3.3711,-3.2944,-3.2541,-3.2511,-3.2646,-3.2617,-3.2392,-3.2302,-3.2005,-3.1105,-3.107,-3.1234,-3.1137,-3.108,-3.0304,-2.8128,-2.7404,-2.675,-3.3411,-3.4244,-2.3878,-1.4803,-0.7305,-0.5972,-0.5722,-0.668,-1.1261,-1.7577,-2.4885,-2.8611,-3.1195,-3.2597,-2.9437,0.0,0.0,-2.4978,-2.5307,-2.6006,-2.7697,-2.9501,-3.1304,-3.0651,-3.0328,-3.0233,-2.9364,-2.8581,-2.783,-2.7046,-2.6628,-2.6553,-2.5615,-2.5091,-2.5,-2.4804,-2.4279,-2.3432,-2.3229,-2.246,-2.1054,-2.0164,-2.0323,-2.147,-1.9636,-1.8254,-1.7564,-1.6738,-1.5618,-1.4291,-1.4357,-1.4057,-1.3224,0.0,0.0,0.0,0.0,0.0,0.0,0.0,0.0,0.0,0.0,0.0,0.0,0.0,0.0,0.0,-2.7385,0.0,-2.9351,-2.9262,0.0,0.0,0.0,-3.0129,-3.017,-3.0861,-3.1606,-3.2324,0.0,0.0,0.0,0.0,-3.6565,-3.8879,-3.8473,-3.7958,-3.7915,-3.7016,-3.6555,-3.7014,-3.628,-3.5443,-3.5087,-3.4241,-3.3244,-3.2347,-3.1734,-3.1213,-3.1093,-3.1093,-3.0926,-3.0387,-3.0223,-2.9832,-2.8595,-2.7954,-2.7726,-2.8613,-2.8827,-2.8333,-2.6316,-2.5761,-2.5305,-3.6574,-3.8127,-3.5086,-2.6854,-1.5209,-0.7839,-0.8636,-1.4909,-1.5529,-2.1999,-3.2445,-3.3618,-3.3678,-3.2692,-2.9467,-2.834,-2.8799,-2.6913,-2.6796,-2.7994,-2.7537,-2.7788,-2.8627,-2.8315,-2.819,-2.8229,-2.7316,-2.6721,-2.6438,-2.5822,-2.5507,-2.5473,-2.5428,-2.5333,-2.5139,-2.4853,-2.4296,-2.3491,-2.2998,-2.2245,-2.1229,-1.9857,-1.9512,-2.0299,-1.848,-1.7364,-1.7213,-1.5405,-1.4291,-1.3929,-1.3929,-1.3831,-1.3518,-1.5229,0.0,0.0,0.0,0.0,0.0,0.0,0.0,0.0,0.0,-2.3298,-2.4253,0.0,-2.5727,0.0,-2.8171,-2.9002,-2.9437,-2.9704,0.0,0.0,-3.0006,-3.0129,-3.0207,-2.9847,-2.9861,-3.059,-3.0872,-3.1505,-3.2852,-3.3185,-3.3915,-3.5403,-3.5666,-3.5648,-3.548,-3.5294,-3.5125,-3.5166,-3.4982,-3.4755,-3.4438,-3.3113,-3.1585,-3.0463,-2.9714,-2.9131,-2.8607,-2.8517,-2.8442,-2.8263,-2.7844,-2.7233,-2.6452,-2.613,-2.5531,-2.4588,-2.4914,-2.5231,-2.406,-2.3501,-2.3145,-3.7764,-3.8849,-3.8572,-3.3776,-2.5984,-2.0285,-2.0416,-2.4448,-2.4142,-2.8167,-3.5116,-3.5022,-3.3972,-3.215,-3.0028,-2.9101,-2.9012,-2.7522,-2.7151,-2.7683,-2.7157,-2.7043,-2.7281,-2.678,-2.6536,-2.646,-2.5527,-2.5131,-2.523,-2.4907,-2.4843,-2.5111,-2.5235,-2.5293,-2.5278,-2.4927,-2.4391,-2.3681,-2.2877,-2.2212,-2.1595,-2.0274,-1.9819,-2.0203,-1.9001,-1.8113,-1.7723,-1.6553,-1.5736,-1.5386,-1.5426,-1.5435,-1.5264,-1.6783,-1.7895,0.0,0.0,0.0,0.0,0.0,0.0,0.0,0.0,0.0,0.0,0.0,-2.7002,0.0,-2.8847,-2.9236,-2.9689,-2.9711,-2.9675,-2.96,-2.9751,-2.9879,-2.9881,-2.9644,-2.9712,-3.035,-3.0414,-3.0779,-3.1789,-3.1978,-3.2271,-3.2956,-3.2921,-3.3195,-3.4134,-3.4008,-3.371,-3.3947,-3.3506,-3.2927,-3.2643,-3.111,-2.9639,-2.8805,-2.8065,-2.7315,-2.6441,-2.6258,-2.6093,-2.5525,-2.5315,-2.4938,-2.4101,-2.3634,-2.2998,-2.1931,-2.1515,-2.1701,-2.1996,-2.1995,-2.1807,-3.781,-3.7947,-3.7823,-3.7006,-3.5681,-3.4682,-3.3661,-3.2705,-3.2867,-3.3649,-3.4839,-3.4206,-3.3051,-3.1594,-3.0719,-2.9499,-2.8021,-2.7414,-2.6832,-2.6303,-2.6469,-2.6543,-2.6483,-2.566,-2.5152,-2.4909,-2.4068,-2.3817,-2.4134,-2.4115,-2.4407,-2.4941,-2.4954,-2.5085,-2.5323,-2.5012,-2.453,-2.3916,-2.289,-2.2259,-2.203,-2.0965,-2.0478,-2.0585,-2.0021,-1.935,-1.864,-1.8479,-1.8151,-1.7486,-1.7621,-1.7591,-1.7437,-1.8518,-1.9199,0.0,-2.116,0.0,0.0,0.0,0.0,0.0,0.0,0.0,0.0,-2.7461,-2.8275,-2.9621,-2.9386,-2.9276,-2.9572,-2.9247,-2.8883,-2.8676,-2.8888,-2.9106,-2.9122,-2.9358,-2.9688,-3.0109,-3.0168,-3.0331,-3.0623,-3.0783,-3.0779,-3.0746,-3.0304,-3.0667,-3.2647,-3.2381,-3.2059,-3.2763,-3.18,-3.0865,-3.0113,-2.8906,-2.7786,-2.717,-2.6483,-2.5628,-2.4447,-2.4297,-2.3938,-2.3008,-2.3011,-2.2817,-2.1663,-2.1125,-2.0601,-1.9857,-1.9153,-1.9113,-2.0064,-2.0639,-2.0564,-3.767,-3.7175,-3.6787,-3.562,-3.3991,-3.2834,-3.2438,-3.2592,-3.2173,-3.2381,-3.3009,-3.223,-3.2031,-3.2179,-3.075,-2.9718,-2.903,-2.7596,-2.6483,-2.5568,-2.4983,-2.4783,-2.4905,-2.4331,-2.4083,-2.4168,-2.3273,-2.3031,-2.341,-2.3249,-2.3531,-2.4204,-2.4581,-2.4883,-2.5148,0.0,0.0,0.0,-2.3058,-2.2468,-2.2132,-2.0988,-2.0389,-2.0279,-1.9605,0.0,-1.9042,-1.8492,-1.8161,-1.8135,-1.816,0.0,0.0,0.0,0.0,0.0,0.0,0.0,0.0,0.0,0.0,0.0,-2.8326,-2.8025,-2.8364,-2.8685,-2.9009,-2.9365,-2.9462,-2.8935,-2.7564,-2.8119,-2.8008,-2.6822,-2.6713,-2.6849,-2.7116,-2.6732,-2.65,-2.6859,-2.6926,-2.7091,-2.7585,-2.7515,-2.7657,-2.8021,-2.7777,-2.8021,-2.8873,-2.9438,-2.9671,-2.977,-2.9572,-2.9187,-2.8584,-2.7699,-2.6552,-2.5387,-2.4632,-2.3904,-2.2702,-2.2586,-2.2595,-2.1924,-2.153,-2.108,-2.0378,-2.0151,-1.9726,-1.8719,-1.8695,-1.8884,-1.8738,-1.8756,-1.8731,-3.5306,0.0,-3.4581,-3.3724,0.0,-3.1579,-3.1175,-3.1109,-3.1013,-3.1249,-3.1737,-3.1435,-3.1062,-3.0628,-2.968,-2.8638,-2.7531,-2.6599,-2.5688,-2.4815,-2.4373,-2.4095,-2.3866,-2.3572,-2.3338,-2.313,-2.2463,-2.2285,-2.2635,-2.2556,-2.2834,-2.3461,-2.4058,-2.4467,-2.4717,-2.5097,-2.4918,-2.4157,-2.359,-2.3042,-2.2562,-2.1854,-2.1278,-2.0847,0.0,0.0,0.0,0.0,0.0,0.0,0.0,0.0,0.0,0.0,0.0,-2.2247,-2.3351,-2.4302,-2.5029,-2.5782,-2.6911,-2.8366,-2.8275,-2.8414,-2.9175,-2.8975,-2.8767,-2.8688,-2.8278,-2.7533,-2.6537,-2.676,-2.6662,-2.5911,-2.5956,-2.6127,-2.6241,-2.6157,-2.6129,-2.6236,-2.6315,-2.6385,-2.6587,-2.6622,-2.6661,-2.6809,-2.6658,-2.6613,-2.6863,-2.739,-2.7767,-2.7604,-2.7403,-2.7231,-2.6902,-2.6212,-2.5421,-2.4273,-2.3931,-2.3199,-2.178,-2.1673,-2.1565,-2.0881,-2.022,-1.971,-1.943,-1.9004,-1.8413,-1.7899,-1.7782,-1.7771,-1.7446,-1.7815,-1.8016,-3.286,-3.2512,-3.2532,-3.1857,-3.0714,-3.0327,-2.962,-2.8838,0.0,0.0,0.0,-3.0414,-2.9787,-2.8527,-2.8373,-2.7332,-2.5725,-2.5522,-2.5001,-2.4208,-2.4151,-2.3816,-2.3287,-2.3169,-2.2838,-2.236,-2.1767,-2.1622,-2.1844,-2.1697,-2.1973,-2.2605,-2.3238,-2.3798,-2.4316,-2.4989,-2.5046,-2.4465,-2.4189,-2.3783,-2.3193,-2.2919,-2.2476,-2.1854,-2.1773,-2.1573,-2.121,-2.139,-2.1346,-2.1054,-2.1376,-2.1553,-2.1472,-2.2139,-2.2642,-2.2975,-2.3676,-2.4463,-2.5352,-2.5788,-2.639,-2.7312,-2.7736,-2.831,-2.9269,-2.8655,-2.8156,-2.7998,-2.7022,-2.6289,-2.5886,-2.5575,-2.5339,-2.5197,-2.5428,-2.56,-2.5687,-2.5965,-2.6057,-2.6172,-2.6091,-2.6151,-2.6095,-2.6091,-2.6178,-2.6133,-2.5808,-2.5664,-2.5726,-2.6074,-2.6301,-2.6036,-2.5817,-2.5492,-2.5402,-2.4881,-2.4168,-2.3638,-2.3473,-2.2916,-2.1708,-2.1257,-2.0864,-2.0122,-1.9391,-1.9109,-1.8893,-1.8221,-1.7424,-1.7327,-1.6866,-1.6534,-1.6609,-1.7237,-1.7551,-3.2458,-3.1786,-3.2106,-3.0716,-2.8227,-2.8306,-2.7366,-2.5883,-2.7434,-2.7896,-2.7456,-2.7493,-2.752,-2.7525,-2.7475,-2.682,-2.5721,-2.5667,-2.5134,0.0,-2.3899,-2.3714,-2.361,-2.3048,-2.2722,-2.2548,-2.1582,-2.1,-2.0739,-2.0109,-2.0316,-2.1259,-2.1638,-2.2626,-2.42,-2.4652,-2.4853,-2.4891,-2.4816,-2.4568,-2.4207,-2.3779,-2.343,-2.3209,-2.2877,-2.2712,-2.2694,-2.2398,-2.2252,-2.2252,-2.2056,-2.2084,-2.2405,-2.277,-2.3171,-2.3557,-2.4115,-2.4577,-2.4964,-2.5145,-2.5744,-2.6812,-2.7608,-2.7997,-2.7821,-2.7714,-2.7611,-2.7562,-2.7044,-2.6408,-2.5463,-2.5117,-2.473,-2.4114,-2.4031,-2.4139,-2.4494,-2.4572,-2.4649,-2.4667,-2.4557,-2.4612,-2.4707,-2.4689,-2.4726,-2.4595,-2.4717,-2.4533,-2.4626,-2.4917,-2.5188,-2.5138,-2.4883,-2.4808,-2.4765,-2.4202,-2.3432,-2.2926,-2.2695,-2.2288,-2.1344,-2.11,-2.0872,-2.0311,-1.9737,-1.9332,-1.8968,-1.8446,-1.7743,-1.7287,-1.6837,-1.6522,-1.6534,-1.6679,-1.6704,-3.037,-2.9869,-2.9789,-2.8787,-2.7168,-2.6388,-2.527,-2.4224,-2.5358,-2.6224,-2.669,-2.6823,-2.6797,-2.6563,-2.633,-2.5706,-2.4764,-2.446,-2.4091,-2.3667,-2.35,-2.3346,-2.3147,-2.2863,-2.2296,-2.1539,-2.0815,-2.0096,-1.9409,-1.9014,-1.9226,-1.9954,-2.0968,-2.2416,-2.4076,-2.4302,-2.4604,-2.5038,-2.5027,-2.4917,-2.4738,-2.4445,-2.4176,-2.3952,-2.3635,-2.3396,-2.3285,-2.3153,-2.3045,-2.2898,-2.2908,-2.2935,-2.2954,-2.3223,-2.3495,-2.3718,-2.4295,-2.4721,-2.4839,-2.5105,-2.5454,-2.5947,-2.6339,-2.6533,-2.6366,-2.6805,-2.7022,-2.6842,-2.626,-2.5627,-2.5058,-2.4893,-2.4689,-2.4355,-2.4211,-2.4211,-2.4321,-2.4266,-2.4264,-2.4357,-2.4376,-2.4389,-2.451,-2.4538,-2.447,-2.4392,-2.4284,-2.4151,-2.3978,-2.4136,-2.4212,-2.4016,-2.3759,-2.3545,-2.3562,-2.317,-2.2748,-2.2488,-2.2399,-2.202,-2.1446,-2.1181,-2.0813,-2.0333,-1.9579,-1.8841,-1.8482,-1.7788,-1.721,-1.697,-1.6723,-1.6534,-1.6479,-1.6238,-1.6008,-2.8322,-2.7962,-2.7587,-2.6897,-2.5893,-2.43,-2.3268,-2.2794,-2.3484,-2.445,-2.5492,-2.5959,-2.5875,-2.5369,-2.4983,-2.4454,-2.3824,-2.3298,-2.3076,-2.3076,-2.2986,-2.2805,-2.2565,-2.2444,-2.1806,-2.0744,-2.0153,-1.9363,-1.8489,-1.8308,-1.844,-1.8933,-2.0619,-2.2238,-2.3621,-2.3877,-2.4308,-2.4973,-2.5095,-2.5078,-2.5093,-2.493,-2.473,-2.4482,-2.4269,-2.4044,-2.3818,-2.3769,-2.3638,-2.3401,-2.3508,-2.346,-2.3235,-2.3428,-2.3649,-2.3785,-2.4337,-2.4762,-2.4938,-2.5212,-2.5331,-2.5284,-2.5236,-2.5249,-2.5382,-2.5968,-2.6302,-2.6072,-2.5503,-2.5011,-2.4903,-2.4817,-2.4804,-2.479,-2.4651,-2.4578,-2.4561,-2.4428,-2.4395,-2.4543,-2.4388,-2.4366,-2.4671,-2.4631,-2.4497,-2.4516,-2.4445,-2.4229,-2.3961,-2.3881,-2.372,-2.3369,-2.2972,-2.279,-2.2525,-2.2473,-2.2409,-2.2332,-2.2394,-2.2158,-2.1702,-2.1244,-2.0846,-2.0299,-1.9244,-1.8559,-1.826,-1.7474,-1.689,-1.6777,-1.6637,-1.6479,-1.625,-1.5964,-1.5443,-2.7331,-2.6815,-2.6632,-2.5452,-2.3505,-2.1997,-2.1295,-2.131,-2.1998,-2.2364,-2.2701,-2.357,-2.3811,-2.3486,-2.3435,-2.3376,-2.3218,-2.2835,-2.2642,-2.2574,-2.2337,-2.218,-2.205,-2.1589,-2.1283,-2.0918,-1.9975,-1.9067,-1.8333,-1.8006,-1.806,-1.8621,-2.0303,-2.1572,-2.2313,-2.313,-2.3964,-2.4817,-2.5011,-2.5187,-2.5349,-2.5157,-2.5059,-2.5023,-2.482,-2.4707,-2.4622,-2.4208,-2.3968,-2.3891,-2.349,-2.3247,-2.3217,-2.3228,-2.3458,-2.3942,-2.4238,-2.4643,-2.5247,-2.5273,-2.5207,-2.5189,-2.5039,-2.4992,-2.5098,-2.525,-2.5418,-2.5456,-2.5284,-2.5081,-2.5069,-2.4917,-2.4847,-2.4847,-2.4804,-2.4756,-2.4741,-2.4741,-2.4738,-2.4782,-2.4054,-2.3871,-2.4422,-2.4079,-2.3982,-2.4686,-2.4614,-2.4511,-2.4425,-2.4355,-2.4174,-2.3671,-2.3122,-2.2894,-2.2925,-2.2834,-2.2607,-2.2392,-2.25,-2.2313,-2.1849,-2.1323,-2.0862,-2.0434,-1.9419,-1.8727,-1.8478,-1.7988,-1.7197,-1.6918,-1.6655,-1.6281,-1.5852,-1.5543,-1.5129,-2.5725,-2.5411,-2.4861,-2.3255,-2.1149,-2.0429,-1.9993,-1.9758,-2.0526,-2.1034,-2.1387,-2.2078,-2.2565,-2.2835,-2.2888,-2.266,-2.2194,-2.2079,-2.1864,-2.1661,-2.1486,-2.1259,-2.0878,-2.0844,-2.0295,-1.9332,-1.9092,-1.8493,-1.7629,-1.749,-1.7804,-1.8475,-1.9823,-2.1024,-2.2074,-2.2901,-2.3816,-2.476,-2.4889,-2.5082,-2.536,-2.5352,-2.5314,-2.5249,-2.5078,-2.4979,-2.4934,-2.4523,-2.4301,-2.4264,-2.3963,-2.3771,-2.3801,-2.3779,-2.3952,-2.4286,-2.4601,-2.4892,-2.5185,-2.5172,-2.4999,-2.4683,-2.4778,-2.4801,-2.4703,-2.495,-2.5018,-2.4729,-2.4999,-2.5275,-2.5255,-2.5171,-2.5103,-2.5091,-2.4981,-2.4911,-2.4911,-2.4388,-2.408,-2.411,-2.3485,-2.3131,-2.3497,-2.3309,-2.3619,-2.453,-2.4543,-2.425,-2.455,-2.4575,-2.4337,-2.3966,-2.3534,-2.3194,-2.301,-2.2999,-2.2778,-2.2483,-2.2527,-2.2476,-2.2084,-2.1415,-2.0926,-2.0715,-1.9426,-1.8574,-1.838,-1.7612,-1.6806,-1.6697,-1.633,-1.5676,-1.4721,-1.4549,-1.4143,-2.3928,-2.3678,-2.2726,-2.1165,-1.933,-1.9038,-1.8612,-1.825,-1.8856,-1.9546,-2.02,-2.0512,-2.1013,-2.1697,-2.2071,-2.1927,-2.1393,-2.111,-2.0828,-2.056,-2.0369,-2.0081,-1.9739,-1.9829,-1.9334,-1.8379,-1.8442,-1.8033,-1.7175,-1.7296,-1.7721,-1.831,-1.921,-2.0357,-2.1603,-2.2406,-2.3354,-2.4464,-2.4625,-2.4847,-2.5195,-2.5347,-2.5382,-2.5386,-2.5249,-2.5182,-2.5182,-2.4847,-2.4676,-2.467,-2.4439,-2.4303,-2.4264,-2.4149,-2.4184,-2.4454,-2.4851,-2.5044,-2.4968,-2.488,-2.4598,-2.4166,-2.4278,-2.4232,-2.4136,-2.4539,-2.4591,-2.4167,-2.4824,-2.5336,-2.5097,-2.5056,-2.5087,-2.5272,-2.5187,-2.5138,-2.5039,-2.4232,-2.3622,-2.3328,-2.2746,-2.2397,-2.2539,-2.2707,-2.3321,-2.4401,-2.4215,-2.3831,-2.4308,-2.4302,-2.4085,-2.3787,-2.3558,-2.3289,-2.2845,-2.3067,-2.3003,-2.2695,-2.2652,-2.2738,-2.2326,-2.1505,-2.0846,-2.0467,-1.9045,-1.8249,-1.8131,-1.734,-1.6374,-1.6169,-1.5736,-1.5005,-1.4179,-1.3862,-1.3552,-2.2061,-2.1467,-2.0302,-1.9316,-1.8521,-1.7678,-1.6961,-1.6384,-1.6862,-1.7655,-1.8483,-1.851,-1.8847,-1.9609,-2.048,-2.1007,-2.0815,-1.9972,-1.9513,-1.9403,-1.8843,-1.8698,-1.8924,-1.8653,-1.8576,-1.8525,-1.8154,-1.7879,-1.7743,-1.7743,-1.7789,-1.7884,-1.8633,-1.9525,-2.0587,-2.1375,-2.245,-2.3859,-2.4189,-2.4468,-2.4794,-2.5004,-2.5129,-2.5311,-2.5375,-2.5332,-2.5305,-2.5152,-2.5039,-2.5043,-2.474,-2.4551,-2.4431,-2.4018,-2.3934,-2.4337,-2.479,-2.4937,-2.461,-2.4241,-2.3858,-2.3508,-2.3249,-2.3123,-2.2824,-2.3676,-2.4028,-2.3852,-2.4438,-2.4809,-2.4313,-2.4302,-2.4552,-2.5104,-2.5323,-2.524,-2.5185,-2.4297,-2.3541,-2.2527,-2.1939,-2.1757,-2.1736,-2.2387,-2.3088,-2.3867,-2.4083,-2.3959,-2.3809,-2.3676,-2.3435,-2.3216,-2.3064,-2.2935,-2.277,-2.3274,-2.3334,-2.282,-2.2596,-2.2818,-2.2201,-2.1516,-2.0943,-2.0215,-1.8985,-1.821,-1.7933,-1.7297,-1.6337,-1.5742,-1.5028,-1.4305,-1.3416,-1.3674,-1.3294,-2.0416,-1.9591,-1.8767,-1.7489,-1.6001,-1.5591,-1.4888,-1.4067,-1.4646,-1.5295,-1.5997,-1.6441,-1.6949,-1.7518,-1.7929,-1.841,-1.8851,-1.8764,-1.8608,-1.8305,-1.779,-1.7556,-1.7485,-1.7433,-1.7455,-1.756,-1.7715,-1.7894,-1.8018,-1.7883,-1.7789,-1.7929,-1.8521,-1.9304,-2.0099,-2.0858,-2.1906,-2.3151,-2.3529,-2.391,-2.4346,-2.4101,-2.4136,-2.4683,-2.49,-2.4821,-2.4456,-2.4726,-2.4739,-2.4361,-2.4578,-2.4493,-2.4045,-2.3943,-2.4157,-2.4709,-2.4549,-2.4292,-2.393,-2.2887,-2.206,-2.166,-2.1711,-2.1454,-2.1105,-2.198,-2.2523,-2.1844,-2.2171,-2.2472,-2.2681,-2.3389,-2.4001,-2.3773,-2.3779,-2.3801,-2.3575,-2.2979,-2.2241,-2.1745,-2.1238,-2.1012,-2.1437,-2.1473,-2.1872,-2.3062,-2.2933,-2.3026,-2.3613,-2.3381,-2.2899,-2.2933,-2.2647,-2.2128,-2.1504,-2.3041,-2.3703,-2.2788,-2.2289,-2.1997,-2.1487,-2.0812,-2.0209,-1.9848,-1.8757,-1.7891,-1.7478,-1.6536,-1.5695,-1.5012,-1.4286,-1.3321,-1.2638,-1.2589,-1.215,-1.8196,-1.7487,-1.6714,-1.5293,-1.3613,-1.3267,-1.2589,-1.1674,-1.2078,-1.2744,-1.3563,-1.413,-1.4694,-1.5286,-1.5386,-1.5634,-1.6293,-1.7143,-1.7466,-1.7164,-1.6858,-1.6631,-1.6608,-1.6688,-1.6749,-1.6898,-1.7457,-1.7864,-1.8023,-1.7866,-1.7715,-1.7692,-1.8067,-1.8585,-1.9234,-1.9777,-2.0671,-2.1896,-2.2275,-2.2684,-2.3293,-2.2791,-2.2667,-2.3122,-2.3239,-2.3392,-2.3504,-2.3725,-2.3701,-2.3434,-2.3689,-2.369,-2.3293,-2.3662,-2.407,-2.4314,-2.3882,-2.3379,-2.2867,-2.1423,-2.0293,-1.9932,-2.004,-1.9778,-1.9151,-2.0491,-2.0789,-2.0318,-2.0736,-2.122,-2.1189,-2.2083,-2.2801,-2.266,-2.2747,-2.2669,-2.2435,-2.1884,-2.1443,-2.1074,-2.0638,-2.0662,-2.1031,-2.0681,-2.1165,-2.2387,-2.1988,-2.2236,-2.2887,-2.274,-2.224,-2.2378,-2.1972,-2.168,-2.1513,-2.2549,-2.2911,-2.2138,-2.1771,-2.1406,-2.0891,-2.0169,-1.9624,-1.9277,-1.8607,-1.7687,-1.6744,-1.5768,-1.4925,-1.4247,-1.3086,-1.1994,-1.1557,-1.1208,-1.1015,-1.5298,-1.5132,-1.3991,-1.2729,-1.1429,-1.0733,-1.001,-0.9387,-0.926,-1.0135,-1.1394,-1.1582,-1.2256,-1.301,-1.3266,-1.3128,-1.3633,-1.5194,-1.6042,-1.6045,-1.5875,-1.5991,-1.6268,-1.628,-1.651,-1.6834,-1.7412,-1.7726,-1.7755,-1.7698,-1.7528,-1.728,-1.7009,-1.7316,-1.7909,-1.8106,-1.8848,-2.0163,-2.0506,-2.0893,-2.1604,-2.1188,-2.0871,-2.0912,-2.042,-2.0776,-2.2433,-2.2023,-2.1901,-2.2067,-2.2094,-2.2086,-2.2398,-2.3105,-2.3501,-2.3038,-2.2701,-2.2273,-2.1464,-1.9794,-1.8584,-1.8451,-1.8408,-1.8082,-1.7928,-1.911,-1.9879,-1.9561,-2.0336,-2.1022,-2.028,-2.0305,-2.0884,-2.2094,-2.2266,-2.2086,-2.169,-2.1485,-2.1144,-2.0432,-2.0146,-2.0196,-2.0262,-2.0268,-2.0643,-2.1214,-2.1434,-2.1496,-2.1801,-2.1639,-2.135,-2.1268,-2.1186,-2.1034,-2.1485,-2.1937,-2.1674,-2.1389,-2.1255,-2.1016,-2.0448,-1.9774,-1.9177,-1.8742,-1.7655,-1.6718,-1.6111,-1.5147,-1.4047,-1.3194,-1.1931,-1.1032,-1.0712,-1.0509,-1.0297,-1.2899,-1.2879,-1.1333,-1.0103,-0.9149,-0.8478,-0.7811,-0.7205,-0.7291,-0.7895,-0.8806,-0.9621,-1.0419,-1.1179,-1.1813,-1.2176,-1.2307,-1.3489,-1.4351,-1.4822,-1.4947,-1.53,-1.5781,-1.5557,-1.5937,-1.6872,-1.7254,-1.7446,-1.7422,-1.7446,-1.728,-1.6952,-1.657,-1.6592,-1.6936,-1.7135,-1.7878,-1.9076,-1.9349,-2.0009,-2.0993,-1.9874,-1.9375,-1.9627,-1.8292,-1.7769,-1.848,-1.9904,-2.0657,-2.0552,-2.1145,-2.1575,-2.1835,-2.2112,-2.2093,-2.1697,-2.1221,-2.0467,-1.9323,-1.738,-1.6182,-1.6294,-1.6085,-1.5934,-1.6032,-1.7196,-1.7874,-1.7696,-1.8329,-1.861,-1.8511,-1.8431,-1.9038,-2.0202,-2.0413,-2.0522,-2.0403,-2.0212,-1.995,-1.9764,-1.9764,-1.9726,-1.9563,-1.963,-1.9984,-2.0174,-2.0323,-2.0554,-2.1204,-2.1024,-2.097,-2.1222,-2.088,-2.0519,-2.0816,-2.1015,-2.084,-2.0845,-2.0864,-2.0572,-2.0,-1.9596,-1.8946,-1.8017,-1.6881,-1.6017,-1.5355,-1.437,-1.3232,-1.2264,-1.1182,-1.0534,-1.0138,-0.9688,-0.9214,-1.0398,-1.0173,-0.8783,-0.773,-0.6984,-0.6518,-0.6107,-0.5683,-0.5764,-0.6091,-0.6773,-0.7788,-0.8546,-0.9142,-1.002,-1.0664,-1.1014,-1.1709,-1.261,-1.3703,-1.4523,-1.5029,-1.5521,-1.5358,-1.5735,-1.6671,-1.7003,-1.7069,-1.7101,-1.7069,-1.6827,-1.6343,-1.5803,-1.5507,-1.5578,-1.5675,-1.6374,-1.7636,-1.8029,-1.8837,-1.9668,-1.8805,-1.8026,-1.7775,-1.6024,-1.4862,-1.4728,-1.5832,-1.691,-1.792,-1.8643,-1.9036,-1.9306,-1.9479,-1.9525,-1.9102,-1.8457,-1.7682,-1.6705,-1.4614,-1.3419,-1.3699,-1.3743,-1.3826,-1.4208,-1.5156,-1.5802,-1.6102,-1.6366,-1.6666,-1.7008,-1.7083,-1.749,-1.8216,-1.8672,-1.8851,-1.9041,-1.9142,-1.9118,-1.9087,-1.9188,-1.9198,-1.9162,-1.9203,-1.9476,-1.9463,-1.9552,-1.9875,-2.0651,-2.0611,-2.0795,-2.0889,-2.0654,-2.0345,-2.0088,-2.0065,-2.0002,-2.0229,-2.0469,-2.0089,-1.9615,-1.9474,-1.9066,-1.7708,-1.6556,-1.56,-1.4887,-1.344,-1.2215,-1.1268,-1.0204,-0.9274,-0.8442,-0.8013,-0.77,-0.7959,-0.725,-0.6417,-0.5775,-0.5202,-0.4952,-0.4815,-0.4633,-0.4475,-0.4756,-0.5408,-0.6188,-0.6718,-0.7133,-0.8081,-0.8879,-0.9406,-1.0215,-1.1132,-1.2483,-1.3795,-1.4755,-1.5031,-1.5316,-1.565,-1.6016,-1.6296,-1.6496,-1.6407,-1.647,-1.6227,-1.5447,-1.4583,-1.4001,-1.367,-1.3591,-1.4422,-1.5924,-1.6301,-1.7181,-1.8786,-1.7858,-1.6774,-1.5856,-1.4059,-1.2605,-1.1719,-1.0992,-1.1722,-1.4373,-1.5003,-1.5187,-1.5308,-1.5853,-1.6186,-1.5571,-1.4812,-1.4259,-1.3447,-1.1908,-1.0826,-1.1069,-1.155,-1.1928,-1.2293,-1.3194,-1.4012,-1.4513,-1.4578,-1.4875,-1.552,-1.5664,-1.5841,-1.6285,-1.7138,-1.7734,-1.7734,-1.8209,-1.8355,-1.8228,-1.8466,-1.8789,-1.88,-1.8879,-1.9127,-1.9197,-1.9306,-1.9654,-1.9958,-2.0099,-2.0235,-2.0273,-2.0259,-2.0282,-2.0076,-2.0119,-2.0094,-2.0224,-2.0431,-2.0179,-1.9476,-1.9236,-1.8766,-1.7441,-1.6066,-1.5181,-1.4011,-1.2474,-1.1015,-0.9866,-0.8704,-0.7538,-0.702,-0.6799,-0.6612,-0.6146,-0.6029,-0.4897,-0.4477,-0.4496,-0.4133,-0.3905,-0.3853,-0.3691,-0.3918,-0.4499,-0.5026,-0.5559,-0.6259,-0.7234,-0.7968,-0.8439,-0.9515,-1.0292,-1.0983,-1.2389,-1.3697,-1.4418,-1.4668,-1.4612,-1.4438,-1.4757,-1.4934,-1.4992,-1.5257,-1.4991,-1.4251,-1.2868,-1.1966,-1.1554,-1.1228,-1.2162,-1.3828,-1.4056,-1.5305,-1.7279,-1.6853,-1.5854,-1.4692,-1.3472,-1.1991,-1.04,-0.8923,-0.9331,-1.1776,-1.2346,-1.2485,-1.2553,-1.3162,-1.3035,-1.2015,-1.173,-1.1267,-1.0296,-0.9193,-0.874,-0.9077,-0.9428,-1.0012,-1.0526,-1.1365,-1.198,-1.2324,-1.2317,-1.2398,-1.2639,-1.2731,-1.29,-1.3565,-1.5212,-1.6506,-1.6362,-1.6974,-1.7342,-1.6758,-1.7662,-1.8053,-1.8078,-1.8426,-1.8753,-1.8643,-1.8782,-1.9018,-1.9275,-1.9573,-1.974,-1.9861,-1.9935,-2.0082,-2.0155,-2.0214,-2.0281,-2.0386,-2.0541,-2.0655,-1.9755,-1.891,-1.8177,-1.7117,-1.5407,-1.4268,-1.2806,-1.1261,-0.9879,-0.8549,-0.7722,-0.6891,-0.6573,-0.6298,-0.5878,-0.4312,-0.4087,-0.3297,-0.3108,-0.3248,-0.2993,-0.2852,-0.2813,-0.2758,-0.286,-0.3267,-0.3792,-0.4293,-0.4894,-0.5807,-0.6553,-0.7102,-0.7968,-0.8907,-1.007,-1.1435,-1.2712,-1.3566,-1.3794,-1.3617,-1.3343,-1.3331,-1.3552,-1.3709,-1.3837,-1.3356,-1.2406,-1.1132,-1.0116,-0.9449,-0.9024,-0.9641,-1.129,-1.1746,-1.2857,-1.4611,-1.4441,-1.3561,-1.245,-1.1514,-1.004,-0.7834,-0.6284,-0.6619,-0.8417,-0.9109,-0.9238,-0.9281,-0.9616,-0.9529,-0.8784,-0.8578,-0.8063,-0.7419,-0.6486,-0.6085,-0.641,-0.6956,-0.7661,-0.8094,-0.8628,-0.8876,-1.0005,-0.9916,-1.0054,-1.0339,-1.0396,-1.0401,-1.0687,-1.213,-1.3446,-1.3933,-1.4486,-1.4959,-1.5306,-1.6246,-1.7257,-1.705,-1.797,-1.8158,-1.8029,-1.8093,-1.8305,-1.8526,-1.8849,-1.8951,-1.8776,-1.8944,-1.9043,-1.9285,-1.9426,-1.9832,-2.0018,-2.0173,-2.0419,-2.0065,-1.8929,-1.8014,-1.6913,-1.501,-1.3219,-1.1728,-1.023,-0.8748,-0.7593,-0.6919,-0.6236,-0.5676,-0.512,-0.4786,-0.2452,-0.1786,-0.1676,-0.1608,-0.1678,-0.1628,-0.1655,-0.1671,-0.1763,-0.1751,-0.1919,-0.246,-0.2924,-0.3173,-0.4173,-0.483,-0.5635,-0.6175,-0.7335,-0.8789,-1.019,-1.1206,-1.1767,-1.2325,-1.2392,-1.2285,-1.2048,-1.2002,-1.2013,-1.1873,-1.1226,-1.0143,-0.9064,-0.8133,-0.7145,-0.6521,-0.725,-0.8553,-0.8981,-0.9729,-1.0824,-1.0933,-1.0355,-0.9422,-0.8498,-0.695,-0.4957,-0.3602,-0.3857,-0.5518,-0.5614,-0.5821,-0.578,-0.5761,-0.5886,-0.6024,-0.5384,-0.481,-0.4606,-0.3792,-0.3162,-0.341,-0.4174,-0.4937,-0.5189,-0.5096,-0.5476,-0.7129,-0.7264,-0.7223,-0.7623,-0.8006,-0.7819,-0.7602,-0.7755,-0.8928,-1.0644,-1.1331,-1.1865,-1.3301,-1.4328,-1.5358,-1.6314,-1.7093,-1.7561,-1.6888,-1.695,-1.6835,-1.6905,-1.6987,-1.7016,-1.6905,-1.7254,-1.7814,-1.8133,-1.8503,-1.9066,-1.9477,-1.9579,-1.9803,-2.0156,-1.9313,-1.8253,-1.6919,-1.5075,-1.3007,-1.0929,-0.9383,-0.7264,-0.5815,-0.4523,-0.4311,-0.4204,-0.3536,-0.309,-0.1122,-0.0449,-0.0401,-0.0432,-0.0542,-0.0539,-0.0572,-0.0674,-0.094,-0.0982,-0.1161,-0.1483,-0.175,-0.2046,-0.2978,-0.3684,-0.4113,-0.5213,-0.6639,-0.7291,-0.7625,-0.7966,-0.8655,-0.9836,-1.0426,-1.018,-0.9607,-0.9403,-0.9426,-0.9296,-0.8665,-0.7581,-0.6231,-0.4993,-0.4397,-0.3541,-0.39,-0.5486,-0.5644,-0.6264,-0.7363,-0.7404,-0.6973,-0.6324,-0.5634,-0.4602,-0.345,-0.2849,-0.2708,-0.283,-0.3081,-0.3317,-0.3443,-0.3409,-0.3315,-0.2996,-0.2397,-0.1892,-0.1718,-0.1277,-0.0751,-0.0838,-0.1091,-0.139,-0.1908,-0.1543,-0.1831,-0.2856,-0.3045,-0.3283,-0.3523,-0.3354,-0.3716,-0.4156,-0.4376,-0.4766,-0.5995,-0.7624,-0.894,-0.9741,-1.0902,-1.2177,-1.3401,-1.4173,-1.4831,-1.5424,-1.5421,-1.52,-1.5129,-1.5093,-1.4704,-1.4458,-1.4369,-1.471,-1.5309,-1.603,-1.7311,-1.8173,-1.8575,-1.8384,-1.8761,-1.8174,-1.654,-1.577,-1.5225,-1.283,-0.9771,-0.6431,-0.3862,-0.2929,-0.2046,-0.1576,-0.1178,-0.1105,-0.1375,0.0854,0.1159,0.1369,0.1195,0.0898,0.1008,0.0944,0.0724,0.0561,0.0209,-0.0141,-0.0315,-0.0641,-0.1217,-0.1797,-0.2224,-0.2803,-0.4115,-0.5179,-0.5682,-0.6025,-0.645,-0.6789,-0.7444,-0.787,-0.8026,-0.7394,-0.71,-0.7141,-0.6752,-0.6085,-0.522,-0.376,-0.2703,-0.1783,-0.0699,-0.1097,-0.2109,-0.1852,-0.1972,-0.2552,-0.2652,-0.2696,-0.2656,-0.241,-0.2091,-0.189,-0.1551,-0.1289,-0.098,-0.0714,-0.0893,-0.1288,-0.1204,-0.0983,-0.0891,-0.04,-0.0089,0.0089,0.0752,0.1238,0.1283,0.1492,0.1267,0.1048,0.1309,0.0875,0.0,-0.0304,-0.0129,-0.0086,-0.0129,-0.0473,-0.0431,-0.0862,-0.1038,-0.1591,-0.4045,-0.6481,-0.7065,-0.819,-0.9583,-1.0699,-1.1289,-1.2387,-1.3166,-1.2602,-1.2405,-1.3011,-1.2829,-1.1994,-1.1563,-1.1232,-1.1406,-1.2089,-1.3297,-1.515,-1.6251,-1.723,-1.673,-1.6428,-1.5407,-1.4109,-1.3833,-1.3565,-1.0721,-0.7615,-0.4149,-0.1009,-0.0306,0.051,0.1463,0.1731,0.1194,0.0888,0.2816,0.2844,0.3228,0.3076,0.2689,0.2821,0.2752,0.2518,0.2326,0.1769,0.1076,0.0942,0.0422,-0.0218,-0.0484,-0.0823,-0.1496,-0.2253,-0.3138,-0.3752,-0.4091,-0.4744,-0.5318,-0.5227,-0.5137,-0.5862,-0.5424,-0.5275,-0.5119,-0.4461,-0.3734,-0.2878,-0.1736,-0.0563,0.0567,0.1617,0.1832,0.104,0.1685,0.2267,0.2427,0.2347,0.2197,0.1699,0.0749,0.0425,0.0387,0.0651,0.079,0.0619,0.1791,0.1796,0.121,0.0942,0.1117,0.0621,0.1241,0.1595,0.1811,0.2475,0.314,0.3184,0.3604,0.363,0.3364,0.3437,0.3002,0.2406,0.2033,0.2262,0.2235,0.2249,0.2435,0.2486,0.2367,0.2468,0.2023,-0.0867,-0.2881,-0.4504,-0.509,-0.6163,-0.7484,-0.8408,-0.9701,-1.0633,-0.994,-0.9661,-1.02,-0.9933,-0.8711,-0.778,-0.7218,-0.7162,-0.7784,-0.825,-1.0391,-1.2227,-1.3839,-1.3875,-1.3051,-1.1324,-1.0275,-1.1886,-1.1192,-0.7894,-0.4224,-0.022,0.1996,0.2468,0.3155,0.4095,0.3994,0.3407,0.3054,0.3955,0.4791,0.467,0.4828,0.5121,0.4685,0.4488,0.4531,0.3831,0.3127,0.2374,0.1947,0.1599,0.1142,0.0674,0.0209,-0.0086,-0.0429,-0.0856,-0.1437,-0.176,-0.2213,-0.2692,-0.277,-0.2378,-0.2341,-0.2824,-0.345,-0.314,-0.2527,-0.1633,-0.0574,0.0483,0.1621,0.2702,0.3964,0.4341,0.4231,0.473,0.5097,0.5509,0.5978,0.6169,0.5451,0.4105,0.3344,0.3486,0.3787,0.3761,0.3153,0.4882,0.5095,0.4464,0.3693,0.3309,0.3144,0.3547,0.39,0.3948,0.4444,0.5057,0.5391,0.5551,0.5593,0.5514,0.547,0.4995,0.4746,0.4427,0.4613,0.4694,0.4633,0.4431,0.4314,0.4089,0.3872,0.3383,0.2358,0.0909,-0.0726,-0.1598,-0.2659,-0.4123,-0.5264,-0.6104,-0.6756,-0.6533,-0.6343,-0.6673,-0.5817,-0.4351,-0.3533,-0.2791,-0.2926,-0.3268,-0.3533,-0.4611,-0.6474,-0.8089,-0.9258,-0.8279,-0.6508,-0.6215,-0.5903,-0.5471,-0.3134,0.0504,0.4022,0.5004,0.5512,0.6174,0.6714,0.5781,0.4868,0.4923,0.5159,0.5625,0.6015,0.6149,0.6027,0.5746,0.5692,0.5705,0.4945,0.4093,0.3449,0.3071,0.2676,0.2276,0.2287,0.2061,0.1904,0.1861,0.1341,0.0699,0.0476,0.0169,-0.0427,-0.0696,-0.0044,0.0176,-0.0486,-0.1153,-0.0797,-0.0222,0.0311,0.0889,0.1862,0.2824,0.3868,0.4694,0.5987,0.6723,0.7063,0.737,0.8031,0.8709,0.8737,0.8479,0.7422,0.6639,0.6354,0.6219,0.6092,0.5914,0.6871,0.7465,0.751,0.737,0.6765,0.6088,0.6172,0.634,0.6252,0.6623,0.6969,0.6912,0.7009,0.7029,0.6959,0.6725,0.6441,0.6277,0.6187,0.6163,0.6143,0.6579,0.6735,0.6307,0.5913,0.5519,0.5257,0.4751,0.3763,0.2572,0.1524,0.0261,-0.1183,-0.2068,-0.252,-0.2771,-0.2986,-0.3127,-0.3296,-0.2145,-0.077,0.0085,0.0761,0.1477,0.1195,0.0906,0.0536,-0.1079,-0.2435,-0.362,-0.3113,-0.1169,0.1262,0.287,0.3337,0.2788,0.4877,0.8191,0.8358,0.8335,0.8187,0.7893,0.7045,0.6508,0.6531,0.6109,0.6179,0.7019,0.7144,0.6804,0.6719,0.6851,0.6838,0.6211,0.5306,0.4388,0.4383,0.4039,0.3553,0.3833,0.4164,0.4109,0.4046,0.3252,0.2575,0.2292,0.1973,0.1282,0.1127,0.1458,0.2321,0.2047,0.1454,0.1152,0.1334,0.1738,0.2049,0.2539,0.3544,0.4669,0.5492,0.7139,0.8154,0.8659,0.9018,0.9961,1.006,1.0288,1.0872,0.9999,0.9103,0.8982,0.8814,0.8557,0.8651,0.9243,0.9908,1.0483,1.1166,1.0803,0.9476,0.906,0.8647,0.849,0.8279,0.8327,0.8148,0.808,0.8028,0.7795,0.7377,0.7174,0.7189,0.7169,0.7031,0.6959,0.7682,0.7897,0.7599,0.7085,0.6868,0.6609,0.6222,0.5876,0.4943,0.4219,0.3069,0.1569,0.0528,-0.0043,-0.0216,-0.0432,-0.0215,-0.0213,0.0849,0.2066,0.3138,0.4156,0.5506,0.5669,0.5284,0.4824,0.3901,0.2817,0.1821,0.2831,0.4359,0.6519,0.8075,0.9251,0.8977,1.0787,1.1265,1.0967,1.0499,0.9847,0.9391,0.9115,0.8496,0.814,0.6459,0.6899,0.727,0.7764,0.8277,0.8127,0.8353,0.8513,0.8044,0.7111,0.5664,0.5958,0.5711,0.5329,0.5617,0.6083,0.6108,0.5501,0.4859,0.4278,0.4015,0.3429,0.2662,0.2943,0.3239,0.3908,0.3895,0.3387,0.2764,0.2299,0.2228,0.276,0.3369,0.4192,0.5615,0.6143,0.7453,0.8594,0.909,0.9762,1.0406,0.9675,1.02,1.0797,1.0556,1.0207,1.1039,1.1186,1.1262,1.1159,1.2603,1.3022,1.2787,1.3638,1.4137,1.3338,1.2096,1.0502,1.0325,0.9666,0.9112,0.885,0.8602,0.8349,0.7863,0.7726,0.7615,0.7792,0.7756,0.7461,0.7105,0.7224,0.7231,0.7314,0.7349,0.7224,0.714,0.7377,0.7071,0.7027,0.624,0.5391,0.4221,0.3249,0.2387,0.2297,0.2249,0.2328,0.2792,0.3684,0.5121,0.6249,0.6936,0.815,0.8781,0.8593,0.8378,0.7993,0.7074,0.6378,0.7015,0.7821,0.9486,1.1033,1.2472,1.347,1.382,1.3753,1.3283,1.2705,1.2028,1.1801,1.172,1.0935,0.9935,0.681,0.7091,0.8166,0.8439,0.8286,0.8492,0.8721,0.8775,0.8539,0.7868,0.7074,0.6835,0.6647,0.6453,0.6578,0.6952,0.7199,0.6612,0.6073,0.5633,0.5196,0.4704,0.4455,0.4366,0.4641,0.528,0.5178,0.4768,0.4223,0.4022,0.3942,0.4069,0.4378,0.4986,0.6064,0.6416,0.7175,0.8121,0.8953,0.9514,0.9768,0.9804,1.019,1.134,1.0923,1.1422,1.2291,1.3019,1.3114,1.306,1.4,1.4456,1.4432,1.4898,1.5206,1.5088,1.4037,1.2884,1.1966,1.0576,0.9655,0.8705,0.7993,0.7044,0.7009,0.7259,0.7419,0.7398,0.7701,0.7553,0.7328,0.7641,0.7848,0.7897,0.7599,0.7919,0.7961,0.8103,0.8193,0.8255,0.825,0.7461,0.6649,0.5588,0.47,0.438,0.4168,0.4046,0.4786,0.5901,0.7613,0.9522,0.9993,1.0562,1.1005,1.1127,1.1038,1.0534,0.9327,0.8964,0.9621,1.066,1.1854,1.3252,1.4623,1.5533,1.6193,1.6027,1.543,1.4803,1.4199,1.3936,1.3595,1.2746,1.1836,0.7238,0.7356,0.8594,0.8666,0.8061,0.8678,0.9011,0.8986,0.8846,0.8394,0.7862,0.7535,0.7445,0.7564,0.7658,0.7988,0.833,0.7523,0.7078,0.6622,0.6111,0.5731,0.5462,0.5398,0.5726,0.6786,0.5978,0.5702,0.5756,0.5669,0.5444,0.5237,0.5057,0.5556,0.6002,0.6307,0.6816,0.79,0.8212,0.8551,0.8819,0.9035,0.9666,1.0396,1.1021,1.1628,1.2713,1.3149,1.3353,1.4071,1.4373,1.4932,1.5495,1.5483,1.5474,1.525,1.4418,1.3226,1.2013,1.0699,0.9599,0.8295,0.703,0.6132,0.6331,0.6639,0.6983,0.7096,0.7602,0.7504,0.7335,0.7773,0.7814,0.7889,0.7972,0.8512,0.8889,0.875,0.8873,0.9104,0.929,0.9753,0.8872,0.7858,0.7055,0.6562,0.6165,0.5755,0.6542,0.7628,0.887,1.0578,1.1169,1.1516,1.2043,1.2519,1.2834,1.2773,1.1496,1.1157,1.1548,1.2161,1.3057,1.4675,1.6104,1.6593,1.6661,1.7113,1.7433,1.6442,1.5632,1.5606,1.5211,1.4398,1.3753,0.7836,0.7878,0.7995,0.8134,0.8268,0.9072,0.9486,0.952,0.9508,0.891,0.8079,0.8074,0.8542,0.8949,0.8929,0.9088,0.9376,0.8458,0.7912,0.7465,0.7009,0.6431,0.6165,0.6071,0.6138,0.6441,0.6154,0.6263,0.6539,0.6514,0.5926,0.5173,0.564,0.5839,0.6173,0.6605,0.6836,0.744,0.7321,0.739,0.7628,0.7729,0.7835,0.8977,0.935,0.9955,1.1751,1.2347,1.3124,1.4215,1.4546,1.5036,1.5527,1.5355,1.5169,1.4654,1.3714,1.2412,1.0999,0.9951,0.9136,0.7754,0.6403,0.5422,0.5802,0.6537,0.6914,0.6813,0.713,0.7328,0.7083,0.7105,0.7273,0.7648,0.7836,0.8055,0.8508,0.8956,0.9155,0.9717,0.9987,1.0022,0.989,0.8596,0.8178,0.7623,0.6976,0.6543,0.7604,0.8649,0.9437,1.0616,1.141,1.1938,1.2389,1.2779,1.3022,1.3251,1.2631,1.2687,1.3087,1.3749,1.3966,1.4675,1.5733,1.6473,1.707,1.7139,1.7184,1.717,1.7037,1.702,1.689,1.6327,1.5719,0.7964,0.8126,0.86,0.8879,0.9032,1.0012,1.0216,0.999,1.0224,0.9801,0.8808,0.8717,0.8771,0.9011,0.9102,0.9259,0.9346,0.859,0.8234,0.7871,0.734,0.6967,0.6757,0.6569,0.6541,0.6796,0.6501,0.623,0.6574,0.6834,0.6873,0.6547,0.6641,0.7217,0.7523,0.7189,0.7266,0.7034,0.6793,0.6754,0.6688,0.6959,0.7106,0.7837,0.876,0.9701,1.1234,1.2039,1.3017,1.3772,1.4128,1.4507,1.4797,1.4449,1.3941,1.3409,1.2238,1.1042,0.9552,0.8318,0.6698,0.5122,0.4318,0.4482,0.5135,0.561,0.591,0.6013,0.6251,0.641,0.6568,0.6562,0.6774,0.728,0.7566,0.7708,0.8057,0.8632,0.8988,0.9379,0.9443,0.9508,0.9335,0.8987,0.882,0.861,0.796,0.7607,0.8529,0.9482,1.0186,1.0922,1.1707,1.2295,1.2791,1.3025,1.321,1.3344,1.3522,1.363,1.3716,1.4082,1.4369,1.4956,1.5477,1.627,1.6754,1.6825,1.7155,1.7761,1.8203,1.8492,1.8301,1.8004,1.7469,0.8246,0.8844,0.9394,0.9577,0.9648,1.0406,1.0515,1.0244,1.0332,1.0127,0.9436,0.9101,0.9035,0.9078,0.9166,0.9196,0.9283,0.8774,0.8416,0.7978,0.7531,0.7282,0.7115,0.6893,0.6602,0.7053,0.6557,0.6081,0.6465,0.6824,0.7146,0.7547,0.7968,0.8262,0.8111,0.7896,0.7282,0.678,0.6235,0.5927,0.5726,0.5745,0.6249,0.6755,0.7611,0.8925,1.0257,1.1237,1.2031,1.2656,1.3031,1.3064,1.3077,1.28,1.2073,1.132,1.0469,0.951,0.7965,0.6398,0.4618,0.3488,0.3651,0.3932,0.4274,0.4794,0.5222,0.5198,0.5301,0.5468,0.5938,0.613,0.6392,0.6901,0.728,0.7461,0.7902,0.8415,0.8658,0.8911,0.9096,0.9443,0.9224,0.9017,0.8599,0.8688,0.8739,0.8464,0.8981,0.9884,1.0723,1.1431,1.2125,1.2662,1.3129,1.3163,1.3198,1.3245,1.3412,1.3663,1.3868,1.4264,1.4972,1.5727,1.6186,1.6366,1.6907,1.7609,1.8215,1.8793,1.9098,1.9308,1.9239,1.8915,1.869,0.885,1.0118,1.0215,1.0103,0.9999,1.0057,1.0291,1.034,0.9878,0.962,0.9473,0.9381,0.9528,0.9712,0.9686,0.9601,0.9329,0.896,0.8605,0.816,0.7666,0.728,0.7081,0.6883,0.6735,0.6398,0.6249,0.6214,0.644,0.7144,0.7717,0.8147,0.8468,0.8451,0.8016,0.7293,0.6632,0.6073,0.5293,0.4919,0.4906,0.4755,0.5191,0.5991,0.6613,0.7912,0.9307,0.9758,1.052,1.1404,1.109,1.1064,1.1175,1.0592,0.9894,0.9291,0.8341,0.7187,0.5692,0.455,0.3738,0.313,0.3423,0.3814,0.4059,0.4416,0.4678,0.464,0.4929,0.5154,0.5494,0.5782,0.6082,0.6489,0.6872,0.713,0.7559,0.7724,0.788,0.7739,0.8842,0.9701,0.9363,0.9009,0.8404,0.8456,0.9026,0.9359,0.9509,1.0167,1.0998,1.1409,1.2041,1.2365,1.2708,1.3035,1.3151,1.3198,1.3348,1.3674,1.4073,1.4546,1.5368,1.6413,1.7039,1.7377,1.8058,1.8761,1.8878,1.8945,1.9609,1.985,1.987,1.9765,1.946,1.0125,1.126,1.1594,1.1687,1.1612,1.1672,1.1489,1.1033,1.0242,0.9751,0.9722,0.975,0.9776,0.988,0.988,0.9724,0.9422,0.9316,0.8937,0.8308,0.7947,0.799,0.7743,0.7315,0.7134,0.7214,0.7023,0.6904,0.7455,0.7845,0.8425,0.8923,0.882,0.8471,0.8114,0.7658,0.7395,0.644,0.5603,0.5121,0.5444,0.5159,0.5193,0.5983,0.6208,0.7076,0.8365,0.8405,0.8844,0.9696,0.933,0.8988,0.8973,0.8375,0.7825,0.7237,0.6422,0.5395,0.4479,0.3772,0.388,0.3512,0.3351,0.3727,0.3973,0.4118,0.4196,0.4172,0.4345,0.4541,0.4768,0.5056,0.545,0.6171,0.6508,0.6539,0.6724,0.6754,0.6724,0.6318,0.6817,0.7382,0.7437,0.8045,0.7786,0.8127,0.8732,0.9279,0.9518,1.0244,1.1046,1.1201,1.1583,1.1923,1.2223,1.2567,1.2733,1.272,1.3191,1.3749,1.4238,1.4843,1.5905,1.6961,1.7746,1.8448,1.8651,1.8771,1.8763,1.8968,1.9548,2.0009,2.0078,2.0048,1.9983,1.0654,1.1811,1.2138,1.2461,1.2696,1.2527,1.211,1.1449,1.0806,1.0482,1.0262,1.0148,1.0097,1.0072,0.9944,0.9828,0.9555,0.9434,0.9116,0.8527,0.8508,0.8407,0.8129,0.7896,0.7834,0.7936,0.762,0.7429,0.8273,0.8512,0.8794,0.8994,0.9106,0.8421,0.7918,0.7451,0.7204,0.63,0.5631,0.5287,0.5479,0.5435,0.542,0.5698,0.597,0.6452,0.7004,0.7162,0.7111,0.7712,0.7636,0.7045,0.6854,0.67,0.6216,0.5635,0.5026,0.4459,0.4284,0.4062,0.4239,0.4195,0.3752,0.3779,0.3996,0.3888,0.3932,0.388,0.3757,0.3927,0.4201,0.4527,0.5145,0.5823,0.6039,0.6078,0.6106,0.6164,0.6085,0.5559,0.5323,0.5609,0.5847,0.652,0.7034,0.769,0.8423,0.899,0.9518,1.0254,1.0867,1.1035,1.1234,1.149,1.1793,1.2107,1.223,1.2269,1.2937,1.3753,1.4542,1.5167,1.6352,1.7677,1.8889,1.9531,1.8871,1.8711,1.859,1.8833,1.9351,1.978,2.0143,2.0236,2.0246,1.049,1.1726,1.1859,1.2401,1.3007,1.2776,1.2122,1.1347,1.1639,1.1424,1.0894,1.0512,1.031,1.0285,1.0046,0.9841,0.9738,0.9514,0.9155,0.8934,0.8883,0.8685,0.857,0.8491,0.8586,0.8396,0.8253,0.8549,0.9069,0.9273,0.9273,0.9026,0.9172,0.8403,0.763,0.7048,0.6737,0.6124,0.5733,0.543,0.5476,0.5332,0.5473,0.5634,0.576,0.5935,0.6223,0.6181,0.6067,0.6144,0.6023,0.5684,0.561,0.5808,0.5222,0.4767,0.4345,0.4703,0.4841,0.4713,0.4569,0.4527,0.4399,0.4491,0.4191,0.3647,0.3497,0.3556,0.3527,0.3652,0.384,0.4357,0.4857,0.5273,0.5542,0.5635,0.5712,0.5729,0.5646,0.5418,0.5214,0.5311,0.5399,0.5831,0.6537,0.7377,0.8129,0.891,0.9439,1.0,1.0534,1.0764,1.0937,1.1124,1.1388,1.1647,1.2009,1.2119,1.2971,1.379,1.4599,1.5625,1.7015,1.8515,2.0241,2.055,1.9342,1.862,1.8314,1.8627,1.8779,1.943,1.976,2.0217,2.0327,1.1583,1.2318,1.265,1.2978,1.3242,1.3683,1.3373,1.2476,1.1789,1.1308,1.1226,1.0656,1.0412,1.0046,0.9944,0.9764,0.9581,0.9396,0.9155,0.9086,0.93,0.9055,0.9156,0.9392,0.9521,0.9484,0.9548,0.9795,1.0326,1.0422,0.982,0.944,0.8941,0.8214,0.7628,0.7117,0.6525,0.6045,0.5698,0.5712,0.5748,0.5733,0.5943,0.6073,0.5933,0.6033,0.5942,0.5374,0.5153,0.5029,0.4561,0.422,0.418,0.4276,0.4148,0.487,0.5071,0.5474,0.5331,0.523,0.4937,0.4275,0.384,0.3782,0.3613,0.3335,0.3005,0.3021,0.3379,0.3562,0.3708,0.4098,0.4599,0.4942,0.514,0.5204,0.5279,0.5358,0.5291,0.5053,0.4897,0.4733,0.4835,0.5353,0.607,0.6952,0.7841,0.8643,0.9297,0.9823,1.0086,1.0332,1.0341,1.0468,1.0802,1.1079,1.1624,1.211,1.2829,1.3684,1.4646,1.5841,1.7593,1.9084,2.0447,2.0242,1.9284,1.8716,1.8241,1.7706,1.7808,1.8653,1.9401,1.9857,2.0298,1.2066,1.2508,1.2791,1.3012,1.3323,1.4117,1.411,1.351,1.2885,1.2437,1.1894,1.1399,1.0838,1.0349,1.0174,0.9956,0.9633,0.9658,0.9545,0.9659,0.9868,0.9901,1.0109,1.0339,1.0542,1.0587,1.0628,1.0745,1.1118,1.0759,1.0158,0.8919,0.8405,0.7818,0.7201,0.6713,0.6446,0.6181,0.6063,0.6258,0.6316,0.6375,0.6565,0.6543,0.6349,0.6179,0.5873,0.5,0.4826,0.4783,0.436,0.4292,0.4208,0.4176,0.4148,0.4761,0.4727,0.5089,0.5116,0.4616,0.4267,0.371,0.3005,0.2506,0.2447,0.2279,0.228,0.2382,0.2998,0.3503,0.3669,0.3874,0.4321,0.4744,0.4774,0.4809,0.4927,0.5035,0.4844,0.4599,0.442,0.4209,0.4418,0.4993,0.5561,0.6362,0.7335,0.8427,0.8996,0.9408,0.9614,0.9694,0.9676,0.9646,1.0094,1.0596,1.0936,1.1508,1.2228,1.3183,1.4441,1.5901,1.7466,1.8937,2.0333,1.9894,1.9379,1.8692,1.8145,1.7599,1.7417,1.8367,1.9115,1.9492,1.9928,1.2174,1.2603,1.2638,1.3057,1.3446,1.4246,1.4568,1.4634,1.4658,1.4098,1.2908,1.2514,1.1794,1.1055,1.0807,1.0495,1.0325,1.0299,1.0259,1.03,1.0895,1.1013,1.0938,1.1188,1.1384,1.1477,1.1399,1.1193,1.1212,1.0762,0.9732,0.8223,0.7726,0.7241,0.6758,0.6441,0.6309,0.6435,0.6411,0.6542,0.678,0.6842,0.6768,0.6435,0.6221,0.6087,0.561,0.5394,0.5346,0.5303,0.5318,0.5266,0.5071,0.4776,0.4727,0.4741,0.4737,0.4869,0.4936,0.4393,0.3803,0.3137,0.2334,0.1448,0.117,0.1504,0.1618,0.1673,0.2176,0.2783,0.3058,0.3561,0.4056,0.4559,0.4793,0.4912,0.5053,0.5284,0.5558,0.5311,0.5077,0.4939,0.5021,0.5636,0.6416,0.6532,0.7475,0.8784,0.8911,0.9324,0.9342,0.9358,0.9215,0.9292,0.9743,1.0123,1.0256,1.0827,1.175,1.274,1.4061,1.5648,1.7317,1.8608,1.9814,1.9984,1.96,1.8763,1.7976,1.748,1.7563,1.8302,1.8893,1.9442,2.0065,1.2832,1.3017,1.3716,1.4264,1.4627,1.4876,1.5165,1.5477,1.5519,1.4671,1.337,1.3052,1.2559,1.176,1.1669,1.1411,1.1136,1.109,1.1094,1.1244,1.1706,1.1868,1.1729,1.1901,1.2131,1.208,1.1826,1.1273,1.0877,1.0321,0.9507,0.8196,0.7623,0.7175,0.67,0.6434,0.6258,0.6553,0.6305,0.6408,0.6673,0.6872,0.6894,0.6803,0.6713,0.6513,0.6173,0.6002,0.5696,0.5437,0.5631,0.5712,0.575,0.5321,0.5233,0.5385,0.5231,0.5196,0.4805,0.4174,0.3382,0.2259,0.1279,0.0502,0.0224,0.0727,0.1063,0.1063,0.1396,0.2004,0.2613,0.3284,0.3901,0.4398,0.4948,0.5109,0.5273,0.5747,0.6215,0.6163,0.5947,0.5864,0.5868,0.6393,0.7173,0.8151,0.9343,1.0136,0.957,0.9581,0.9444,0.9345,0.8927,0.9035,0.9445,0.9782,0.9933,1.0787,1.1796,1.2775,1.3744,1.548,1.7195,1.8175,1.9098,1.9327,1.9232,1.8449,1.7758,1.7348,1.7792,1.8587,1.9413,2.0029,2.0658,1.357,1.3802,1.4474,1.4564,1.4438,1.5059,1.5359,1.5285,1.5639,1.5128,1.4071,1.3897,1.342,1.2557,1.2469,1.2199,1.1841,1.1825,1.1729,1.186,1.215,1.2429,1.2531,1.2539,1.2716,1.2645,1.2025,1.1358,1.0625,0.9701,0.8858,0.7865,0.7499,0.7093,0.6696,0.6259,0.6118,0.6571,0.5961,0.5987,0.6402,0.6647,0.6997,0.7044,0.7017,0.6904,0.6979,0.6774,0.6386,0.6167,0.6349,0.6167,0.6105,0.5804,0.5451,0.5207,0.5096,0.5215,0.4707,0.389,0.2846,0.1657,0.0725,0.0056,-0.0504,0.0,0.0448,0.056,0.1064,0.1676,0.2339,0.3007,0.3735,0.4401,0.5109,0.5542,0.5977,0.6465,0.687,0.7041,0.6639,0.6147,0.6365,0.7044,0.7649,0.7689,0.9241,1.014,0.9788,0.9976,0.9761,0.9415,0.9039,0.883,0.9091,0.9402,0.968,1.0695,1.1846,1.283,1.3864,1.554,1.7061,1.7935,1.8571,1.8852,1.8593,1.806,1.771,1.7347,1.8027,1.8905,1.9723,2.0622,2.148,1.431,1.469,1.5029,1.4564,1.3782,1.5104,1.5344,1.4845,1.5448,1.5482,1.4938,1.4824,1.4275,1.3648,1.3191,1.2726,1.2481,1.2592,1.2471,1.2178,1.2545,1.2809,1.2944,1.2989,1.2858,1.2479,1.1861,1.14,1.0887,0.9619,0.8362,0.7463,0.6941,0.6461,0.6312,0.5908,0.5652,0.5837,0.567,0.5683,0.6033,0.6414,0.6841,0.7067,0.727,0.7391,0.753,0.7489,0.7154,0.7027,0.6937,0.667,0.6434,0.6186,0.576,0.539,0.5227,0.4976,0.4339,0.3492,0.2329,0.1268,0.0501,-0.0056,-0.056,-0.0561,-0.0112,0.0,0.0,0.1344,0.2065,0.2674,0.3456,0.4512,0.5273,0.6086,0.6632,0.7278,0.767,0.7951,0.7639,0.7052,0.7472,0.8091,0.8255,0.8186,0.8457,0.8941,0.9564,1.0179,1.0406,0.9839,0.9247,0.9082,0.9072,0.9422,0.985,1.0677,1.1846,1.286,1.3986,1.5404,1.6612,1.7558,1.8138,1.8167,1.8255,1.7951,1.7618,1.7348,1.8385,1.93,2.0062,2.1028,2.2299,1.5134,1.5536,1.5639,1.5285,1.4862,1.5492,1.5477,1.512,1.5477,1.5722,1.5414,1.514,1.4804,1.4513,1.466,1.4036,1.2781,1.3105,1.2568,1.1987,1.2891,1.3221,1.3175,1.2855,1.2436,1.1991,1.1514,1.0946,1.0558,0.9095,0.8101,0.7818,0.7181,0.6739,0.6413,0.5884,0.5371,0.5424,0.5106,0.4948,0.5722,0.6181,0.6713,0.7072,0.7495,0.7704,0.7829,0.7795,0.7746,0.7614,0.7273,0.6965,0.6735,0.6489,0.6127,0.5943,0.5735,0.5435,0.4817,0.4065,0.3071,0.1434,0.0779,0.0335,-0.0112,-0.0392,0.0,0.0,0.0,0.0,0.1675,0.2176,0.2899,0.4446,0.5546,0.647,0.7235,0.8212,0.9068,0.9357,0.946,0.9336,0.9552,1.0082,1.0458,1.0529,1.0872,1.1173,1.0581,1.0804,1.1025,1.0248,0.949,0.9555,0.9621,0.9995,1.0444,1.1132,1.1944,1.31,1.4147,1.5039,1.6164,1.7122,1.7287,1.7223,1.7316,1.7611,1.7717,1.771,1.8767,1.9714,2.0384,2.1133,2.2181]},{"header":{"parameterUnit":"m.s-1","parameterCategory":1,"la1":31.0,"la2":29.5877,"lo1":-88.7671,"lo2":-86.6584,"dy":0.0162,"dx":0.0185,"nx":115,"ny":88,"refTime":"2023-10-05T12:00:00:Z","depth":0,"parameterNumber":3,"parameterNumberName":"V-component_of_WINDS"},"data":[0.0,0.0,0.0,0.0,0.0,0.0,0.0,0.0,0.0,0.0,0.0,0.0,0.0,0.0,0.0,0.0,0.0,0.0,0.0,0.0,0.0,0.0,0.0,0.0,0.0,0.0,0.0,0.0,0.0,0.0,0.0,0.0,0.0,0.0,0.0,0.0,0.0,0.0,0.0,0.0,0.0,0.0,0.0,0.0,0.0,0.0,0.0,0.0,0.0,0.0,0.0,0.0,0.0,0.0,0.0,0.0,0.0,0.0,0.0,0.0,0.0,0.0,0.0,0.0,0.0,0.0,0.0,0.0,0.0,0.0,0.0,0.0,0.0,0.0,0.0,0.0,0.0,0.0,0.0,0.0,0.0,0.0,0.0,0.0,0.0,0.0,0.0,0.0,0.0,0.0,0.0,0.0,0.0,0.0,0.0,0.0,0.0,0.0,0.0,0.0,0.0,0.0,0.0,0.0,0.0,0.0,0.0,0.0,0.0,0.0,0.0,0.0,0.0,0.0,0.0,0.0,0.0,0.0,0.0,0.0,0.0,0.0,0.0,0.0,0.0,0.0,0.0,0.0,0.0,0.0,0.0,0.0,0.0,0.0,0.0,0.0,0.0,0.0,0.0,0.0,0.0,0.0,0.0,0.0,0.0,0.0,0.0,0.0,0.0,0.0,0.0,0.0,0.0,0.0,0.0,0.0,0.0,0.0,0.0,0.0,0.0,0.0,0.0,0.0,0.0,0.0,0.0,0.0,0.0,0.0,0.0,0.0,0.0,0.0,0.0,0.0,0.0,0.0,0.0,0.0,0.0,0.0,0.0,0.0,0.0,0.0,0.0,0.0,0.0,0.0,0.0,0.0,0.0,0.0,0.0,0.0,0.0,0.0,0.0,0.0,0.0,0.0,0.0,0.0,0.0,0.0,0.0,0.0,0.0,0.0,0.0,0.0,0.0,0.0,0.0,0.0,0.0,0.0,0.0,0.0,0.0,0.0,0.0,0.0,0.0,0.0,0.0,0.0,0.0,0.0,0.0,0.0,0.0,0.0,0.0,0.0,0.0,0.0,0.0,0.0,0.0,0.0,0.0,0.0,0.0,0.0,0.0,0.0,0.0,0.0,0.0,0.0,0.0,0.0,0.0,0.0,0.0,0.0,0.0,0.0,0.0,0.0,0.0,0.0,0.0,0.0,0.0,0.0,0.0,0.0,0.0,0.0,0.0,0.0,0.0,0.0,0.0,0.0,0.0,0.0,0.0,0.0,0.0,0.0,0.0,0.0,0.0,0.0,0.0,0.0,0.0,0.0,0.0,0.0,0.0,0.0,0.0,0.0,0.0,0.0,0.0,0.0,0.0,0.0,0.0,0.0,0.0,0.0,0.0,0.0,0.0,0.0,0.0,0.0,0.0,0.0,0.0,0.0,0.0,0.0,0.0,0.0,0.0,0.0,0.0,0.0,0.0,0.0,0.0,0.0,0.0,0.0,0.0,0.0,0.0,0.0,0.0,0.0,0.0,0.0,0.0,0.0,0.0,0.0,0.0,0.0,0.0,0.0,0.0,0.0,0.0,0.0,0.0,0.0,0.0,0.0,0.0,0.0,0.0,0.0,0.0,0.0,0.0,0.0,0.0,0.0,0.0,0.0,0.0,0.0,0.0,0.0,0.0,0.0,0.0,0.0,0.0,0.0,0.0,0.0,0.0,0.0,0.0,0.0,0.0,0.0,0.0,0.0,0.0,0.0,0.0,0.0,0.0,0.0,0.0,0.0,0.0,0.0,0.0,0.0,0.0,0.0,0.0,0.0,0.0,0.0,0.0,0.0,0.0,0.0,0.0,0.0,0.0,0.0,0.0,0.0,0.0,0.0,0.0,0.0,0.0,0.0,0.0,0.0,0.0,0.0,0.0,0.0,0.0,0.0,0.0,0.0,0.0,0.0,0.0,0.0,0.0,0.0,0.0,0.0,0.0,0.0,0.0,0.0,0.0,0.0,0.0,0.0,0.0,0.0,0.0,0.0,0.0,0.0,0.0,0.0,0.0,0.0,0.0,0.0,0.0,0.0,0.0,0.0,0.0,0.0,0.0,0.0,0.0,0.0,0.0,0.0,0.0,0.0,0.0,0.0,0.0,0.0,0.0,0.0,0.0,0.0,0.0,0.0,0.0,0.0,0.0,0.0,0.0,0.0,0.0,0.0,0.0,0.0,0.0,0.0,0.0,0.0,0.0,0.0,0.0,0.0,0.0,0.0,0.0,0.0,0.0,0.0,0.0,0.0,0.0,0.0,0.0,0.0,0.0,0.0,0.0,0.0,0.0,0.0,0.0,0.0,0.0,0.0,0.0,0.0,0.0,0.0,0.0,0.0,0.0,0.0,0.0,0.0,0.0,0.0,0.0,0.0,0.0,0.0,0.0,0.0,0.0,0.0,0.0,0.0,0.0,0.0,0.0,0.0,0.0,0.0,0.0,0.0,0.0,0.0,0.0,0.0,0.0,0.0,0.0,0.0,0.0,0.0,0.0,0.0,0.0,0.0,0.0,0.0,0.0,0.0,0.0,0.0,0.0,0.0,0.0,0.0,0.0,0.0,0.0,0.0,0.0,0.0,0.0,0.0,0.0,0.0,0.0,0.0,0.0,0.0,0.0,0.0,0.0,0.0,0.0,0.0,0.0,0.0,0.0,0.0,0.0,0.0,0.0,0.0,0.0,0.0,0.0,0.0,0.0,0.0,0.0,0.0,0.0,0.0,0.0,0.0,0.0,0.0,0.0,0.0,0.0,0.0,0.0,0.0,0.0,0.0,0.0,0.0,0.0,0.0,0.0,0.0,0.0,0.0,0.0,0.0,0.0,0.0,0.0,0.0,0.0,0.0,0.0,0.0,0.0,0.0,0.0,0.0,0.0,0.0,0.0,0.0,0.0,0.0,0.0,0.0,0.0,0.0,0.0,0.0,0.0,0.0,0.0,0.0,0.0,0.0,0.0,0.0,0.0,0.0,0.0,0.0,0.0,0.0,0.0,0.0,0.0,0.0,0.0,0.0,0.0,0.0,0.0,0.0,0.0,0.0,0.0,0.0,0.0,0.0,0.0,0.0,0.0,0.0,0.0,0.0,0.0,0.0,0.0,0.0,0.0,0.0,0.0,0.0,0.0,0.0,0.0,0.0,0.0,0.0,0.0,0.0,0.0,0.0,0.0,0.0,0.0,0.0,0.0,0.0,0.0,0.0,0.0,0.0,0.0,0.0,0.0,0.0,0.0,0.0,0.0,0.0,0.0,0.0,0.0,0.0,0.0,0.0,0.0,0.0,0.0,0.0,0.0,0.0,0.0,0.0,0.0,0.0,0.0,0.0,0.0,0.0,0.0,0.0,0.0,0.0,0.0,0.0,0.0,0.0,0.0,0.0,0.0,0.0,0.0,0.0,0.0,0.0,0.0,0.0,0.0,0.0,0.0,0.0,0.0,0.0,0.0,0.0,0.0,0.0,0.0,0.0,0.0,0.0,0.0,0.0,0.0,0.0,0.0,0.0,0.0,0.0,0.0,0.0,0.0,0.0,0.0,0.0,0.0,0.0,0.0,0.0,0.0,0.0,0.0,0.0,0.0,0.0,0.0,0.0,0.0,0.0,0.0,0.0,0.0,0.0,0.0,0.0,0.0,0.0,0.0,0.0,0.0,0.0,0.0,0.0,0.0,0.0,0.0,0.0,0.0,0.0,0.0,0.0,0.0,0.0,0.0,0.0,0.0,0.0,0.0,0.0,0.0,0.0,0.0,0.0,0.0,0.0,0.0,0.0,0.0,0.0,0.0,0.0,0.0,0.0,0.0,0.0,0.0,0.0,0.0,0.0,0.0,0.0,0.0,0.0,0.0,0.0,0.0,0.0,0.0,0.0,0.0,0.0,0.0,0.0,0.0,0.0,0.0,0.0,0.0,0.0,0.0,0.0,0.0,0.0,0.0,0.0,0.0,0.0,0.0,0.0,0.0,0.0,0.0,0.0,0.0,0.0,0.0,0.0,0.0,0.0,0.0,0.0,0.0,0.0,0.0,0.0,0.0,0.0,0.0,0.0,0.0,0.0,0.0,0.0,0.0,0.0,0.0,0.0,0.0,0.0,0.0,0.0,0.0,0.0,0.0,0.0,0.0,0.0,0.0,0.0,0.0,0.0,0.0,0.0,0.0,0.0,0.0,0.0,0.0,0.0,0.0,0.0,0.0,0.0,0.0,0.0,0.0,0.0,0.0,0.0,0.0,0.0,0.0,0.0,0.0,0.0,0.0,0.0,0.0,0.0,0.0,0.0,-1.8537,0.0,0.0,0.0,0.0,0.0,0.0,0.0,0.0,0.0,0.0,0.0,0.0,0.0,0.0,0.0,0.0,0.0,0.0,0.0,0.0,0.0,0.0,0.0,0.0,0.0,0.0,0.0,0.0,0.0,0.0,0.0,0.0,0.0,0.0,0.0,0.0,0.0,0.0,0.0,0.0,0.0,0.0,0.0,0.0,0.0,0.0,0.0,0.0,0.0,0.0,0.0,0.0,0.0,0.0,0.0,0.0,0.0,0.0,0.0,0.0,0.0,0.0,0.0,0.0,0.0,0.0,0.0,0.0,0.0,0.0,0.0,0.0,0.0,0.0,0.0,0.0,0.0,0.0,0.0,0.0,0.0,0.0,0.0,0.0,0.0,0.0,0.0,0.0,0.0,0.0,0.0,0.0,0.0,0.0,0.0,0.0,0.0,0.0,0.0,0.0,0.0,0.0,0.0,0.0,0.0,0.0,0.0,0.0,0.0,0.0,-2.4494,-2.3285,-2.2445,-2.185,-2.1462,0.0,0.0,0.0,0.0,0.0,0.0,0.0,0.0,0.0,0.0,0.0,0.0,0.0,0.0,0.0,0.0,0.0,0.0,0.0,0.0,0.0,0.0,0.0,0.0,0.0,0.0,0.0,0.0,0.0,0.0,0.0,0.0,0.0,0.0,0.0,0.0,0.0,0.0,0.0,0.0,0.0,0.0,0.0,0.0,0.0,0.0,0.0,0.0,0.0,0.0,0.0,0.0,0.0,0.0,0.0,0.0,0.0,0.0,0.0,0.0,0.0,0.0,0.0,0.0,0.0,0.0,0.0,0.0,0.0,0.0,0.0,0.0,0.0,0.0,0.0,0.0,0.0,0.0,0.0,0.0,0.0,0.0,0.0,0.0,0.0,0.0,0.0,0.0,0.0,0.0,0.0,0.0,0.0,0.0,0.0,0.0,0.0,0.0,0.0,0.0,0.0,0.0,0.0,0.0,0.0,0.0,0.0,0.0,0.0,0.0,0.0,0.0,-2.4792,-2.4258,-2.3689,0.0,0.0,0.0,0.0,0.0,0.0,0.0,0.0,0.0,0.0,0.0,0.0,0.0,0.0,0.0,0.0,0.0,0.0,0.0,0.0,0.0,0.0,0.0,0.0,0.0,0.0,0.0,0.0,0.0,0.0,0.0,0.0,0.0,0.0,0.0,0.0,0.0,0.0,0.0,0.0,0.0,0.0,0.0,0.0,0.0,0.0,0.0,0.0,0.0,0.0,0.0,0.0,0.0,0.0,0.0,0.0,0.0,0.0,0.0,0.0,0.0,0.0,0.0,0.0,0.0,0.0,0.0,0.0,0.0,0.0,0.0,0.0,0.0,0.0,0.0,0.0,0.0,0.0,0.0,0.0,0.0,0.0,0.0,0.0,0.0,0.0,0.0,0.0,0.0,0.0,0.0,0.0,0.0,0.0,0.0,0.0,0.0,0.0,0.0,0.0,0.0,0.0,0.0,0.0,0.0,0.0,0.0,0.0,0.0,0.0,-2.6477,-2.6848,-2.6512,0.0,-2.4103,0.0,0.0,0.0,0.0,0.0,0.0,0.0,0.0,0.0,0.0,0.0,0.0,0.0,0.0,0.0,0.0,0.0,0.0,0.0,0.0,0.0,0.0,0.0,0.0,0.0,0.0,0.0,0.0,0.0,0.0,0.0,0.0,0.0,0.0,0.0,0.0,0.0,0.0,0.0,0.0,0.0,0.0,0.0,0.0,0.0,0.0,0.0,0.0,0.0,0.0,0.0,0.0,0.0,0.0,0.0,0.0,0.0,0.0,0.0,0.0,0.0,0.0,0.0,0.0,0.0,0.0,0.0,0.0,0.0,0.0,0.0,0.0,0.0,0.0,0.0,0.0,0.0,0.0,0.0,0.0,0.0,0.0,0.0,0.0,0.0,0.0,0.0,0.0,0.0,0.0,0.0,0.0,0.0,0.0,0.0,0.0,0.0,0.0,0.0,0.0,0.0,0.0,0.0,0.0,0.0,0.0,0.0,0.0,0.0,0.0,-2.6027,-2.6877,-2.731,-2.6622,0.0,0.0,0.0,0.0,0.0,0.0,0.0,0.0,0.0,0.0,0.0,0.0,0.0,0.0,0.0,0.0,0.0,0.0,0.0,0.0,0.0,0.0,0.0,0.0,0.0,0.0,0.0,0.0,0.0,0.0,0.0,0.0,0.0,0.0,0.0,0.0,0.0,0.0,0.0,0.0,0.0,0.0,0.0,0.0,0.0,0.0,0.0,0.0,0.0,0.0,0.0,0.0,0.0,0.0,0.0,0.0,0.0,0.0,0.0,0.0,0.0,0.0,0.0,0.0,0.0,0.0,0.0,0.0,0.0,0.0,0.0,0.0,0.0,0.0,0.0,0.0,0.0,0.0,0.0,0.0,0.0,0.0,0.0,0.0,0.0,0.0,0.0,0.0,0.0,0.0,0.0,0.0,0.0,0.0,0.0,0.0,0.0,0.0,0.0,0.0,0.0,0.0,0.0,0.0,0.0,0.0,0.0,0.0,0.0,0.0,-2.2614,-2.4991,-2.6793,-2.761,-2.7129,-2.5301,0.0,0.0,0.0,0.0,0.0,0.0,0.0,0.0,0.0,0.0,0.0,0.0,0.0,0.0,0.0,0.0,0.0,0.0,0.0,0.0,0.0,0.0,0.0,0.0,0.0,0.0,0.0,0.0,0.0,0.0,0.0,0.0,0.0,0.0,0.0,0.0,0.0,0.0,0.0,0.0,0.0,0.0,0.0,0.0,0.0,0.0,0.0,0.0,0.0,0.0,0.0,0.0,0.0,0.0,0.0,0.0,0.0,0.0,0.0,0.0,0.0,0.0,0.0,0.0,0.0,0.0,0.0,0.0,0.0,0.0,0.0,0.0,0.0,0.0,0.0,0.0,0.0,0.0,0.0,0.0,0.0,0.0,0.0,0.0,0.0,0.0,0.0,0.0,0.0,0.0,0.0,0.0,0.0,0.0,0.0,0.0,0.0,0.0,0.0,0.0,0.0,0.0,0.0,0.0,0.0,0.0,0.0,0.0,-1.7859,-2.0392,-2.3438,-2.6961,-2.7472,-2.7012,0.0,0.0,0.0,0.0,0.0,0.0,0.0,0.0,0.0,0.0,0.0,0.0,0.0,0.0,0.0,0.0,0.0,0.0,0.0,0.0,0.0,0.0,0.0,0.0,0.0,0.0,0.0,0.0,0.0,0.0,0.0,0.0,0.0,0.0,0.0,0.0,0.0,0.0,0.0,0.0,0.0,0.0,0.0,0.0,0.0,0.0,0.0,0.0,0.0,0.0,0.0,0.0,0.0,0.0,0.0,0.0,0.0,0.0,0.0,0.0,0.0,0.0,0.0,0.0,0.0,0.0,0.0,0.0,0.0,0.0,0.0,0.0,0.0,0.0,0.0,0.0,0.0,0.0,0.0,0.0,0.0,0.0,0.0,0.0,0.0,0.0,0.0,0.0,0.0,0.0,0.0,0.0,0.0,0.0,0.0,0.0,0.0,0.0,0.0,0.0,0.0,0.0,0.0,0.0,0.0,0.0,0.0,0.0,0.0,-1.6884,-2.0953,-2.4236,-2.6512,-2.6314,-2.5598,0.0,0.0,0.0,0.0,0.0,0.0,0.0,0.0,0.0,0.0,0.0,0.0,0.0,0.0,0.0,0.0,0.0,0.0,0.0,0.0,0.0,0.0,0.0,0.0,0.0,0.0,0.0,0.0,0.0,0.0,0.0,0.0,0.0,0.0,0.0,0.0,0.0,0.0,0.0,0.0,0.0,0.0,0.0,0.0,0.0,0.0,0.0,0.0,0.0,0.0,0.0,0.0,0.0,0.0,0.0,0.0,0.0,0.0,0.0,0.0,0.0,0.0,0.0,0.0,0.0,0.0,0.0,0.0,0.0,0.0,0.0,0.0,0.0,0.0,0.0,0.0,0.0,0.0,0.0,0.0,0.0,0.0,0.0,0.0,0.0,0.0,0.0,0.0,0.0,0.0,0.0,0.0,0.0,0.0,0.0,0.0,0.0,0.0,0.0,0.0,0.0,0.0,0.0,0.0,0.0,0.0,0.0,0.0,0.0,-1.7246,0.0,-2.4814,0.0,-2.5896,-2.5177,0.0,0.0,0.0,0.0,0.0,0.0,0.0,0.0,0.0,0.0,0.0,0.0,0.0,0.0,0.0,0.0,0.0,0.0,0.0,0.0,0.0,0.0,0.0,0.0,0.0,0.0,0.0,0.0,0.0,0.0,0.0,0.0,0.0,0.0,0.0,0.0,0.0,0.0,0.0,0.0,0.0,0.0,0.0,0.0,0.0,0.0,0.0,0.0,0.0,0.0,0.0,0.0,0.0,0.0,0.0,0.0,0.0,0.0,0.0,0.0,0.0,0.0,0.0,0.0,0.0,0.0,0.0,0.0,0.0,0.0,0.0,0.0,0.0,0.0,0.0,0.0,0.0,0.0,0.0,0.0,0.0,0.0,0.0,0.0,0.0,0.0,0.0,0.0,0.0,0.0,0.0,0.0,0.0,0.0,0.0,0.0,0.0,0.0,0.0,0.0,0.0,0.0,0.0,0.0,0.0,0.0,0.0,0.0,-1.397,-1.914,-2.2695,-2.4994,-2.5837,-2.6438,-2.585,0.0,0.0,0.0,0.0,0.0,0.0,0.0,0.0,0.0,0.0,0.0,0.0,0.0,0.0,0.0,0.0,0.0,0.0,0.0,0.0,0.0,0.0,0.0,0.0,0.0,0.0,0.0,0.0,0.0,0.0,0.0,0.0,0.0,0.0,0.0,0.0,0.0,0.0,0.0,0.0,0.0,0.0,0.0,0.0,0.0,0.0,0.0,0.0,0.0,0.0,0.0,0.0,0.0,0.0,0.0,0.0,0.0,0.0,0.0,0.0,0.0,0.0,0.0,0.0,0.0,0.0,0.0,0.0,0.0,0.0,0.0,0.0,0.0,0.0,0.0,0.0,0.0,0.0,0.0,0.0,0.0,0.0,0.0,0.0,0.0,0.0,0.0,0.0,0.0,0.0,0.0,0.0,0.0,0.0,0.0,0.0,0.0,0.0,0.0,0.0,0.0,0.0,0.0,0.0,0.0,0.0,0.0,0.0,0.0,-2.2233,-2.4966,-2.7108,-2.8596,-2.8046,-2.6875,0.0,0.0,0.0,0.0,0.0,0.0,0.0,0.0,0.0,0.0,0.0,0.0,0.0,0.0,0.0,0.0,0.0,0.0,0.0,0.0,0.0,0.0,0.0,0.0,0.0,0.0,0.0,0.0,0.0,0.0,0.0,0.0,0.0,0.0,0.0,0.0,0.0,0.0,0.0,0.0,0.0,0.0,0.0,0.0,0.0,0.0,0.0,0.0,0.0,0.0,0.0,0.0,0.0,0.0,0.0,0.0,0.0,0.0,0.0,0.0,0.0,0.0,0.0,0.0,0.0,0.0,0.0,0.0,0.0,0.0,0.0,0.0,0.0,0.0,0.0,0.0,0.0,0.0,0.0,0.0,0.0,0.0,0.0,0.0,0.0,0.0,0.0,0.0,0.0,0.0,0.0,0.0,0.0,0.0,0.0,0.0,0.0,0.0,0.0,0.0,0.0,0.0,0.0,0.0,0.0,0.0,0.0,0.0,0.0,-2.7015,-2.8725,-3.0137,-3.1414,-3.0838,-2.9483,-2.7346,0.0,0.0,0.0,0.0,0.0,0.0,0.0,0.0,0.0,0.0,0.0,0.0,0.0,0.0,0.0,0.0,0.0,0.0,0.0,0.0,0.0,0.0,0.0,0.0,0.0,0.0,0.0,0.0,0.0,0.0,0.0,0.0,0.0,0.0,0.0,0.0,0.0,0.0,0.0,0.0,0.0,0.0,0.0,0.0,0.0,0.0,0.0,0.0,0.0,0.0,0.0,0.0,0.0,0.0,0.0,0.0,0.0,0.0,0.0,0.0,0.0,0.0,0.0,0.0,0.0,0.0,0.0,0.0,0.0,0.0,0.0,0.0,0.0,0.0,0.0,0.0,0.0,0.0,0.0,0.0,0.0,0.0,0.0,0.0,0.0,0.0,0.0,0.0,0.0,0.0,0.0,0.0,0.0,0.0,0.0,0.0,0.0,0.0,0.0,0.0,0.0,0.0,0.0,0.0,0.0,0.0,0.0,0.0,-3.2646,-3.3138,-3.3603,-3.4205,-3.4472,-3.3238,0.0,0.0,0.0,0.0,0.0,0.0,0.0,0.0,0.0,0.0,0.0,0.0,0.0,0.0,0.0,0.0,0.0,0.0,0.0,0.0,0.0,0.0,0.0,0.0,0.0,0.0,0.0,0.0,0.0,0.0,0.0,0.0,0.0,0.0,0.0,0.0,0.0,0.0,0.0,0.0,0.0,0.0,0.0,0.0,0.0,0.0,0.0,0.0,0.0,0.0,0.0,0.0,0.0,0.0,0.0,0.0,0.0,0.0,0.0,0.0,0.0,0.0,0.0,0.0,0.0,0.0,0.0,0.0,0.0,0.0,0.0,0.0,0.0,0.0,0.0,0.0,0.0,0.0,0.0,0.0,0.0,0.0,0.0,0.0,0.0,0.0,0.0,0.0,0.0,0.0,0.0,0.0,0.0,0.0,0.0,0.0,0.0,0.0,0.0,0.0,0.0,0.0,0.0,0.0,0.0,0.0,0.0,0.0,0.0,-2.8595,-3.1996,-3.5087,-3.7645,-3.63,-3.3999,0.0,0.0,0.0,0.0,0.0,0.0,0.0,0.0,0.0,0.0,0.0,0.0,0.0,0.0,0.0,0.0,0.0,0.0,0.0,0.0,0.0,0.0,0.0,0.0,0.0,0.0,0.0,0.0,0.0,0.0,0.0,0.0,0.0,0.0,0.0,0.0,0.0,0.0,0.0,0.0,0.0,0.0,0.0,0.0,0.0,0.0,0.0,0.0,0.0,0.0,0.0,0.0,0.0,0.0,0.0,0.0,0.0,0.0,0.0,0.0,0.0,0.0,0.0,0.0,0.0,0.0,0.0,0.0,0.0,0.0,0.0,0.0,0.0,0.0,0.0,0.0,0.0,0.0,0.0,0.0,0.0,0.0,0.0,0.0,0.0,0.0,0.0,0.0,0.0,0.0,0.0,0.0,0.0,0.0,0.0,0.0,0.0,0.0,0.0,0.0,0.0,0.0,0.0,0.0,0.0,0.0,0.0,0.0,-2.4983,-2.6282,-2.9261,-3.2354,-3.5476,-3.6274,-3.5408,0.0,0.0,0.0,0.0,0.0,0.0,0.0,0.0,0.0,0.0,0.0,0.0,0.0,0.0,0.0,0.0,0.0,0.0,0.0,0.0,0.0,0.0,0.0,0.0,0.0,0.0,0.0,0.0,0.0,0.0,0.0,0.0,0.0,0.0,0.0,0.0,0.0,0.0,0.0,0.0,0.0,0.0,0.0,0.0,0.0,0.0,0.0,0.0,0.0,0.0,0.0,0.0,0.0,0.0,0.0,0.0,0.0,0.0,0.0,0.0,0.0,0.0,0.0,0.0,0.0,0.0,0.0,0.0,0.0,0.0,0.0,0.0,0.0,0.0,0.0,0.0,0.0,0.0,0.0,0.0,0.0,0.0,0.0,0.0,0.0,0.0,0.0,0.0,0.0,0.0,0.0,0.0,0.0,0.0,0.0,0.0,0.0,0.0,0.0,0.0,0.0,0.0,0.0,0.0,0.0,0.0,0.0,0.0,-2.1705,-2.4307,-2.5641,-2.7646,-3.0485,-3.5,-3.6742,0.0,0.0,0.0,0.0,0.0,0.0,0.0,0.0,0.0,0.0,0.0,0.0,0.0,0.0,0.0,0.0,0.0,0.0,0.0,0.0,0.0,0.0,0.0,0.0,0.0,0.0,0.0,0.0,0.0,0.0,0.0,0.0,0.0,0.0,0.0,0.0,0.0,0.0,0.0,0.0,0.0,0.0,0.0,0.0,0.0,0.0,0.0,0.0,0.0,0.0,0.0,0.0,0.0,0.0,0.0,0.0,0.0,0.0,0.0,0.0,0.0,0.0,0.0,0.0,0.0,0.0,0.0,0.0,0.0,0.0,0.0,0.0,0.0,0.0,0.0,0.0,0.0,0.0,0.0,0.0,0.0,0.0,0.0,0.0,0.0,0.0,0.0,0.0,0.0,0.0,0.0,0.0,0.0,0.0,0.0,0.0,0.0,0.0,0.0,0.0,0.0,0.0,0.0,0.0,0.0,0.0,0.0,0.0,-1.8195,-1.8352,-2.2716,-2.662,-2.9848,-3.3483,-3.5102,0.0,0.0,0.0,0.0,0.0,0.0,0.0,0.0,0.0,0.0,0.0,0.0,0.0,0.0,0.0,0.0,0.0,0.0,0.0,0.0,0.0,0.0,0.0,0.0,0.0,0.0,0.0,0.0,0.0,0.0,0.0,0.0,0.0,0.0,0.0,0.0,0.0,0.0,0.0,0.0,0.0,0.0,0.0,0.0,0.0,0.0,0.0,0.0,-2.2585,0.0,0.0,0.0,0.0,0.0,0.0,0.0,0.0,0.0,0.0,0.0,0.0,0.0,0.0,0.0,0.0,0.0,0.0,0.0,0.0,0.0,0.0,0.0,0.0,0.0,0.0,0.0,0.0,0.0,0.0,0.0,0.0,0.0,0.0,0.0,0.0,0.0,0.0,0.0,0.0,0.0,0.0,0.0,0.0,0.0,0.0,0.0,0.0,0.0,0.0,0.0,0.0,0.0,0.0,0.0,0.0,0.0,0.0,0.0,-1.3716,-1.3994,-1.885,-2.3153,-2.6822,-3.0201,-3.2702,0.0,0.0,0.0,0.0,0.0,0.0,0.0,0.0,0.0,0.0,0.0,0.0,0.0,0.0,0.0,0.0,0.0,0.0,0.0,0.0,0.0,0.0,0.0,0.0,0.0,0.0,0.0,0.0,0.0,0.0,0.0,0.0,0.0,0.0,0.0,0.0,0.0,0.0,0.0,0.0,0.0,0.0,0.0,0.0,0.0,0.0,0.0,0.0,0.0,0.0,0.0,0.0,0.0,0.0,0.0,0.0,0.0,0.0,0.0,0.0,0.0,0.0,0.0,0.0,0.0,0.0,0.0,0.0,0.0,0.0,0.0,0.0,0.0,0.0,0.0,0.0,0.0,0.0,0.0,0.0,0.0,0.0,0.0,0.0,0.0,0.0,0.0,0.0,0.0,0.0,0.0,0.0,0.0,0.0,0.0,0.0,0.0,0.0,0.0,0.0,0.0,0.0,0.0,0.0,0.0,0.0,0.0,-0.9846,-0.9701,-1.107,-1.5274,-1.9429,-2.3438,-2.6828,-3.0175,-3.3397,0.0,0.0,0.0,0.0,0.0,0.0,0.0,0.0,0.0,0.0,0.0,0.0,0.0,0.0,0.0,0.0,0.0,0.0,0.0,0.0,0.0,0.0,0.0,0.0,0.0,0.0,0.0,0.0,0.0,0.0,0.0,0.0,0.0,0.0,0.0,0.0,0.0,0.0,-2.0598,-1.8372,0.0,0.0,0.0,0.0,0.0,0.0,0.0,0.0,-2.4378,0.0,0.0,0.0,0.0,0.0,0.0,0.0,0.0,0.0,0.0,0.0,0.0,0.0,0.0,0.0,0.0,0.0,0.0,0.0,0.0,0.0,0.0,0.0,0.0,0.0,0.0,0.0,0.0,0.0,0.0,0.0,0.0,0.0,0.0,0.0,0.0,0.0,0.0,0.0,0.0,0.0,0.0,0.0,0.0,0.0,0.0,0.0,0.0,0.0,0.0,0.0,0.0,0.0,0.0,0.0,0.0,-0.9972,-0.8193,-0.8447,-1.0959,-1.4362,-1.828,-2.2716,-2.5808,-2.85,-3.0738,0.0,0.0,0.0,0.0,0.0,0.0,0.0,0.0,0.0,0.0,0.0,0.0,0.0,0.0,0.0,0.0,0.0,0.0,0.0,0.0,0.0,0.0,0.0,0.0,0.0,0.0,0.0,0.0,0.0,0.0,0.0,0.0,0.0,0.0,0.0,0.0,0.0,0.0,0.0,-1.5375,-1.4505,0.0,0.0,0.0,0.0,0.0,0.0,0.0,0.0,-2.8061,0.0,0.0,0.0,0.0,0.0,0.0,0.0,0.0,0.0,0.0,0.0,0.0,0.0,0.0,0.0,0.0,0.0,0.0,0.0,0.0,0.0,0.0,0.0,0.0,0.0,0.0,0.0,0.0,0.0,0.0,0.0,0.0,0.0,0.0,0.0,0.0,0.0,0.0,0.0,0.0,0.0,0.0,0.0,0.0,0.0,0.0,0.0,0.0,0.0,0.0,0.0,0.0,0.0,0.0,0.0,-0.8322,-0.675,-0.7122,-0.9301,-1.3068,-1.6803,-2.0466,-2.3823,-2.6638,0.0,0.0,0.0,0.0,0.0,0.0,0.0,0.0,0.0,0.0,0.0,0.0,0.0,0.0,0.0,0.0,0.0,0.0,0.0,0.0,0.0,0.0,0.0,0.0,0.0,0.0,0.0,0.0,0.0,0.0,0.0,0.0,0.0,0.0,0.0,0.0,0.0,0.0,0.0,0.0,-1.4162,-1.377,-1.2614,0.0,0.0,0.0,0.0,0.0,0.0,-2.686,-2.9876,0.0,0.0,0.0,0.0,0.0,0.0,0.0,0.0,0.0,0.0,0.0,0.0,0.0,0.0,0.0,0.0,0.0,0.0,0.0,0.0,0.0,0.0,0.0,0.0,0.0,0.0,0.0,0.0,0.0,0.0,0.0,0.0,0.0,0.0,0.0,0.0,0.0,0.0,0.0,0.0,0.0,0.0,0.0,0.0,0.0,0.0,0.0,0.0,0.0,0.0,0.0,0.0,0.0,0.0,0.0,-0.6692,-0.5844,-0.6236,-0.7782,-1.1926,-1.5605,-1.8508,-2.1916,-2.4789,0.0,0.0,0.0,0.0,0.0,0.0,0.0,0.0,0.0,0.0,0.0,0.0,0.0,0.0,0.0,0.0,0.0,0.0,0.0,0.0,0.0,0.0,0.0,0.0,0.0,0.0,0.0,0.0,0.0,0.0,0.0,0.0,0.0,0.0,0.0,0.0,0.0,0.0,0.0,0.0,0.0,-1.3649,-1.2657,-1.3585,0.0,0.0,0.0,0.0,-2.1945,-2.7985,0.0,0.0,0.0,0.0,0.0,0.0,0.0,0.0,0.0,0.0,0.0,0.0,0.0,0.0,0.0,0.0,0.0,0.0,0.0,0.0,0.0,0.0,0.0,0.0,0.0,0.0,0.0,0.0,0.0,0.0,0.0,0.0,0.0,0.0,0.0,0.0,0.0,0.0,0.0,0.0,0.0,0.0,0.0,0.0,0.0,0.0,0.0,0.0,0.0,0.0,0.0,0.0,0.0,0.0,0.0,0.0,-0.5343,-0.586,-0.6649,-0.7841,-1.1586,-1.5284,-1.8488,-2.0745,-2.3168,0.0,0.0,0.0,0.0,0.0,0.0,0.0,0.0,0.0,0.0,0.0,0.0,0.0,0.0,0.0,0.0,0.0,0.0,0.0,0.0,0.0,0.0,0.0,0.0,0.0,0.0,0.0,0.0,0.0,0.0,0.0,0.0,0.0,0.0,0.0,0.0,0.0,0.0,0.0,0.0,0.0,-1.4086,-1.4389,-1.498,-1.5749,0.0,0.0,-1.6901,-2.2373,-2.9021,0.0,0.0,0.0,0.0,0.0,0.0,0.0,0.0,0.0,0.0,0.0,0.0,0.0,0.0,0.0,0.0,0.0,0.0,0.0,0.0,0.0,0.0,0.0,0.0,0.0,0.0,0.0,0.0,0.0,0.0,0.0,0.0,0.0,0.0,0.0,0.0,0.0,0.0,0.0,0.0,0.0,0.0,0.0,0.0,0.0,0.0,0.0,0.0,0.0,0.0,0.0,0.0,0.0,0.0,0.0,-0.7244,-0.6222,-0.6591,-0.7696,-0.9625,-1.2395,-1.5195,-1.7985,-1.9978,-2.215,0.0,0.0,0.0,0.0,0.0,0.0,0.0,0.0,0.0,0.0,0.0,0.0,0.0,0.0,0.0,0.0,0.0,0.0,0.0,0.0,0.0,0.0,0.0,0.0,0.0,0.0,0.0,0.0,0.0,0.0,0.0,0.0,0.0,0.0,0.0,0.0,0.0,0.0,0.0,0.0,0.0,0.0,-1.6231,-1.7334,0.0,0.0,0.0,-1.7813,-2.3086,0.0,0.0,0.0,0.0,0.0,0.0,0.0,0.0,0.0,0.0,0.0,0.0,0.0,0.0,0.0,0.0,0.0,0.0,0.0,0.0,0.0,0.0,0.0,0.0,0.0,0.0,0.0,0.0,0.0,0.0,0.0,0.0,0.0,0.0,0.0,0.0,0.0,0.0,0.0,0.0,0.0,0.0,0.0,0.0,0.0,0.0,0.0,0.0,0.0,0.0,0.0,0.0,0.0,0.0,0.0,0.0,0.0,-0.7108,-0.7327,-0.8617,-1.107,-1.3063,-1.5276,-1.7604,-1.9483,0.0,0.0,0.0,0.0,0.0,0.0,0.0,0.0,0.0,0.0,0.0,0.0,0.0,0.0,0.0,0.0,0.0,0.0,0.0,0.0,0.0,0.0,0.0,0.0,0.0,0.0,0.0,-1.9951,0.0,0.0,0.0,0.0,0.0,0.0,0.0,0.0,0.0,0.0,0.0,0.0,0.0,0.0,-1.7644,-1.796,-1.9265,-2.0356,0.0,0.0,-1.9264,-2.3865,-2.9147,-3.2164,0.0,0.0,0.0,0.0,0.0,0.0,0.0,0.0,0.0,0.0,0.0,0.0,0.0,0.0,0.0,0.0,0.0,0.0,0.0,0.0,0.0,0.0,0.0,0.0,0.0,0.0,0.0,0.0,0.0,0.0,0.0,0.0,0.0,0.0,0.0,0.0,0.0,0.0,0.0,0.0,0.0,0.0,0.0,0.0,0.0,0.0,0.0,0.0,0.0,0.0,0.0,0.0,0.0,0.0,0.0,-0.7154,-0.7936,-0.9186,-1.107,-1.3063,-1.5267,-1.7604,-1.9112,-2.09,0.0,0.0,0.0,0.0,0.0,0.0,0.0,0.0,0.0,0.0,0.0,0.0,0.0,0.0,0.0,0.0,0.0,0.0,0.0,0.0,0.0,0.0,0.0,0.0,0.0,0.0,0.0,0.0,0.0,0.0,0.0,0.0,0.0,0.0,0.0,0.0,0.0,0.0,0.0,0.0,0.0,-1.8069,-1.9528,-2.0157,-2.0792,0.0,0.0,-2.1422,-2.4659,-2.9351,-3.2154,-3.0808,0.0,0.0,0.0,0.0,0.0,0.0,0.0,0.0,0.0,0.0,0.0,0.0,0.0,0.0,0.0,0.0,0.0,0.0,0.0,0.0,0.0,0.0,0.0,0.0,0.0,0.0,0.0,0.0,0.0,0.0,0.0,0.0,0.0,0.0,0.0,0.0,0.0,0.0,0.0,0.0,0.0,0.0,0.0,0.0,0.0,0.0,0.0,0.0,0.0,0.0,0.0,0.0,0.0,-0.7374,-0.7275,-0.8328,-0.9833,-1.1731,-1.3757,-1.5731,-1.7579,-1.9269,-2.0904,0.0,0.0,0.0,0.0,0.0,0.0,0.0,0.0,0.0,0.0,0.0,0.0,0.0,0.0,0.0,0.0,0.0,0.0,0.0,0.0,0.0,0.0,0.0,0.0,0.0,0.0,0.0,0.0,-1.6787,-1.6104,-1.5196,0.0,0.0,0.0,0.0,0.0,0.0,0.0,0.0,0.0,0.0,-1.905,-2.007,-2.1436,0.0,0.0,-2.2322,-2.2719,-2.5765,-2.8775,-3.0801,-3.0711,-3.2029,0.0,0.0,0.0,0.0,0.0,0.0,0.0,0.0,0.0,0.0,0.0,0.0,0.0,0.0,0.0,0.0,0.0,0.0,0.0,0.0,0.0,0.0,0.0,0.0,0.0,0.0,0.0,0.0,0.0,0.0,0.0,0.0,0.0,0.0,0.0,0.0,0.0,0.0,0.0,0.0,0.0,0.0,0.0,0.0,0.0,0.0,0.0,0.0,0.0,0.0,0.0,0.0,-0.757,-0.749,-0.8528,-1.0401,-1.3064,-1.4536,-1.6208,-1.8197,-1.966,-2.1054,0.0,0.0,0.0,0.0,0.0,0.0,0.0,0.0,0.0,0.0,0.0,0.0,0.0,0.0,0.0,0.0,0.0,0.0,0.0,0.0,0.0,0.0,0.0,0.0,0.0,0.0,0.0,0.0,-1.5999,-1.5342,-1.4518,0.0,0.0,0.0,0.0,0.0,0.0,0.0,0.0,0.0,0.0,-1.954,-2.0171,-2.2039,-2.3504,-2.3683,-2.3115,-2.3649,-2.6558,-2.871,-3.0234,-3.0569,0.0,0.0,0.0,0.0,0.0,0.0,0.0,0.0,0.0,0.0,0.0,0.0,0.0,0.0,0.0,0.0,0.0,0.0,0.0,0.0,0.0,0.0,0.0,0.0,0.0,0.0,0.0,0.0,0.0,0.0,0.0,0.0,0.0,0.0,0.0,0.0,0.0,0.0,0.0,0.0,0.0,0.0,0.0,0.0,0.0,0.0,0.0,0.0,0.0,0.0,0.0,0.0,0.0,-0.8111,-0.7683,-0.8483,-1.0918,-1.5046,-1.5274,-1.6749,-1.9492,-2.0241,-2.1329,-2.2875,0.0,0.0,0.0,0.0,0.0,0.0,0.0,0.0,0.0,0.0,0.0,0.0,0.0,0.0,0.0,0.0,0.0,0.0,0.0,0.0,0.0,0.0,0.0,0.0,0.0,0.0,-1.6532,-1.5807,-1.5099,0.0,0.0,0.0,0.0,0.0,0.0,0.0,0.0,0.0,0.0,-1.7589,-1.9359,-1.9675,-2.1905,-2.3446,-2.3523,-2.3297,-2.4124,-2.7001,-2.9374,-3.0738,0.0,0.0,0.0,0.0,0.0,0.0,0.0,0.0,0.0,0.0,0.0,0.0,0.0,0.0,0.0,0.0,0.0,0.0,0.0,0.0,0.0,0.0,0.0,0.0,0.0,0.0,0.0,-2.942,-3.1342,0.0,0.0,0.0,0.0,0.0,0.0,0.0,0.0,0.0,0.0,0.0,-1.797,-1.9548,0.0,0.0,0.0,0.0,0.0,0.0,0.0,0.0,0.0,0.0,0.0,0.0,-0.803,-0.8213,-0.9363,-1.2179,-1.6684,-1.7205,-1.8116,-1.9672,-2.0739,-2.2232,-2.4142,0.0,0.0,0.0,0.0,0.0,0.0,0.0,0.0,0.0,0.0,0.0,0.0,0.0,0.0,0.0,0.0,0.0,0.0,0.0,0.0,0.0,0.0,0.0,0.0,0.0,-1.625,0.0,0.0,0.0,0.0,0.0,0.0,0.0,0.0,0.0,0.0,0.0,-1.4676,-1.5426,-1.7288,-1.8838,-1.9479,-2.1523,-2.3299,0.0,0.0,0.0,0.0,0.0,0.0,0.0,0.0,0.0,0.0,0.0,0.0,0.0,0.0,-2.7118,-2.5191,-2.5266,-2.5868,-2.6791,0.0,0.0,0.0,0.0,0.0,0.0,0.0,0.0,0.0,0.0,0.0,0.0,0.0,0.0,0.0,0.0,-2.878,0.0,0.0,0.0,0.0,0.0,0.0,0.0,0.0,-0.5034,-1.2375,-1.8763,-2.0191,-1.7803,0.0,-1.0498,-1.0189,0.0,0.0,0.0,0.0,0.0,0.0,0.0,0.0,-0.8207,-0.8972,-1.0507,-1.3241,-1.7002,-1.8297,-1.9263,-2.0096,-2.1778,-2.3389,-2.4981,-2.5835,-2.6607,0.0,0.0,0.0,0.0,0.0,0.0,0.0,0.0,0.0,0.0,0.0,0.0,0.0,0.0,0.0,0.0,0.0,0.0,0.0,0.0,0.0,0.0,0.0,-1.6108,0.0,0.0,0.0,0.0,0.0,0.0,0.0,0.0,0.0,-1.4406,-1.4441,-1.4782,-1.5471,-1.7331,-1.8783,-1.9307,0.0,0.0,0.0,0.0,0.0,0.0,0.0,-2.9655,-3.0351,-3.0637,-3.0934,-3.1129,-3.0864,-3.0512,-3.0299,0.0,0.0,-2.7145,-2.7075,-2.7348,-2.7976,-2.7649,-2.7413,-2.8044,-2.8546,-2.9043,0.0,0.0,0.0,0.0,0.0,0.0,0.0,0.0,-2.4582,-2.8812,0.0,-2.5377,0.0,0.0,0.0,0.0,0.0,0.0,0.0,0.0,-0.1191,-1.0542,-1.7925,-1.9729,-1.698,-1.0663,-0.8065,-0.6591,-0.6062,-0.862,0.0,0.0,0.0,0.0,0.0,0.0,-0.8738,-0.984,-1.1861,-1.408,-1.6402,-1.8534,-2.0053,-2.0951,-2.3191,-2.4672,-2.5182,-2.5819,-2.6607,-2.7552,-2.766,0.0,0.0,0.0,0.0,0.0,0.0,0.0,0.0,0.0,0.0,0.0,0.0,0.0,0.0,0.0,0.0,0.0,0.0,0.0,0.0,-1.5611,0.0,0.0,0.0,0.0,0.0,0.0,0.0,0.0,0.0,0.0,-1.4698,-1.4979,-1.5315,-1.5616,0.0,0.0,0.0,0.0,-2.3412,-2.3957,-2.61,-2.7649,-2.7933,-2.8912,-2.9817,-3.0075,0.0,0.0,-3.1847,-3.1509,-3.0966,-3.0895,-2.999,-2.9404,-2.9125,-2.8448,-2.8116,-2.8209,-2.8081,-2.804,-2.8538,-2.9101,-2.9756,-0.6129,0.0,0.0,0.0,0.0,0.5856,-0.3848,-1.257,-2.1139,-2.5472,-2.6092,-1.9691,0.0,0.0,0.0,0.0,0.0,0.0,1.3662,0.6628,-0.0963,-0.9018,-1.7331,-1.8714,-1.5162,-0.7408,-0.2701,-0.1354,-0.2963,-0.4059,-0.5872,-0.8194,0.0,0.0,0.0,0.0,-0.8386,-0.9512,-1.1176,-1.3497,-1.6373,-1.7071,-1.8884,-2.1857,-2.3899,-2.5067,-2.5205,-2.6318,-2.7161,-2.7642,-2.7789,0.0,0.0,0.0,0.0,0.0,0.0,0.0,0.0,0.0,0.0,0.0,0.0,0.0,0.0,0.0,0.0,0.0,0.0,0.0,-1.6688,-1.6207,-1.6006,0.0,0.0,0.0,0.0,0.0,0.0,0.0,0.0,0.0,-1.4608,-1.4907,-1.5402,0.0,0.0,-1.8327,-1.8961,-2.0829,-2.2595,-2.3698,0.0,0.0,0.0,-2.8706,-2.9437,-2.9177,-2.9196,-2.9344,-2.9404,-2.9198,-2.9004,-2.8944,-2.867,-2.8502,-2.8426,-2.8274,-2.8473,-2.9508,-2.9381,-2.9291,-3.0099,-3.0154,-3.005,-0.9909,-0.0974,1.0185,1.564,1.6012,0.76,0.008,-0.6716,-1.4589,-1.8732,-1.9656,-1.5651,-1.0239,-0.3575,0.5395,0.0,0.0,0.0,1.4312,0.8608,0.2362,-0.3766,-0.9694,-1.4044,-1.1601,-0.3359,0.1141,0.1903,-0.0637,-0.0838,-0.2276,-0.4862,0.0,0.0,-0.6095,-0.6934,-0.816,-0.9619,-1.0764,-1.2744,-1.5628,-1.7159,-1.9274,-2.2024,-2.3933,-2.4989,-2.5221,-2.623,-2.7034,-2.7535,-2.7782,-2.7994,0.0,0.0,0.0,0.0,0.0,0.0,0.0,0.0,0.0,0.0,0.0,-2.2498,-2.1554,0.0,0.0,0.0,-1.8622,-1.7284,-1.6617,-1.635,0.0,0.0,0.0,0.0,0.0,0.0,0.0,-1.6378,-1.5716,-1.4835,-1.4017,-1.4371,-1.4951,-1.5588,-1.6937,-1.8055,-1.8668,0.0,-2.2105,-2.3155,-2.48,-2.6348,-2.7691,-2.8399,-2.8649,-2.8161,-2.7889,-2.767,-2.7645,-2.7515,-2.7369,-2.718,-2.7105,-2.7335,-2.8007,-2.7488,-2.7272,-2.8783,-2.873,-2.8758,-2.9771,-2.9645,-2.945,-1.3077,-0.4129,0.7471,1.3039,1.3812,0.9557,0.4909,-0.0015,-0.6274,-0.9945,-1.1472,-1.1924,-0.785,-0.0142,0.893,0.0,0.0,1.7652,1.5891,1.3827,0.7486,0.3492,0.123,-0.6936,-0.6585,0.1122,0.3801,0.3763,0.1519,0.1536,0.0814,-0.0695,-0.3088,-0.4594,-0.5257,-0.6357,-0.7947,-1.0128,-1.0586,-1.2132,-1.4811,-1.8236,-2.0501,-2.1564,-2.3298,-2.4444,-2.4968,-2.553,-2.6252,-2.702,-2.758,-2.7888,-2.7882,0.0,0.0,0.0,0.0,0.0,0.0,0.0,0.0,0.0,0.0,0.0,0.0,0.0,0.0,0.0,-1.804,0.0,-1.5936,-1.622,0.0,0.0,0.0,-1.7307,-1.7156,-1.7283,-1.743,-1.7459,0.0,0.0,0.0,0.0,-1.4128,-1.5021,-1.6729,-1.8004,-1.8186,-1.9993,-2.164,-2.213,-2.3673,-2.5515,-2.7167,-2.7358,-2.7162,-2.7022,-2.6628,-2.6307,-2.6206,-2.6206,-2.595,-2.5498,-2.536,-2.5818,-2.7493,-2.6068,-2.5074,-2.6449,-2.6764,-2.7004,-2.8097,-2.8237,-2.8228,-1.2683,-0.7239,-0.0919,0.6015,1.2593,0.9811,0.6901,0.3821,-0.0746,-0.3435,-0.4343,-0.1909,0.2207,0.7472,1.058,1.3215,1.5313,1.4159,1.336,1.261,0.7701,0.4339,0.219,-0.1174,-0.0861,0.2718,0.5124,0.5985,0.5439,0.4263,0.3471,0.2959,0.0277,-0.2216,-0.4433,-0.6081,-0.7894,-0.979,-1.0481,-1.2522,-1.5997,-1.8196,-1.9683,-2.0387,-2.2024,-2.2938,-2.3052,-2.4182,-2.4879,-2.5128,-2.6901,-2.7892,-2.7871,-2.5096,0.0,0.0,0.0,0.0,0.0,0.0,0.0,0.0,0.0,-1.9636,-1.8443,0.0,-1.895,0.0,-1.6594,-1.6325,-1.5652,-1.655,0.0,0.0,-1.7324,-1.7307,-1.7091,-1.6973,-1.7067,-1.7484,-1.5815,-1.3945,-1.1957,-1.2243,-1.3019,-1.4304,-1.5787,-1.6813,-1.7209,-1.8865,-2.0177,-2.0611,-2.1859,-2.3113,-2.3891,-2.3838,-2.4127,-2.5224,-2.4933,-2.4443,-2.4004,-2.3929,-2.3866,-2.3715,-2.3364,-2.3777,-2.5212,-2.3839,-2.2988,-2.4162,-2.5464,-2.6704,-2.7556,-2.7395,-2.698,-0.9679,-0.6763,-0.2782,0.2732,0.8884,1.0003,0.9958,0.8838,0.6187,0.3771,0.1687,0.3064,0.6296,1.0524,1.0634,1.1758,1.3529,1.247,1.1665,1.1044,0.8238,0.6243,0.4995,0.3051,0.3435,0.5806,0.7622,0.8044,0.7175,0.6268,0.5337,0.4371,0.243,0.0055,-0.2768,-0.5128,-0.7399,-0.9688,-1.1282,-1.3545,-1.6421,-1.7701,-1.8725,-1.9595,-2.0736,-2.1491,-2.1788,-2.2472,-2.3004,-2.3356,-2.5296,-2.5816,-2.4547,-2.2373,-1.9444,0.0,0.0,0.0,0.0,0.0,0.0,0.0,0.0,0.0,0.0,0.0,-1.6305,0.0,-1.454,-1.4897,-1.5127,-1.6216,-1.696,-1.709,-1.6747,-1.6477,-1.6393,-1.5928,-1.6049,-1.6997,-1.5164,-1.3065,-1.1335,-1.156,-1.2066,-1.2899,-1.4314,-1.5833,-1.7112,-1.8369,-1.9267,-1.96,-2.0533,-2.1485,-2.2018,-2.1182,-2.1141,-2.2708,-2.2727,-2.2318,-2.2088,-2.2033,-2.1895,-2.1418,-2.1242,-2.1205,-2.1511,-2.1562,-2.1446,-2.1931,-2.3173,-2.4637,-2.5983,-2.6213,-2.5989,-0.5735,-0.424,-0.0825,0.2182,0.5174,1.0273,1.2753,1.3214,1.2534,1.0047,0.6222,0.5265,0.7025,1.0648,0.9612,1.0374,1.2549,1.1496,1.0434,0.9508,0.8792,0.8305,0.797,0.6398,0.6798,0.8882,1.0527,1.0171,0.8075,0.801,0.6999,0.4961,0.4008,0.2139,-0.0663,-0.3627,-0.663,-0.9784,-1.2364,-1.4386,-1.5932,-1.6752,-1.7645,-1.8616,-1.9334,-1.995,-2.0431,-2.0524,-2.0789,-2.1402,-2.2964,-2.2617,-1.9883,-1.926,-1.7439,0.0,-1.2217,0.0,0.0,0.0,0.0,0.0,0.0,0.0,0.0,-1.3992,-1.326,-1.1668,-1.2247,-1.3188,-1.4264,-1.5469,-1.6258,-1.6307,-1.5685,-1.5233,-1.516,-1.4478,-1.456,-1.6094,-1.4148,-1.2101,-1.0769,-1.0901,-1.1202,-1.1572,-1.2785,-1.4463,-1.6634,-1.7765,-1.8416,-1.8916,-1.9392,-1.9853,-2.0599,-1.9315,-1.8742,-2.0381,-2.0413,-2.0113,-2.0332,-2.0298,-1.9997,-1.9221,-1.9309,-1.9145,-1.7937,-1.9357,-2.0333,-2.0384,-2.1178,-2.228,-2.3805,-2.4597,-2.4507,-0.3047,-0.0973,0.225,0.4768,0.6916,1.1066,1.2615,1.2267,1.2755,1.0756,0.6941,0.6557,0.7028,0.8023,0.7453,0.8242,0.9996,0.93,0.9054,0.9243,0.8908,0.8413,0.7852,0.9097,0.9365,0.8976,1.231,1.2635,1.0179,1.0109,0.9328,0.7864,0.5958,0.383,0.1538,0.0,0.0,0.0,-1.2131,-1.3037,-1.3298,-1.504,-1.6001,-1.6203,-1.7042,0.0,-1.7525,-1.7936,-1.8161,-1.8214,-1.9732,0.0,0.0,0.0,0.0,0.0,0.0,0.0,0.0,0.0,0.0,0.0,-0.9822,-0.9855,-1.0746,-1.1589,-1.1354,-0.9612,-1.0361,-1.1544,-1.2707,-1.425,-1.497,-1.4412,-1.4203,-1.3902,-1.3372,-1.2822,-1.2854,-1.3538,-1.2271,-1.0946,-1.004,-0.9947,-1.0409,-1.125,-1.1791,-1.2549,-1.4004,-1.5817,-1.7045,-1.7187,-1.7333,-1.7711,-1.8562,-1.7988,-1.7741,-1.8786,-1.8394,-1.8095,-1.8549,-1.829,-1.8216,-1.8234,-1.8066,-1.8083,-1.8349,-1.8627,-1.9216,-2.0518,-2.0855,-2.1158,-2.2036,-2.2353,-2.2323,-0.0693,0.0,0.2949,0.5795,0.0,1.1572,1.2516,1.2098,1.3164,1.1451,0.7693,0.7185,0.6886,0.686,0.7057,0.7674,0.8746,0.8771,0.8845,0.8971,0.8871,0.8949,0.9221,0.9644,1.0148,1.0847,1.3431,1.3723,1.1846,1.1742,1.1014,0.9658,0.7933,0.5931,0.3749,0.0164,-0.4338,-0.976,-1.0875,-1.1301,-1.1126,-1.2617,-1.3818,-1.4597,0.0,0.0,0.0,0.0,0.0,0.0,0.0,0.0,0.0,0.0,0.0,-1.0971,-0.9198,-0.8665,-0.9733,-0.8689,-0.7971,-0.8,-0.705,-0.7216,-0.885,-0.9485,-0.9556,-0.8908,-0.9599,-1.0569,-1.1608,-1.2764,-1.3366,-1.2989,-1.2589,-1.2183,-1.1889,-1.1306,-1.1024,-1.1272,-1.0833,-1.0128,-0.935,-0.9427,-0.9836,-1.0493,-1.0974,-1.1434,-1.2172,-1.3656,-1.4842,-1.5223,-1.5583,-1.5881,-1.6244,-1.6063,-1.604,-1.6682,-1.6524,-1.6548,-1.717,-1.7086,-1.7001,-1.7289,-1.7346,-1.7514,-1.7882,-1.8193,-1.8737,-1.9705,-2.0099,-2.0264,-2.0699,-2.1231,-2.147,0.086,0.0709,0.3635,0.6626,0.9758,1.1793,1.2497,1.239,0.0,0.0,0.0,0.7513,0.6945,0.6586,0.714,0.7708,0.8173,0.8726,0.8915,0.8811,0.891,0.9562,1.0551,0.9597,1.0408,1.2715,1.4068,1.4041,1.2867,1.3037,1.2368,1.0904,0.9685,0.7847,0.528,0.1583,-0.2743,-0.7422,-0.8864,-0.9488,-0.9488,-1.0324,-1.1514,-1.3002,-1.3212,-1.3611,-1.4239,-1.3825,-1.3928,-1.447,-1.4829,-1.4675,-1.3878,-1.1099,-1.0081,-1.1082,-0.8384,-0.7015,-0.7993,-0.6609,-0.567,-0.5557,-0.4891,-0.5439,-0.7501,-0.7611,-0.7808,-0.8426,-0.9107,-0.9829,-1.059,-1.132,-1.1748,-1.1683,-1.1122,-1.0669,-1.0509,-0.9967,-0.9613,-0.9526,-0.969,-0.9583,-0.8922,-0.9112,-0.9335,-0.9576,-1.0101,-1.0565,-1.0722,-1.202,-1.3257,-1.3771,-1.4458,-1.4792,-1.4518,-1.4365,-1.4307,-1.5059,-1.4954,-1.5096,-1.5844,-1.6091,-1.6154,-1.6367,-1.6782,-1.7131,-1.7312,-1.7906,-1.8522,-1.8826,-1.9317,-1.9705,-1.9794,-2.0543,-2.0917,0.0425,0.3622,0.6678,0.8663,0.9927,1.1943,1.2761,1.2694,1.1294,0.981,0.8394,0.8274,0.7761,0.699,0.7105,0.7438,0.7925,0.8031,0.8349,0.0,0.9354,0.9762,0.9961,1.0322,1.1021,1.2052,1.3815,1.4098,1.3212,1.4015,1.3575,1.1845,1.0966,0.8855,0.5531,0.352,0.0705,-0.3056,-0.5729,-0.7687,-0.8871,-0.9068,-0.9526,-1.0394,-1.1282,-1.1697,-1.1688,-1.2288,-1.2589,-1.2589,-1.3122,-1.3074,-1.2355,-1.2299,-1.1743,-1.0427,-0.801,-0.6528,-0.6282,-0.523,-0.4135,-0.3114,-0.3024,-0.3997,-0.6168,-0.6017,-0.6121,-0.7,-0.8139,-0.9093,-0.9584,-1.0148,-1.037,-1.0174,-1.0016,-0.9753,-0.9219,-0.9065,-0.8971,-0.8978,-0.8938,-0.8958,-0.8749,-0.8743,-0.8756,-0.8891,-0.918,-0.9172,-0.9639,-1.1355,-1.2903,-1.3296,-1.4007,-1.4179,-1.3657,-1.3623,-1.3941,-1.4395,-1.384,-1.3793,-1.4807,-1.5051,-1.5234,-1.5656,-1.6343,-1.6879,-1.7229,-1.7505,-1.8135,-1.8783,-1.9369,-1.969,-1.9705,-1.9966,-1.9995,0.346,0.4931,0.7982,0.9982,1.1323,1.2728,1.3295,1.3016,1.1423,1.0001,0.893,0.8586,0.7874,0.7118,0.7799,0.8167,0.8346,0.9145,0.9611,0.9925,1.0218,1.0517,1.0855,1.1089,1.1607,1.2498,1.3777,1.4137,1.3654,1.4134,1.3777,1.259,1.1563,0.9573,0.6733,0.5947,0.3842,0.0219,-0.3517,-0.581,-0.6455,-0.6493,-0.7161,-0.86,-0.9489,-1.0112,-1.0367,-1.0797,-1.1116,-1.1416,-1.1484,-1.156,-1.1696,-1.1769,-1.1396,-1.0498,-0.7835,-0.5878,-0.5167,-0.3528,-0.2171,-0.1246,-0.1208,-0.1914,-0.353,-0.4546,-0.5314,-0.5705,-0.6244,-0.6987,-0.8142,-0.8329,-0.8201,-0.809,-0.8396,-0.8514,-0.8315,-0.8593,-0.8771,-0.8745,-0.8334,-0.7925,-0.761,-0.7385,-0.754,-0.8043,-0.848,-0.891,-0.9204,-1.037,-1.1484,-1.1843,-1.2434,-1.2917,-1.2927,-1.3109,-1.3333,-1.3579,-1.3194,-1.3296,-1.4061,-1.4422,-1.4915,-1.5531,-1.6502,-1.734,-1.7693,-1.7788,-1.8295,-1.9096,-1.9493,-1.9705,-1.9726,-1.9874,-2.0035,0.6344,0.6071,0.8632,1.0799,1.2629,1.3609,1.3912,1.3561,1.216,1.1014,1.0106,0.9193,0.8345,0.7938,0.8908,0.9326,0.9384,1.0434,1.1007,1.1007,1.1149,1.1557,1.1935,1.1746,1.2025,1.2837,1.3466,1.3685,1.3495,1.3609,1.3397,1.2831,1.1904,1.0311,0.8249,0.8105,0.6627,0.3621,-0.0383,-0.2802,-0.3471,-0.3781,-0.4919,-0.6732,-0.7594,-0.8279,-0.8964,-0.9363,-0.9791,-1.0297,-1.0344,-1.0691,-1.1395,-1.1175,-1.1028,-1.0965,-0.8084,-0.5433,-0.3727,-0.1763,-0.0221,0.0662,0.0936,0.0496,-0.0665,-0.2558,-0.4107,-0.4656,-0.4727,-0.5202,-0.644,-0.6766,-0.6588,-0.6642,-0.7069,-0.7456,-0.7509,-0.7996,-0.8459,-0.8571,-0.7865,-0.6929,-0.6323,-0.6084,-0.645,-0.732,-0.7943,-0.8521,-0.9138,-0.9347,-0.9644,-1.0466,-1.1266,-1.1927,-1.2421,-1.2393,-1.255,-1.2764,-1.2735,-1.2987,-1.3627,-1.4329,-1.4869,-1.5576,-1.6802,-1.7612,-1.7866,-1.8016,-1.8432,-1.9214,-1.9566,-1.9726,-1.9889,-2.007,-2.04,0.6878,0.788,0.904,1.0869,1.3231,1.4217,1.4636,1.4441,1.3218,1.2589,1.2262,1.0494,0.9985,1.0395,1.0557,1.0592,1.0704,1.1323,1.1661,1.1751,1.2318,1.2677,1.2667,1.2214,1.2041,1.2322,1.2482,1.2382,1.2077,1.2491,1.2412,1.192,1.2019,1.1349,1.0051,0.964,0.902,0.8124,0.5202,0.2314,-0.0332,-0.1704,-0.3132,-0.4638,-0.5446,-0.6103,-0.6886,-0.81,-0.8842,-0.8992,-1.0092,-1.0964,-1.1387,-1.1455,-1.1824,-1.2464,-0.9123,-0.552,-0.1821,0.0055,0.1542,0.287,0.3575,0.3346,0.1975,0.0441,-0.161,-0.3691,-0.4401,-0.4535,-0.4816,-0.581,-0.6426,-0.6426,-0.6588,-0.6691,-0.6745,-0.6745,-0.7328,-0.8654,-0.7297,-0.6062,-0.4969,-0.5448,-0.6258,-0.6499,-0.6768,-0.7202,-0.7877,-0.809,-0.856,-0.9865,-1.1403,-1.1981,-1.1493,-1.1014,-1.1644,-1.254,-1.2344,-1.256,-1.3389,-1.4247,-1.488,-1.5398,-1.6659,-1.7463,-1.7612,-1.7754,-1.8361,-1.9038,-1.95,-1.9839,-2.0108,-2.0348,-2.0634,0.8858,0.9501,1.1004,1.2957,1.5016,1.5534,1.5903,1.6071,1.4845,1.4187,1.3757,1.2619,1.1809,1.1323,1.1349,1.1796,1.2493,1.2812,1.3137,1.347,1.382,1.374,1.3429,1.2898,1.2559,1.2257,1.1757,1.1612,1.1724,1.1686,1.1673,1.1713,1.1794,1.1297,1.0293,1.0316,0.9562,0.7985,0.6495,0.4423,0.1885,0.0,-0.1382,-0.2487,-0.3972,-0.4969,-0.5471,-0.709,-0.8131,-0.8178,-0.9079,-0.9725,-0.9859,-0.991,-1.0789,-1.2308,-0.6592,-0.185,0.0714,0.2258,0.3848,0.5698,0.572,0.5441,0.4858,0.3507,0.1421,-0.135,-0.2627,-0.344,-0.434,-0.5007,-0.5336,-0.5391,-0.571,-0.5923,-0.5923,-0.625,-0.6791,-0.7314,-0.6074,-0.4549,-0.3459,-0.3901,-0.4698,-0.5214,-0.561,-0.6159,-0.6924,-0.7396,-0.8084,-0.896,-0.999,-1.0754,-1.1099,-1.1032,-1.1481,-1.2335,-1.2295,-1.2267,-1.3074,-1.4107,-1.4789,-1.505,-1.6591,-1.7626,-1.7827,-1.8478,-1.9163,-1.9464,-1.9722,-2.0246,-2.0927,-2.107,-2.1368,1.0842,1.1421,1.3254,1.5027,1.6583,1.6918,1.7356,1.7624,1.6682,1.5899,1.5222,1.4496,1.3581,1.2653,1.2551,1.311,1.3893,1.4039,1.4315,1.4665,1.4596,1.4192,1.3693,1.3001,1.2436,1.1935,1.1136,1.0943,1.1314,1.1019,1.0966,1.1276,1.1372,1.1053,1.042,1.0687,0.9913,0.7949,0.6945,0.5679,0.4103,0.2273,0.0665,-0.0499,-0.2043,-0.3092,-0.3539,-0.5225,-0.6382,-0.6784,-0.7706,-0.8368,-0.8771,-0.9029,-0.9588,-0.9756,-0.3217,0.1641,0.2734,0.4331,0.6133,0.7852,0.7888,0.7582,0.7092,0.6289,0.4391,0.1584,-0.0108,-0.1661,-0.3583,-0.3857,-0.3917,-0.4116,-0.4498,-0.4659,-0.4867,-0.5206,-0.5345,-0.5654,-0.4679,-0.3148,-0.1873,-0.2186,-0.3019,-0.3484,-0.4161,-0.512,-0.6004,-0.6797,-0.7594,-0.8482,-0.9043,-1.0066,-1.139,-1.125,-1.1469,-1.194,-1.1981,-1.1774,-1.2696,-1.3899,-1.4869,-1.5353,-1.6998,-1.7933,-1.8052,-1.8841,-1.9863,-2.0056,-2.0323,-2.0748,-2.1321,-2.1552,-2.1794,1.2291,1.3742,1.5508,1.657,1.7196,1.8226,1.892,1.9269,1.8563,1.781,1.6863,1.5739,1.4991,1.4576,1.4474,1.4573,1.4642,1.4644,1.4704,1.4754,1.4328,1.3773,1.3189,1.2229,1.1551,1.1186,1.0587,1.0322,1.04,1.04,1.0322,1.043,1.0812,1.0823,1.066,1.1009,1.0409,0.8743,0.705,0.6328,0.6701,0.5144,0.3197,0.1437,0.0886,0.0055,-0.116,-0.2035,-0.313,-0.4529,-0.5882,-0.7272,-0.8652,-0.9582,-0.8534,-0.4896,0.0866,0.4229,0.4506,0.6269,0.8099,0.9438,1.0109,1.0054,0.8991,0.8384,0.6833,0.4421,0.273,0.0866,-0.1434,-0.2126,-0.2581,-0.3082,-0.2717,-0.2764,-0.3372,-0.2929,-0.2995,-0.3719,-0.3181,-0.1856,-0.0332,-0.0831,-0.1311,-0.1669,-0.216,-0.3261,-0.4844,-0.5794,-0.6775,-0.8164,-0.9494,-1.0939,-1.1539,-1.1226,-1.1192,-1.144,-1.1451,-1.1314,-1.2561,-1.3773,-1.4596,-1.5652,-1.7094,-1.7973,-1.8249,-1.8959,-1.9995,-2.0516,-2.0876,-2.1308,-2.1786,-2.1672,-2.1907,1.4765,1.5936,1.6898,1.811,1.9411,1.9866,2.0398,2.0855,1.9703,1.8803,1.7923,1.6731,1.5875,1.5363,1.5517,1.5312,1.4861,1.4463,1.4473,1.4823,1.4927,1.4536,1.3722,1.3018,1.2222,1.1403,1.0331,0.9817,0.9834,1.0118,1.0322,1.0352,1.0693,1.0977,1.1198,1.1562,1.1041,0.9589,0.8332,0.7367,0.6637,0.6571,0.613,0.5247,0.3444,0.2008,0.0907,-0.0216,-0.1513,-0.3045,-0.4003,-0.5824,-0.8456,-0.9131,-0.7559,-0.3253,0.3943,0.7717,0.6749,0.8387,1.0228,1.1517,1.1544,1.1528,1.1104,0.95,0.7156,0.5144,0.4662,0.3811,0.2785,0.0664,-0.1048,-0.1298,-0.1194,-0.1143,-0.1339,-0.1154,-0.1409,-0.219,-0.1159,0.0413,0.0608,0.0703,0.0334,-0.0453,-0.0851,-0.1913,-0.3476,-0.4492,-0.5603,-0.7286,-0.8693,-0.9794,-1.0488,-1.0806,-1.0865,-1.0748,-1.0751,-1.1208,-1.2157,-1.3387,-1.4282,-1.5647,-1.7113,-1.8127,-1.8498,-1.9447,-2.0454,-2.1439,-2.1789,-2.1845,-2.2224,-2.2252,-2.2495,1.7343,1.803,1.8644,1.9752,2.1062,2.1028,2.1372,2.1841,2.0608,1.9624,1.8754,1.7685,1.6755,1.6108,1.5932,1.5634,1.5061,1.4513,1.4462,1.4789,1.4784,1.433,1.363,1.3156,1.2564,1.1723,1.0386,0.975,0.9785,1.0108,1.0331,1.0525,1.0963,1.1389,1.1787,1.206,1.1695,1.0798,0.9801,0.8594,0.7568,0.7959,0.8306,0.8018,0.6609,0.5025,0.367,0.2598,0.119,-0.0409,-0.1397,-0.3488,-0.6844,-0.5517,-0.3169,0.0371,0.6176,0.9804,0.9355,1.0565,1.2073,1.3445,1.289,1.2721,1.3101,1.101,0.8399,0.6357,0.6192,0.6742,0.6176,0.3993,0.1794,0.0841,0.0546,0.0544,0.0539,0.0669,0.0281,-0.0138,0.1036,0.2035,0.2071,0.2037,0.1666,0.0831,0.0432,-0.0679,-0.2153,-0.35,-0.4525,-0.6206,-0.7458,-0.8268,-0.8746,-0.8996,-0.9607,-0.9626,-0.9922,-1.0556,-1.1461,-1.2725,-1.4127,-1.561,-1.6901,-1.7998,-1.9009,-2.0001,-2.1118,-2.2256,-2.2552,-2.2556,-2.2805,-2.2979,-2.3093,1.9847,1.99,2.0742,2.129,2.1838,2.1645,2.1839,2.2114,2.1297,2.0328,1.9537,1.8534,1.7503,1.6727,1.6021,1.5577,1.5477,1.4996,1.4699,1.4638,1.3861,1.3241,1.271,1.2663,1.2329,1.1678,1.0723,1.0234,1.0302,1.0321,1.0532,1.1008,1.1527,1.2012,1.2424,1.262,1.2713,1.2477,1.1309,1.036,1.0189,0.96,0.9402,0.9641,1.0126,0.9468,0.7181,0.6523,0.5157,0.3249,0.203,-0.0434,-0.2849,0.0958,0.4888,0.5851,0.8095,1.0092,1.1959,1.255,1.3564,1.4611,1.4253,1.3812,1.3757,1.3195,1.119,0.8253,0.8113,0.8708,0.8608,0.7541,0.5596,0.3056,0.2635,0.2663,0.2519,0.259,0.2643,0.2509,0.3146,0.3561,0.3527,0.3255,0.2855,0.2558,0.1734,0.0563,-0.0809,-0.2274,-0.3765,-0.4861,-0.5826,-0.6683,-0.6877,-0.7128,-0.7835,-0.8425,-0.8859,-0.9412,-1.0419,-1.1648,-1.3304,-1.4841,-1.6975,-1.8165,-1.9371,-2.0377,-2.1735,-2.2738,-2.292,-2.3129,-2.3236,-2.3328,-2.3401,2.105,2.0511,2.1315,2.1666,2.1684,2.1662,2.2056,2.2508,2.1327,2.084,2.062,1.8882,1.7777,1.7379,1.6716,1.638,1.6331,1.5654,1.5057,1.4566,1.4184,1.3656,1.3067,1.2939,1.234,1.138,1.0939,1.0743,1.0781,1.0743,1.1008,1.1542,1.1984,1.2674,1.3472,1.4188,1.4607,1.4506,1.3738,1.2686,1.1517,1.096,1.0851,1.1161,1.1709,1.2042,1.2524,1.0196,0.7826,0.5845,0.537,0.361,0.1862,0.6497,0.9435,0.8601,1.1343,1.2727,1.2669,1.3949,1.4893,1.5261,1.5197,1.4729,1.4184,1.4175,1.3046,1.0633,1.0636,1.0853,1.0633,0.9851,0.7983,0.5272,0.4995,0.4879,0.4523,0.4481,0.4836,0.525,0.4427,0.4509,0.5749,0.5444,0.443,0.4288,0.3629,0.2478,0.0555,-0.0688,-0.1881,-0.3219,-0.4153,-0.4974,-0.5238,-0.5484,-0.5976,-0.6823,-0.7491,-0.8364,-0.9379,-1.0529,-1.2245,-1.459,-1.6734,-1.8425,-1.9654,-2.0909,-2.224,-2.3187,-2.3576,-2.3659,-2.3598,-2.3681,-2.3848,2.2046,2.1569,2.1877,2.1981,2.1819,2.1658,2.1838,2.2174,2.096,2.0562,2.0389,1.8802,1.8017,1.7942,1.7354,1.715,1.7206,1.6645,1.5924,1.502,1.4397,1.3954,1.3433,1.3234,1.2628,1.1673,1.1361,1.1297,1.1319,1.1297,1.1619,1.2259,1.2854,1.3539,1.4337,1.5005,1.5403,1.5466,1.473,1.3748,1.2711,1.2212,1.2045,1.2102,1.2861,1.4103,1.5318,1.3462,1.1568,0.973,0.8496,0.6323,0.4502,0.9606,1.268,1.2111,1.3105,1.4383,1.4394,1.5535,1.6351,1.6398,1.6234,1.5697,1.4842,1.47,1.3556,1.2637,1.2615,1.2673,1.2244,1.1522,1.0098,0.8398,0.7591,0.7189,0.6789,0.6498,0.6629,0.6947,0.6235,0.6331,0.6739,0.68,0.5769,0.5535,0.5056,0.3999,0.1943,0.0765,-0.0499,-0.169,-0.2627,-0.3268,-0.3723,-0.3946,-0.416,-0.509,-0.6063,-0.7163,-0.8276,-0.9393,-1.0842,-1.4597,-1.7219,-1.9008,-2.0303,-2.1404,-2.2615,-2.3362,-2.4186,-2.416,-2.4174,-2.4299,-2.442,2.2791,2.2821,2.2379,2.213,2.2091,2.1448,2.1278,2.1339,2.0394,1.9808,1.9336,1.836,1.809,1.8224,1.7631,1.7615,1.8069,1.7693,1.706,1.6049,1.4989,1.4187,1.3894,1.355,1.3132,1.2683,1.2224,1.1985,1.214,1.2021,1.2283,1.3251,1.4083,1.4689,1.5182,1.5227,1.5739,1.5924,1.4937,1.4163,1.3586,1.3396,1.3046,1.2444,1.4059,1.5427,1.6279,1.6451,1.5914,1.4186,1.095,0.8812,0.8398,1.1838,1.4831,1.5169,1.4492,1.5358,1.668,1.7007,1.7325,1.7887,1.7205,1.6417,1.5949,1.4718,1.383,1.3533,1.4201,1.4428,1.3731,1.3085,1.2432,1.1778,1.0196,0.933,0.933,0.8734,0.8608,0.8694,0.8415,0.8072,0.7691,0.7389,0.7009,0.6517,0.5995,0.4809,0.3564,0.2334,0.0883,-0.0088,-0.0752,-0.1418,-0.1801,-0.2159,-0.2378,-0.3158,-0.4203,-0.536,-0.7137,-0.8464,-1.0136,-1.3873,-1.7305,-1.917,-2.087,-2.1936,-2.3093,-2.4115,-2.4579,-2.4655,-2.4685,-2.4727,-2.4676,2.2739,2.1556,2.164,2.1292,2.0709,2.0545,2.057,2.054,1.9676,1.9473,1.9487,1.8124,1.7498,1.7674,1.7573,1.7896,1.8305,1.799,1.7648,1.7157,1.6146,1.5079,1.4418,1.4164,1.411,1.4065,1.3701,1.3624,1.3618,1.338,1.3677,1.4502,1.5336,1.5952,1.6349,1.7208,1.745,1.7076,1.6531,1.5711,1.4954,1.4521,1.415,1.3942,1.5228,1.6733,1.8104,1.8919,1.802,1.5557,1.3772,1.2595,1.2444,1.5548,1.7616,1.7646,1.6988,1.6548,1.7306,1.785,1.8119,1.8106,1.8014,1.7517,1.6845,1.5788,1.5128,1.5152,1.598,1.6678,1.6323,1.5652,1.5104,1.4483,1.2374,1.0873,1.1088,1.0761,1.0575,1.0987,1.0613,1.0214,0.9765,0.9439,0.9045,0.8496,0.7684,0.6735,0.5481,0.4474,0.3215,0.2351,0.1613,0.0789,0.0176,-0.0221,-0.0708,-0.1336,-0.225,-0.3179,-0.5432,-0.7784,-0.9869,-1.2724,-1.6236,-1.8594,-2.0694,-2.2342,-2.3559,-2.4653,-2.4679,-2.464,-2.4747,-2.4799,-2.4721,2.2182,2.1271,2.1111,2.0488,1.9675,1.9735,1.9973,2.0018,1.902,1.8313,1.8066,1.7284,1.6905,1.7066,1.6984,1.7526,1.8383,1.811,1.7864,1.7618,1.6717,1.5768,1.5066,1.4857,1.4861,1.4819,1.4936,1.492,1.483,1.471,1.5096,1.5737,1.6427,1.7003,1.7494,1.8198,1.852,1.798,1.7662,1.7139,1.6515,1.6039,1.5669,1.5652,1.652,1.7837,1.9269,1.9931,1.9224,1.7451,1.6433,1.6001,1.6157,1.818,1.9538,1.95,1.8714,1.8217,1.8363,1.8836,1.9011,1.8883,1.8855,1.8496,1.7968,1.7304,1.687,1.6569,1.7616,1.8232,1.8274,1.7473,1.6808,1.6301,1.4781,1.3623,1.3632,1.3216,1.2889,1.2843,1.2579,1.2028,1.1501,1.112,1.0696,1.0097,0.9318,0.8439,0.7485,0.6628,0.5884,0.5163,0.4504,0.3874,0.3444,0.3077,0.2084,0.1268,0.0352,-0.0668,-0.3628,-0.6518,-0.9428,-1.2008,-1.5207,-1.8111,-2.0314,-2.2318,-2.3711,-2.4454,-2.4531,-2.4553,-2.4588,-2.435,-2.4339,2.1521,2.1488,2.0714,1.9876,1.9184,1.9091,1.9402,1.9597,1.8314,1.7019,1.6215,1.6221,1.658,1.6713,1.6895,1.7125,1.8149,1.8323,1.827,1.7922,1.73,1.6613,1.6196,1.5776,1.5649,1.5584,1.5915,1.6072,1.6088,1.6119,1.641,1.6965,1.7411,1.795,1.8492,1.8804,1.8765,1.8768,1.8415,1.8297,1.8014,1.7581,1.7065,1.6997,1.7716,1.8712,1.9698,2.0169,1.9843,1.9244,1.8952,1.8603,1.8759,1.9763,2.0195,2.0175,1.9748,1.9473,1.9563,1.9737,1.9966,1.9846,1.9639,1.9441,1.9032,1.8693,1.834,1.7869,1.8802,1.9319,1.9353,1.8413,1.7876,1.7694,1.7521,1.7151,1.6469,1.574,1.5119,1.4515,1.4453,1.3708,1.2746,1.2192,1.2069,1.1391,1.0798,1.0469,0.9859,0.9319,0.8764,0.8291,0.7682,0.7107,0.6825,0.6552,0.5287,0.4184,0.3232,0.1776,-0.1542,-0.4726,-0.8318,-1.152,-1.4558,-1.7418,-2.0024,-2.1839,-2.3574,-2.4455,-2.4706,-2.4447,-2.4149,-2.3663,-2.3469,2.1416,2.0581,2.0406,1.9819,1.9094,1.9016,1.8722,1.8152,1.722,1.6651,1.66,1.6535,1.6647,1.6967,1.7562,1.8106,1.7993,1.864,1.9011,1.8749,1.8637,1.843,1.7944,1.7122,1.693,1.7283,1.7786,1.7873,1.7728,1.7576,1.7765,1.819,1.849,1.8963,1.9431,1.9585,1.9835,1.9781,1.9207,1.9137,1.9308,1.8558,1.793,1.7859,1.8721,1.9544,2.0077,2.027,2.023,2.0134,2.0018,1.9822,1.9781,2.0104,2.0357,2.0347,2.0249,2.0106,2.0142,2.0155,2.024,2.0197,1.999,1.9873,1.9811,1.9607,1.9465,1.94,1.9786,1.9887,1.9727,1.9519,1.9115,1.8944,1.8954,1.8941,1.8588,1.7429,1.6725,1.6703,1.6628,1.6087,1.4688,1.4741,1.4136,1.2885,1.2488,1.2419,1.2197,1.1898,1.1696,1.1347,1.1176,1.059,0.952,0.9069,0.7889,0.6885,0.6035,0.5185,0.1806,-0.2312,-0.5655,-0.9664,-1.3769,-1.657,-1.9177,-2.1887,-2.3711,-2.4297,-2.4622,-2.405,-2.3466,-2.3001,-2.2477,2.0588,1.9653,1.9581,1.8868,1.7888,1.7745,1.7298,1.6586,1.6064,1.5995,1.6171,1.6052,1.6315,1.687,1.7466,1.7791,1.848,1.9153,1.95,1.9339,1.9255,1.9138,1.9041,1.8542,1.8429,1.8681,1.8772,1.8864,1.8849,1.8805,1.8867,1.9145,1.9345,1.954,1.9881,2.0027,2.0087,2.0065,1.9679,1.9588,1.9718,1.9173,1.8595,1.86,1.9283,1.989,2.0087,2.0273,2.035,2.0406,2.0456,2.0449,2.033,2.0414,2.0465,2.041,2.0367,2.0332,2.0312,2.0279,2.0236,2.0252,2.0081,1.9999,1.9992,1.9977,2.0039,1.998,1.99,1.9746,1.9726,1.9765,1.9721,1.9741,1.9747,1.9797,1.9662,1.8828,1.8051,1.8167,1.8075,1.7287,1.6713,1.658,1.5926,1.4558,1.4433,1.4397,1.4514,1.431,1.4615,1.4536,1.4572,1.396,1.2518,1.1407,1.0267,0.943,0.8732,0.8114,0.6471,0.1926,-0.2647,-0.7433,-1.243,-1.5382,-1.8049,-2.0861,-2.3103,-2.3338,-2.3373,-2.3098,-2.2629,-2.1862,-2.1407,1.9722,1.9027,1.8787,1.7902,1.6739,1.6419,1.6015,1.546,1.5115,1.523,1.5392,1.5401,1.6108,1.662,1.7063,1.795,1.9004,1.9401,1.9535,1.9764,1.9457,1.9389,1.9341,1.9507,1.9511,1.9326,1.9393,1.9515,1.9617,1.9716,1.9668,1.9851,1.9846,1.9855,1.9992,1.9993,1.9936,1.9836,1.9752,1.9517,1.9419,1.9114,1.8916,1.8947,1.9067,1.9488,1.9684,1.9892,2.0102,2.0264,2.0469,2.0527,2.0511,2.0545,2.0458,2.0323,2.0294,2.0269,2.0192,2.0161,2.0108,2.0101,1.9931,1.9827,1.9834,2.0,2.0089,1.9953,1.9759,1.9478,1.9619,1.9736,1.9831,1.9884,1.9997,2.0103,2.0094,1.9864,1.9278,1.8944,1.8998,1.8554,1.7956,1.7629,1.6974,1.6453,1.638,1.632,1.6403,1.6613,1.6824,1.6974,1.6902,1.6181,1.4796,1.4362,1.3122,1.1911,1.1307,1.0792,1.0197,0.6939,0.1789,-0.6056,-1.0903,-1.4315,-1.7425,-2.0135,-2.1725,-2.2089,-2.21,-2.1826,-2.1289,-2.0639,-2.0437,1.9884,1.9579,1.8904,1.834,1.7712,1.6476,1.578,1.5545,1.4947,1.487,1.5206,1.5857,1.623,1.6856,1.8171,1.9198,1.9707,1.9644,1.961,1.9929,1.9628,1.9425,1.9779,2.0024,2.0094,2.0157,2.0095,2.0077,2.0108,2.0214,2.0188,2.0246,2.0131,2.0032,1.9856,1.9703,1.9583,1.9487,1.9513,1.936,1.8901,1.8676,1.8572,1.8552,1.8515,1.8727,1.9039,1.9041,1.9126,1.9631,2.0139,2.0248,2.0136,2.0172,2.0041,1.985,1.9862,1.9835,1.9846,1.984,1.9733,1.9604,1.9519,1.9507,1.955,1.9724,1.985,1.977,1.9564,1.94,1.9743,1.9677,1.9783,1.9869,1.9877,1.992,1.9949,1.992,1.9823,1.9557,1.976,1.9862,1.9191,1.8666,1.8244,1.795,1.795,1.779,1.7731,1.8174,1.866,1.8832,1.8956,1.7966,1.6814,1.6801,1.6213,1.4627,1.38,1.3283,1.2508,1.133,0.638,-0.0803,-0.9017,-1.5068,-1.7766,-1.9771,-2.0069,-2.0219,-2.0354,-2.0511,-2.0327,-2.0082,-1.9928,1.9424,1.8989,1.8376,1.7858,1.7259,1.6115,1.5533,1.5361,1.478,1.4634,1.4939,1.544,1.5989,1.6721,1.798,1.9206,1.9772,1.9776,1.9798,2.0027,1.9838,1.9355,1.9585,1.9929,2.0176,2.0175,2.0229,2.0299,2.0277,2.0331,2.0388,2.0352,2.0266,2.0095,1.9901,1.9743,1.9431,1.9251,1.9274,1.9075,1.836,1.8156,1.8012,1.7876,1.7918,1.8119,1.8324,1.8453,1.8475,1.8901,1.9675,1.9833,1.9565,1.9075,1.8842,1.8599,1.8716,1.8948,1.91,1.9099,1.9017,1.9121,1.9127,1.9182,1.925,1.9394,1.9532,1.9462,1.9183,1.9109,1.9484,1.9382,1.9287,1.9411,1.9494,1.9569,1.962,1.9789,1.9822,1.9873,1.9922,1.9959,2.0063,1.9677,1.9466,1.9412,1.94,1.92,1.8934,1.9197,1.9594,1.9492,1.938,1.877,1.7635,1.7281,1.755,1.6469,1.5592,1.5079,1.5132,1.4073,1.0864,0.5398,-0.3265,-1.2706,-1.7294,-1.895,-1.8663,-1.8395,-1.8717,-1.9055,-1.9488,-1.9592,-1.9378,1.9085,1.8466,1.7933,1.7462,1.6947,1.5926,1.5571,1.5449,1.4995,1.4779,1.4813,1.5038,1.5619,1.6537,1.7655,1.8782,1.9753,1.9666,1.9694,1.9893,1.9731,1.9176,1.8921,1.9107,1.9614,1.9609,1.9895,2.0162,2.028,2.0347,2.0375,2.0346,2.0311,2.01,1.9829,1.9637,1.935,1.9093,1.8891,1.8592,1.7971,1.7601,1.7378,1.7065,1.7231,1.7302,1.7629,1.7298,1.7448,1.7837,1.8438,1.8931,1.8529,1.7527,1.6715,1.6495,1.6861,1.7535,1.8001,1.8378,1.8485,1.8628,1.8806,1.8913,1.9053,1.9219,1.9316,1.9227,1.9047,1.8932,1.925,1.9014,1.8948,1.9048,1.9204,1.9261,1.9331,1.9439,1.9525,1.9641,1.9849,1.9941,1.9938,2.0149,1.9844,1.9784,1.978,1.9745,1.9511,1.9454,1.9657,1.9535,1.9344,1.9044,1.8118,1.6888,1.7106,1.6899,1.6182,1.5676,1.6477,1.7009,1.3074,0.8813,0.1259,-0.7533,-1.2799,-1.7347,-1.7051,-1.6884,-1.7228,-1.7569,-1.789,-1.8429,-1.861,1.9444,1.9084,1.8107,1.7964,1.8057,1.6571,1.6218,1.6618,1.5958,1.5604,1.5252,1.5223,1.5692,1.6648,1.7417,1.8313,1.8798,1.872,1.8958,1.9497,1.9094,1.8732,1.8363,1.7825,1.8607,1.8997,1.9358,1.9711,1.9985,2.0182,2.0347,2.0282,2.013,1.9935,1.9582,1.9484,1.9043,1.8642,1.8231,1.7702,1.7148,1.7101,1.6976,1.6626,1.6177,1.6099,1.6678,1.6201,1.5862,1.6621,1.6425,1.6818,1.7046,1.508,1.3533,1.3455,1.4479,1.6328,1.7015,1.771,1.8176,1.8348,1.8552,1.8753,1.8983,1.9123,1.921,1.9286,1.9196,1.9186,1.9259,1.9193,1.9212,1.918,1.9146,1.9193,1.9225,1.9093,1.9167,1.9308,1.9494,1.9604,1.9649,1.9952,2.0172,2.0162,2.0129,2.0041,1.9863,1.9638,1.9111,1.8813,1.8675,1.8414,1.7904,1.6775,1.6621,1.6853,1.6666,1.6191,1.6628,1.6869,1.533,1.0334,0.3694,-0.2103,-0.7939,-1.1746,-1.3997,-1.5141,-1.5189,-1.5661,-1.6206,-1.6839,-1.747,1.9365,1.9222,1.8342,1.8305,1.861,1.7219,1.6753,1.6857,1.623,1.561,1.5084,1.4742,1.5106,1.5972,1.628,1.6992,1.7819,1.7566,1.8151,1.8864,1.8422,1.8191,1.8555,1.8014,1.7945,1.8723,1.9156,1.9122,1.9449,1.9771,2.0046,2.0,1.9955,1.9812,1.9529,1.9458,1.9191,1.8789,1.8255,1.7614,1.7004,1.6644,1.6387,1.6046,1.5456,1.565,1.5802,1.5515,1.5152,1.5634,1.5278,1.4711,1.4182,1.278,1.1721,1.2829,1.3496,1.4757,1.5952,1.709,1.7782,1.8353,1.8716,1.9094,1.9127,1.9034,1.9077,1.9273,1.9302,1.9297,1.9216,1.9031,1.8947,1.8948,1.9048,1.9002,1.8984,1.886,1.8843,1.8986,1.9201,1.9437,1.9586,1.965,1.9962,2.0174,2.004,1.9886,1.956,1.9151,1.8494,1.7721,1.7662,1.7579,1.7027,1.6265,1.6136,1.6377,1.6826,1.6424,1.6252,1.5803,1.4704,1.4718,1.1579,0.5159,-0.224,-0.7817,-1.1522,-1.2531,-1.3068,-1.3517,-1.4078,-1.5056,-1.5708,1.923,1.9164,1.8642,1.8479,1.8538,1.7694,1.7218,1.69,1.6377,1.5622,1.4865,1.4397,1.4532,1.4844,1.4949,1.5593,1.6798,1.6318,1.6982,1.7479,1.7623,1.738,1.7589,1.7384,1.8162,1.8772,1.9106,1.8946,1.8827,1.9139,1.963,1.9545,1.9733,1.97,1.963,1.9555,1.9383,1.9073,1.8664,1.7928,1.7032,1.6385,1.5929,1.5486,1.5169,1.5154,1.549,1.4862,1.4573,1.4892,1.4436,1.3742,1.283,1.1615,1.166,1.291,1.4169,1.5081,1.6015,1.6875,1.7679,1.8413,1.9057,1.9447,1.9342,1.9011,1.8929,1.9366,1.9299,1.9295,1.9235,1.8999,1.8982,1.893,1.8895,1.8787,1.8741,1.8871,1.9137,1.9525,1.9697,1.9668,1.9695,1.9449,1.9651,2.0047,2.0009,1.9745,1.9271,1.8762,1.8186,1.7432,1.7036,1.6993,1.6575,1.6095,1.592,1.5844,1.6342,1.6386,1.6041,1.5706,1.502,1.5396,1.5825,1.2447,0.5094,-0.2291,-0.8979,-0.8514,-0.8621,-1.0776,-1.1938,-1.2964,-1.3813,1.9036,1.9019,1.8949,1.8378,1.763,1.7999,1.7563,1.674,1.6635,1.5829,1.4726,1.4417,1.4007,1.3913,1.3949,1.4404,1.5375,1.4873,1.528,1.5828,1.612,1.5918,1.6274,1.7264,1.8212,1.7817,1.8392,1.8582,1.8466,1.8785,1.8938,1.8813,1.9351,1.9557,1.9577,1.9456,1.9438,1.9257,1.9073,1.829,1.7235,1.6481,1.5975,1.5317,1.4677,1.4417,1.5109,1.4266,1.4013,1.4592,1.3925,1.3598,1.2914,1.1623,1.1959,1.3725,1.5846,1.6546,1.6937,1.7236,1.7835,1.8605,1.9277,1.9717,1.9588,1.9397,1.939,1.9509,1.9457,1.9342,1.9329,1.9259,1.9196,1.9049,1.9036,1.9093,1.9109,1.9206,1.9522,2.0033,2.014,1.9992,2.0166,2.0009,1.9867,2.0254,1.97,1.9415,1.8941,1.8444,1.8031,1.7409,1.6758,1.6507,1.6367,1.6065,1.5868,1.5652,1.5808,1.5738,1.5458,1.5137,1.4911,1.4548,1.4544,1.364,1.2459,0.5199,-0.0337,-0.2451,-0.4248,-0.6619,-0.917,-1.0755,-1.1526,1.8537,1.8039,1.8338,1.8204,1.7822,1.7696,1.7171,1.6464,1.6204,1.5385,1.4095,1.3552,1.3189,1.305,1.3059,1.3473,1.4121,1.3748,1.419,1.4573,1.4803,1.5112,1.5633,1.6157,1.682,1.7705,1.8231,1.8222,1.8184,1.8401,1.8261,1.836,1.8886,1.905,1.9099,1.9102,1.9178,1.9326,1.9184,1.8555,1.7537,1.7116,1.644,1.5055,1.5172,1.5009,1.5182,1.4476,1.4456,1.4449,1.3823,1.3767,1.3859,1.2672,1.3229,1.4892,1.7157,1.8019,1.8059,1.8253,1.8783,1.9454,1.9888,2.0012,2.0036,1.9726,1.9638,1.9668,1.9675,1.9583,1.9489,1.9471,1.9398,1.9214,1.9208,1.932,1.9452,1.9503,1.9836,2.0344,2.025,2.0047,2.0365,2.067,2.0529,2.0407,1.9703,1.9066,1.8607,1.8118,1.7732,1.7311,1.6719,1.6242,1.608,1.5942,1.5814,1.5624,1.5419,1.5271,1.5167,1.4774,1.4495,1.3946,1.3514,1.3116,1.2229,1.0667,0.7018,0.1984,-0.0835,-0.2722,-0.5334,-0.8205,-0.9289,1.8199,1.7546,1.7855,1.7824,1.7586,1.7148,1.6505,1.5774,1.5318,1.4463,1.3229,1.2701,1.2435,1.238,1.2388,1.2657,1.3075,1.307,1.3534,1.3819,1.409,1.4527,1.5086,1.5574,1.6038,1.7457,1.742,1.7054,1.7642,1.7778,1.7799,1.7887,1.811,1.8235,1.8324,1.8269,1.8606,1.9147,1.9188,1.8241,1.6991,1.717,1.6826,1.5443,1.5519,1.5775,1.5719,1.5326,1.5261,1.5284,1.4991,1.4702,1.4717,1.4855,1.5178,1.6393,1.7861,1.9178,1.9469,1.969,2.0001,2.0566,2.0974,2.0962,2.0776,2.0361,2.0013,2.0282,2.0134,1.9887,1.9731,1.9591,1.9527,1.9353,1.9214,1.9312,1.9558,1.9704,2.0152,2.0617,2.043,2.025,2.0007,2.0251,2.0135,1.9863,1.9177,1.868,1.8415,1.7924,1.7412,1.7027,1.6612,1.6207,1.5856,1.5827,1.5799,1.5785,1.5566,1.5241,1.5002,1.4707,1.427,1.3792,1.3343,1.2902,1.1949,1.0738,0.7873,0.4295,0.1545,-0.135,-0.2448,-0.5246,-0.6895,1.8044,1.7703,1.7693,1.7238,1.6641,1.6331,1.5697,1.4767,1.4042,1.3241,1.2401,1.2226,1.2086,1.194,1.1961,1.2179,1.2437,1.2562,1.2878,1.3187,1.3481,1.3693,1.4125,1.4677,1.5217,1.5446,1.5864,1.6401,1.7109,1.7462,1.7537,1.7471,1.7557,1.7521,1.7489,1.6976,1.7621,1.8973,1.9084,1.7587,1.6432,1.6862,1.659,1.613,1.6266,1.6588,1.6367,1.6239,1.62,1.6287,1.6597,1.6403,1.6185,1.7034,1.7224,1.7024,1.8735,2.0018,2.0879,2.1177,2.1474,2.1591,2.1922,2.2194,2.2171,2.1464,2.0468,2.0717,2.0731,2.0293,1.9981,1.9838,1.9892,1.9536,1.9405,1.9457,1.9693,1.9734,2.0134,2.0293,2.0456,2.0453,1.9964,1.9655,1.956,1.9218,1.861,1.827,1.817,1.7788,1.7263,1.6994,1.6649,1.6409,1.612,1.5883,1.5812,1.5799,1.5698,1.5388,1.5291,1.5195,1.4648,1.3833,1.3372,1.3094,1.2066,1.0941,0.8062,0.5209,0.1759,-0.0737,-0.1433,-0.2646,-0.4942,1.7361,1.7093,1.6869,1.6614,1.6355,1.6289,1.5455,1.4059,1.2991,1.2259,1.2006,1.1933,1.1912,1.1826,1.1826,1.1955,1.2169,1.2251,1.253,1.2979,1.3226,1.37,1.4042,1.4203,1.4709,1.5471,1.5773,1.6166,1.7353,1.7416,1.7664,1.7703,1.7404,1.7273,1.74,1.72,1.7527,1.7693,1.777,1.7427,1.6632,1.7008,1.712,1.6549,1.7174,1.7405,1.7151,1.7044,1.7173,1.7403,1.7734,1.7735,1.7611,1.8377,1.866,1.8372,1.9476,2.0493,2.1531,2.2241,2.2876,2.2817,2.2762,2.2882,2.2246,2.2219,2.1588,2.1215,2.1598,2.1139,2.0448,2.1263,2.1266,2.0028,1.9736,1.9829,1.9952,1.9756,1.9808,1.9736,1.9797,2.001,1.976,1.9542,1.9394,1.9147,1.862,1.831,1.8187,1.7743,1.7256,1.7085,1.6853,1.6638,1.6443,1.6305,1.6151,1.6136,1.5931,1.5609,1.5538,1.5641,1.516,1.4486,1.3864,1.3219,1.2054,1.0729,0.8749,0.6026,0.2922,0.0655,-0.0131,-0.1886,-0.4522,1.7133,1.6789,1.6554,1.6313,1.6105,1.589,1.4822,1.3287,1.2214,1.1693,1.1548,1.1571,1.1615,1.1637,1.1747,1.1869,1.2066,1.2185,1.2376,1.2883,1.3291,1.3586,1.3731,1.3956,1.4504,1.5245,1.5537,1.5931,1.7152,1.7166,1.7352,1.7557,1.7587,1.7362,1.7276,1.7035,1.6568,1.6306,1.6011,1.6641,1.699,1.7639,1.7868,1.7802,1.8104,1.8476,1.8128,1.8066,1.817,1.839,1.8548,1.8718,1.8831,1.9052,1.942,1.9332,2.0345,2.1436,2.2566,2.3638,2.4043,2.3793,2.3689,2.3527,2.3253,2.3548,2.3185,2.2876,2.2758,2.2274,2.1866,2.2757,2.2064,2.0822,2.072,2.0851,2.0782,2.0642,2.0217,2.0044,1.9866,1.9888,1.9738,1.9485,1.9326,1.9033,1.8698,1.8432,1.8187,1.776,1.7392,1.7239,1.7134,1.7034,1.6921,1.6818,1.668,1.6506,1.6338,1.6174,1.6079,1.6194,1.5654,1.5031,1.417,1.3236,1.1964,1.0479,0.9067,0.7182,0.4735,0.2824,0.1453,-0.0839,-0.3388,1.7372,1.6825,1.6779,1.6382,1.5779,1.5158,1.3944,1.2438,1.1948,1.1474,1.1037,1.1322,1.14,1.1423,1.1659,1.1833,1.1918,1.2123,1.2372,1.2819,1.342,1.3503,1.3714,1.4061,1.4504,1.4616,1.4965,1.5827,1.6789,1.7079,1.7167,1.7431,1.7905,1.7717,1.7341,1.7122,1.6468,1.585,1.5539,1.6348,1.7237,1.8444,1.8627,1.8721,1.8989,1.9263,1.9151,1.9165,1.9242,1.934,1.9399,1.9501,1.9563,1.9607,1.9488,2.0047,2.1598,2.2861,2.3531,2.4532,2.4956,2.4726,2.4947,2.5149,2.5042,2.4772,2.4498,2.4154,2.396,2.3724,2.3576,2.3228,2.2849,2.2395,2.223,2.2186,2.2086,2.1758,2.1255,2.0951,2.0721,2.0535,2.0149,1.9845,1.9397,1.9093,1.8807,1.8471,1.8229,1.7949,1.7618,1.7479,1.7417,1.7461,1.7453,1.768,1.772,1.7716,1.7371,1.7182,1.7018,1.6755,1.6147,1.5399,1.4371,1.3218,1.1911,1.0913,0.9944,0.8051,0.6881,0.4575,0.3086,0.0839,-0.1332,1.6853,1.6421,1.6191,1.5955,1.5711,1.4933,1.4154,1.3496,1.2587,1.1968,1.183,1.1427,1.1413,1.1659,1.1747,1.1897,1.2045,1.219,1.2372,1.2856,1.3468,1.3681,1.3965,1.4325,1.466,1.5031,1.5429,1.5828,1.6209,1.6679,1.7446,1.7942,1.813,1.8128,1.8192,1.8419,1.7453,1.661,1.6091,1.6707,1.756,1.8752,1.8994,1.9261,1.9406,1.958,1.9587,1.971,1.9749,1.9801,1.9954,2.0069,2.0097,2.0117,2.0164,2.0885,2.2642,2.4193,2.4045,2.4606,2.5105,2.5206,2.5316,2.5305,2.531,2.5328,2.5389,2.5053,2.483,2.4567,2.4447,2.4167,2.3659,2.325,2.3187,2.3233,2.3096,2.2756,2.2251,2.1885,2.164,2.0916,2.0532,1.9979,1.9548,1.9231,1.8929,1.8641,1.8345,1.8091,1.8102,1.7986,1.7732,1.7771,1.8616,1.8998,1.8968,1.8917,1.8579,1.8326,1.8248,1.7826,1.6842,1.5662,1.4317,1.3082,1.1817,1.1135,1.1015,1.1064,0.9973,0.716,0.4524,0.2219,0.0753,1.6607,1.6301,1.608,1.5926,1.5668,1.4876,1.4421,1.4051,1.2885,1.2116,1.1638,1.1499,1.1471,1.1444,1.1652,1.1865,1.2003,1.2033,1.2272,1.2994,1.352,1.3881,1.4237,1.4697,1.5055,1.5404,1.5683,1.6005,1.6177,1.6488,1.716,1.7792,1.8127,1.8196,1.8281,1.857,1.8458,1.7578,1.7122,1.755,1.8213,1.8916,1.9202,1.9415,1.9541,1.9596,1.9669,1.9869,1.9912,1.9922,2.0079,2.0193,2.0231,2.0298,2.0164,2.083,2.2238,2.3438,2.3812,2.4312,2.4831,2.5197,2.5389,2.5443,2.541,2.5406,2.5425,2.5318,2.5331,2.5325,2.5302,2.5172,2.4505,2.3849,2.4002,2.4175,2.3951,2.3689,2.3291,2.2862,2.2221,2.1406,2.0786,2.0213,1.9719,1.9434,1.9235,1.9039,1.8755,1.8464,1.8666,1.8822,1.8391,1.8142,1.9186,2.0246,2.0353,2.0238,1.9857,1.9637,1.9515,1.8783,1.7696,1.596,1.4105,1.3043,1.2109,1.2489,1.2529,1.2728,1.2309,0.9511,0.6396,0.3393,0.2447,1.6528,1.6203,1.6176,1.5839,1.5536,1.4752,1.4379,1.4256,1.3026,1.1882,1.1171,1.1467,1.1489,1.1398,1.1794,1.1968,1.2089,1.2112,1.2501,1.3243,1.382,1.4223,1.4648,1.5119,1.5314,1.544,1.5618,1.5911,1.6467,1.6811,1.7114,1.7435,1.7874,1.8034,1.8075,1.8976,1.8855,1.7923,1.7495,1.7613,1.8629,1.9188,1.938,1.9513,1.9582,1.9604,1.9726,1.9786,1.9778,1.979,1.9847,2.0002,2.0153,2.0285,2.0076,2.0534,2.1816,2.2906,2.373,2.4293,2.4709,2.5098,2.5401,2.5506,2.552,2.5503,2.5535,2.5531,2.5513,2.5414,2.5363,2.5337,2.4906,2.4601,2.4656,2.4692,2.4564,2.4335,2.4074,2.3709,2.3381,2.2511,2.1532,2.1035,2.0504,1.9954,1.96,1.95,1.9442,1.9117,1.9368,1.9729,1.9429,1.9371,2.0541,2.1463,2.1746,2.1598,2.1088,2.0689,2.0363,1.9497,1.8489,1.6608,1.4661,1.3543,1.2851,1.3383,1.4171,1.493,1.397,1.1548,0.856,0.5392,0.3628,1.5846,1.5721,1.5167,1.4707,1.4374,1.4117,1.3835,1.3514,1.3196,1.2475,1.1829,1.1804,1.1763,1.1607,1.2405,1.2617,1.226,1.259,1.2819,1.3282,1.3889,1.4591,1.4878,1.5165,1.5457,1.5743,1.5837,1.5878,1.6433,1.6925,1.7329,1.7577,1.8067,1.8333,1.8408,1.9369,1.9119,1.8378,1.7803,1.7725,1.8335,1.9011,1.9335,1.9346,1.9357,1.9467,1.9577,1.963,1.9701,1.9774,1.9801,1.992,2.0051,2.021,2.0233,2.0455,2.1582,2.2734,2.3618,2.4292,2.4849,2.5192,2.5476,2.5581,2.5624,2.5634,2.5622,2.5622,2.5567,2.5468,2.5393,2.5374,2.5346,2.5265,2.5163,2.5111,2.5077,2.4892,2.4699,2.449,2.4302,2.3518,2.2489,2.1756,2.1285,2.0825,2.0383,2.0219,2.0406,2.0315,2.0486,2.0746,2.0653,2.0904,2.1983,2.2497,2.2708,2.2488,2.1953,2.158,2.1163,1.9903,1.8602,1.7023,1.5396,1.4498,1.4166,1.4675,1.5505,1.6249,1.5466,1.2955,1.0983,0.8143,0.5972,1.5271,1.5062,1.4474,1.4438,1.4564,1.3921,1.3648,1.3702,1.3357,1.2751,1.2124,1.2027,1.1978,1.202,1.2912,1.314,1.2753,1.319,1.3612,1.3886,1.4101,1.4812,1.5134,1.5279,1.5563,1.5897,1.6103,1.6296,1.6598,1.6974,1.7385,1.7664,1.833,1.8721,1.8908,1.9263,1.9553,1.922,1.8209,1.7892,1.7955,1.8386,1.859,1.8593,1.902,1.9228,1.9305,1.9398,1.9509,1.9559,1.9541,1.9559,1.966,1.9751,1.9993,2.0501,2.1434,2.2589,2.3398,2.4221,2.4975,2.5278,2.5556,2.5644,2.5659,2.5664,2.568,2.5658,2.5661,2.557,2.5459,2.5409,2.5371,2.5284,2.5111,2.4998,2.4898,2.4776,2.4565,2.4354,2.4143,2.3769,2.2759,2.1841,2.1451,2.127,2.0878,2.1022,2.1231,2.1273,2.1544,2.1783,2.1688,2.2132,2.3079,2.3417,2.3515,2.32,2.2635,2.2001,2.1248,1.998,1.8619,1.7472,1.6502,1.5819,1.5671,1.6048,1.6087,1.6534,1.5671,1.4311,1.2444,1.0507,0.8299,1.469,1.431,1.3954,1.4438,1.5239,1.3901,1.3635,1.4149,1.3547,1.2876,1.2369,1.2384,1.2246,1.2397,1.3076,1.3178,1.3384,1.3681,1.4158,1.4385,1.4688,1.513,1.5426,1.5617,1.5598,1.5829,1.6176,1.6433,1.6684,1.7088,1.7434,1.7689,1.7964,1.8245,1.8462,1.9026,1.9551,1.8945,1.8261,1.7888,1.7773,1.7743,1.7939,1.8292,1.8695,1.913,1.9117,1.9134,1.9261,1.9308,1.932,1.9372,1.9369,1.9471,2.0089,2.0656,2.1563,2.2443,2.3132,2.4084,2.4754,2.5242,2.5522,2.5664,2.5677,2.5697,2.5683,2.5703,2.5703,2.5648,2.5522,2.5446,2.5391,2.5264,2.5077,2.4872,2.4752,2.457,2.4327,2.4113,2.3866,2.3618,2.2996,2.208,2.1789,2.1607,2.1607,2.1855,2.1995,2.1954,2.2064,2.2493,2.2743,2.3355,2.3945,2.3767,2.3635,2.3294,2.2635,2.2051,2.1332,2.0258,1.9279,1.8422,1.7516,1.7089,1.7023,1.7259,1.7238,1.7123,1.6123,1.5079,1.3532,1.1656,0.9987,1.3868,1.3446,1.3357,1.3702,1.4103,1.3467,1.3514,1.3855,1.3454,1.3076,1.3049,1.3277,1.3097,1.2178,1.3316,1.3554,1.3235,1.387,1.4019,1.4035,1.4829,1.5344,1.5563,1.5525,1.5086,1.5417,1.5921,1.6152,1.6733,1.7196,1.7471,1.7663,1.8708,1.8768,1.8365,1.8951,1.9367,1.8763,1.8569,1.8308,1.7876,1.795,1.832,1.8666,1.9026,1.9069,1.9018,1.9053,1.9052,1.9084,1.9196,1.9268,1.9287,1.9392,2.0041,2.1072,2.1979,2.2638,2.3416,2.4291,2.5007,2.5252,2.5496,2.5623,2.5644,2.5681,2.5684,2.5703,2.5684,2.5644,2.5551,2.5513,2.5441,2.5216,2.5018,2.4795,2.4623,2.4191,2.3779,2.3603,2.3415,2.3254,2.3061,2.2513,2.2428,2.22,2.1925,2.2167,2.2435,2.2523,2.2481,2.3017,2.3487,2.365,2.3813,2.3404,2.3186,2.2951,2.2583,2.191,2.1272,2.0699,1.9783,1.8933,1.8783,1.855,1.8569,1.8236,1.8187,1.7866,1.6898,1.5752,1.4339,1.295,1.1363]}]]